[[{"header":{"parameterUnit":"m.s-1","parameterCategory":1,"la1":31.0,"la2":29.5877,"lo1":-88.7671,"lo2":-86.6584,"dy":0.0162,"dx":0.0185,"nx":115,"ny":88,"refTime":"2024-05-01T06:00:00:Z","depth":0,"parameterNumber":2,"parameterNumberName":"U-component_of_WINDS"},"data":[0.0,0.0,0.0,0.0,0.0,0.0,0.0,0.0,0.0,0.0,0.0,0.0,0.0,0.0,0.0,0.0,0.0,0.0,0.0,0.0,0.0,0.0,0.0,0.0,0.0,0.0,0.0,0.0,0.0,0.0,0.0,0.0,0.0,0.0,0.0,0.0,0.0,0.0,0.0,0.0,0.0,0.0,0.0,0.0,0.0,0.0,0.0,0.0,0.0,0.0,0.0,0.0,0.0,0.0,0.0,0.0,0.0,0.0,0.0,0.0,0.0,0.0,0.0,0.0,0.0,0.0,0.0,0.0,0.0,0.0,0.0,0.0,0.0,0.0,0.0,0.0,0.0,0.0,0.0,0.0,0.0,0.0,0.0,0.0,0.0,0.0,0.0,0.0,0.0,0.0,0.0,0.0,0.0,0.0,0.0,0.0,0.0,0.0,0.0,0.0,0.0,0.0,0.0,0.0,0.0,0.0,0.0,0.0,0.0,0.0,0.0,0.0,0.0,0.0,0.0,0.0,0.0,0.0,0.0,0.0,0.0,0.0,0.0,0.0,0.0,0.0,0.0,0.0,0.0,0.0,0.0,0.0,0.0,0.0,0.0,0.0,0.0,0.0,0.0,0.0,0.0,0.0,0.0,0.0,0.0,0.0,0.0,0.0,0.0,0.0,0.0,0.0,0.0,0.0,0.0,0.0,0.0,0.0,0.0,0.0,0.0,0.0,0.0,0.0,0.0,0.0,0.0,0.0,0.0,0.0,0.0,0.0,0.0,0.0,0.0,0.0,0.0,0.0,0.0,0.0,0.0,0.0,0.0,0.0,0.0,0.0,0.0,0.0,0.0,0.0,0.0,0.0,0.0,0.0,0.0,0.0,0.0,0.0,0.0,0.0,0.0,0.0,0.0,0.0,0.0,0.0,0.0,0.0,0.0,0.0,0.0,0.0,0.0,0.0,0.0,0.0,0.0,0.0,0.0,0.0,0.0,0.0,0.0,0.0,0.0,0.0,0.0,0.0,0.0,0.0,0.0,0.0,0.0,0.0,0.0,0.0,0.0,0.0,0.0,0.0,0.0,0.0,0.0,0.0,0.0,0.0,0.0,0.0,0.0,0.0,0.0,0.0,0.0,0.0,0.0,0.0,0.0,0.0,0.0,0.0,0.0,0.0,0.0,0.0,0.0,0.0,0.0,0.0,0.0,0.0,0.0,0.0,0.0,0.0,0.0,0.0,0.0,0.0,0.0,0.0,0.0,0.0,0.0,0.0,0.0,0.0,0.0,0.0,0.0,0.0,0.0,0.0,0.0,0.0,0.0,0.0,0.0,0.0,0.0,0.0,0.0,0.0,0.0,0.0,0.0,0.0,0.0,0.0,0.0,0.0,0.0,0.0,0.0,0.0,0.0,0.0,0.0,0.0,0.0,0.0,0.0,0.0,0.0,0.0,0.0,0.0,0.0,0.0,0.0,0.0,0.0,0.0,0.0,0.0,0.0,0.0,0.0,0.0,0.0,0.0,0.0,0.0,0.0,0.0,0.0,0.0,0.0,0.0,0.0,0.0,0.0,0.0,0.0,0.0,0.0,0.0,0.0,0.0,0.0,0.0,0.0,0.0,0.0,0.0,0.0,0.0,0.0,0.0,0.0,0.0,0.0,0.0,0.0,0.0,0.0,0.0,0.0,0.0,0.0,0.0,0.0,0.0,0.0,0.0,0.0,0.0,0.0,0.0,0.0,0.0,0.0,0.0,0.0,0.0,0.0,0.0,0.0,0.0,0.0,0.0,0.0,0.0,0.0,0.0,0.0,0.0,0.0,0.0,0.0,0.0,0.0,0.0,0.0,0.0,0.0,0.0,0.0,0.0,0.0,0.0,0.0,0.0,0.0,0.0,0.0,0.0,0.0,0.0,0.0,0.0,0.0,0.0,0.0,0.0,0.0,0.0,0.0,0.0,0.0,0.0,0.0,0.0,0.0,0.0,0.0,0.0,0.0,0.0,0.0,0.0,0.0,0.0,0.0,0.0,0.0,0.0,0.0,0.0,0.0,0.0,0.0,0.0,0.0,0.0,0.0,0.0,0.0,0.0,0.0,0.0,0.0,0.0,0.0,0.0,0.0,0.0,0.0,0.0,0.0,0.0,0.0,0.0,0.0,0.0,0.0,0.0,0.0,0.0,0.0,0.0,0.0,0.0,0.0,0.0,0.0,0.0,0.0,0.0,0.0,0.0,0.0,0.0,0.0,0.0,0.0,0.0,0.0,0.0,0.0,0.0,0.0,0.0,0.0,0.0,0.0,0.0,0.0,0.0,0.0,0.0,0.0,0.0,0.0,0.0,0.0,0.0,0.0,0.0,0.0,0.0,0.0,0.0,0.0,0.0,0.0,0.0,0.0,0.0,0.0,0.0,0.0,0.0,0.0,0.0,0.0,0.0,0.0,0.0,0.0,0.0,0.0,0.0,0.0,0.0,0.0,0.0,0.0,0.0,0.0,0.0,0.0,0.0,0.0,0.0,0.0,0.0,0.0,0.0,0.0,0.0,0.0,0.0,0.0,0.0,0.0,0.0,0.0,0.0,0.0,0.0,0.0,0.0,0.0,0.0,0.0,0.0,0.0,0.0,0.0,0.0,0.0,0.0,0.0,0.0,0.0,0.0,0.0,0.0,0.0,0.0,0.0,0.0,0.0,0.0,0.0,0.0,0.0,0.0,0.0,0.0,0.0,0.0,0.0,0.0,0.0,0.0,0.0,0.0,0.0,0.0,0.0,0.0,0.0,0.0,0.0,0.0,0.0,0.0,0.0,0.0,0.0,0.0,0.0,0.0,0.0,0.0,0.0,0.0,0.0,0.0,0.0,0.0,0.0,0.0,0.0,0.0,0.0,0.0,0.0,0.0,0.0,0.0,0.0,0.0,0.0,0.0,0.0,0.0,0.0,0.0,0.0,0.0,0.0,0.0,0.0,0.0,0.0,0.0,0.0,0.0,0.0,0.0,0.0,0.0,0.0,0.0,0.0,0.0,0.0,0.0,0.0,0.0,0.0,0.0,0.0,0.0,0.0,0.0,0.0,0.0,0.0,0.0,0.0,0.0,0.0,0.0,0.0,0.0,0.0,0.0,0.0,0.0,0.0,0.0,0.0,0.0,0.0,0.0,0.0,0.0,0.0,0.0,0.0,0.0,0.0,0.0,0.0,0.0,0.0,0.0,0.0,0.0,0.0,0.0,0.0,0.0,0.0,0.0,0.0,0.0,0.0,0.0,0.0,0.0,0.0,0.0,0.0,0.0,0.0,0.0,0.0,0.0,0.0,0.0,0.0,0.0,0.0,0.0,0.0,0.0,0.0,0.0,0.0,0.0,0.0,0.0,0.0,0.0,0.0,0.0,0.0,0.0,0.0,0.0,0.0,0.0,0.0,0.0,0.0,0.0,0.0,0.0,0.0,0.0,0.0,0.0,0.0,0.0,0.0,0.0,0.0,0.0,0.0,0.0,0.0,0.0,0.0,0.0,0.0,0.0,0.0,0.0,0.0,0.0,0.0,0.0,0.0,0.0,0.0,0.0,0.0,0.0,0.0,0.0,0.0,0.0,0.0,0.0,0.0,0.0,0.0,0.0,0.0,0.0,0.0,0.0,0.0,0.0,0.0,0.0,0.0,0.0,0.0,0.0,0.0,0.0,0.0,0.0,0.0,0.0,0.0,0.0,0.0,0.0,0.0,0.0,0.0,0.0,0.0,0.0,0.0,0.0,0.0,0.0,0.0,0.0,0.0,0.0,0.0,0.0,0.0,0.0,0.0,0.0,0.0,0.0,0.0,0.0,0.0,0.0,0.0,0.0,0.0,0.0,0.0,0.0,0.0,0.0,0.0,0.0,0.0,0.0,0.0,0.0,0.0,0.0,0.0,0.0,0.0,0.0,0.0,0.0,0.0,0.0,0.0,0.0,0.0,0.0,0.0,0.0,0.0,0.0,0.0,0.0,0.0,0.0,0.0,0.0,0.0,0.0,0.0,0.0,0.0,0.0,0.0,0.0,0.0,0.0,0.0,0.0,0.0,0.0,0.0,0.0,0.0,0.0,0.0,0.0,0.0,0.0,0.0,0.0,0.0,0.0,0.0,0.0,0.0,0.0,0.0,0.0,0.0,0.0,0.0,0.0,0.0,0.0,0.0,0.0,0.0,0.0,0.0,0.0,0.0,0.0,0.0,0.0,0.0,0.0,0.0,0.0,0.0,0.0,0.0,0.0,0.0,0.0,0.0,0.0,0.0,0.0,0.0,0.0,0.0,0.0,0.0,0.0,0.1542,0.0,0.0,0.0,0.0,0.0,0.0,0.0,0.0,0.0,0.0,0.0,0.0,0.0,0.0,0.0,0.0,0.0,0.0,0.0,0.0,0.0,0.0,0.0,0.0,0.0,0.0,0.0,0.0,0.0,0.0,0.0,0.0,0.0,0.0,0.0,0.0,0.0,0.0,0.0,0.0,0.0,0.0,0.0,0.0,0.0,0.0,0.0,0.0,0.0,0.0,0.0,0.0,0.0,0.0,0.0,0.0,0.0,0.0,0.0,0.0,0.0,0.0,0.0,0.0,0.0,0.0,0.0,0.0,0.0,0.0,0.0,0.0,0.0,0.0,0.0,0.0,0.0,0.0,0.0,0.0,0.0,0.0,0.0,0.0,0.0,0.0,0.0,0.0,0.0,0.0,0.0,0.0,0.0,0.0,0.0,0.0,0.0,0.0,0.0,0.0,0.0,0.0,0.0,0.0,0.0,0.0,0.0,0.0,0.0,0.0,0.0858,0.1195,0.1294,0.1293,0.1174,0.0,0.0,0.0,0.0,0.0,0.0,0.0,0.0,0.0,0.0,0.0,0.0,0.0,0.0,0.0,0.0,0.0,0.0,0.0,0.0,0.0,0.0,0.0,0.0,0.0,0.0,0.0,0.0,0.0,0.0,0.0,0.0,0.0,0.0,0.0,0.0,0.0,0.0,0.0,0.0,0.0,0.0,0.0,0.0,0.0,0.0,0.0,0.0,0.0,0.0,0.0,0.0,0.0,0.0,0.0,0.0,0.0,0.0,0.0,0.0,0.0,0.0,0.0,0.0,0.0,0.0,0.0,0.0,0.0,0.0,0.0,0.0,0.0,0.0,0.0,0.0,0.0,0.0,0.0,0.0,0.0,0.0,0.0,0.0,0.0,0.0,0.0,0.0,0.0,0.0,0.0,0.0,0.0,0.0,0.0,0.0,0.0,0.0,0.0,0.0,0.0,0.0,0.0,0.0,0.0,0.0,0.0,0.0,0.0,0.0,0.0,0.0,0.141,0.1276,0.0925,0.0,0.0,0.0,0.0,0.0,0.0,0.0,0.0,0.0,0.0,0.0,0.0,0.0,0.0,0.0,0.0,0.0,0.0,0.0,0.0,0.0,0.0,0.0,0.0,0.0,0.0,0.0,0.0,0.0,0.0,0.0,0.0,0.0,0.0,0.0,0.0,0.0,0.0,0.0,0.0,0.0,0.0,0.0,0.0,0.0,0.0,0.0,0.0,0.0,0.0,0.0,0.0,0.0,0.0,0.0,0.0,0.0,0.0,0.0,0.0,0.0,0.0,0.0,0.0,0.0,0.0,0.0,0.0,0.0,0.0,0.0,0.0,0.0,0.0,0.0,0.0,0.0,0.0,0.0,0.0,0.0,0.0,0.0,0.0,0.0,0.0,0.0,0.0,0.0,0.0,0.0,0.0,0.0,0.0,0.0,0.0,0.0,0.0,0.0,0.0,0.0,0.0,0.0,0.0,0.0,0.0,0.0,0.0,0.0,0.0,0.0839,0.1625,0.1429,0.0,0.123,0.0,0.0,0.0,0.0,0.0,0.0,0.0,0.0,0.0,0.0,0.0,0.0,0.0,0.0,0.0,0.0,0.0,0.0,0.0,0.0,0.0,0.0,0.0,0.0,0.0,0.0,0.0,0.0,0.0,0.0,0.0,0.0,0.0,0.0,0.0,0.0,0.0,0.0,0.0,0.0,0.0,0.0,0.0,0.0,0.0,0.0,0.0,0.0,0.0,0.0,0.0,0.0,0.0,0.0,0.0,0.0,0.0,0.0,0.0,0.0,0.0,0.0,0.0,0.0,0.0,0.0,0.0,0.0,0.0,0.0,0.0,0.0,0.0,0.0,0.0,0.0,0.0,0.0,0.0,0.0,0.0,0.0,0.0,0.0,0.0,0.0,0.0,0.0,0.0,0.0,0.0,0.0,0.0,0.0,0.0,0.0,0.0,0.0,0.0,0.0,0.0,0.0,0.0,0.0,0.0,0.0,0.0,0.0,0.0,0.0,0.1258,0.1573,0.1243,0.1111,0.0,0.0,0.0,0.0,0.0,0.0,0.0,0.0,0.0,0.0,0.0,0.0,0.0,0.0,0.0,0.0,0.0,0.0,0.0,0.0,0.0,0.0,0.0,0.0,0.0,0.0,0.0,0.0,0.0,0.0,0.0,0.0,0.0,0.0,0.0,0.0,0.0,0.0,0.0,0.0,0.0,0.0,0.0,0.0,0.0,0.0,0.0,0.0,0.0,0.0,0.0,0.0,0.0,0.0,0.0,0.0,0.0,0.0,0.0,0.0,0.0,0.0,0.0,0.0,0.0,0.0,0.0,0.0,0.0,0.0,0.0,0.0,0.0,0.0,0.0,0.0,0.0,0.0,0.0,0.0,0.0,0.0,0.0,0.0,0.0,0.0,0.0,0.0,0.0,0.0,0.0,0.0,0.0,0.0,0.0,0.0,0.0,0.0,0.0,0.0,0.0,0.0,0.0,0.0,0.0,0.0,0.0,0.0,0.0,0.0,0.1607,0.1557,0.149,0.1159,0.101,0.1094,0.0,0.0,0.0,0.0,0.0,0.0,0.0,0.0,0.0,0.0,0.0,0.0,0.0,0.0,0.0,0.0,0.0,0.0,0.0,0.0,0.0,0.0,0.0,0.0,0.0,0.0,0.0,0.0,0.0,0.0,0.0,0.0,0.0,0.0,0.0,0.0,0.0,0.0,0.0,0.0,0.0,0.0,0.0,0.0,0.0,0.0,0.0,0.0,0.0,0.0,0.0,0.0,0.0,0.0,0.0,0.0,0.0,0.0,0.0,0.0,0.0,0.0,0.0,0.0,0.0,0.0,0.0,0.0,0.0,0.0,0.0,0.0,0.0,0.0,0.0,0.0,0.0,0.0,0.0,0.0,0.0,0.0,0.0,0.0,0.0,0.0,0.0,0.0,0.0,0.0,0.0,0.0,0.0,0.0,0.0,0.0,0.0,0.0,0.0,0.0,0.0,0.0,0.0,0.0,0.0,0.0,0.0,0.0,0.159,0.1557,0.149,0.1507,0.1224,0.0994,0.0,0.0,0.0,0.0,0.0,0.0,0.0,0.0,0.0,0.0,0.0,0.0,0.0,0.0,0.0,0.0,0.0,0.0,0.0,0.0,0.0,0.0,0.0,0.0,0.0,0.0,0.0,0.0,0.0,0.0,0.0,0.0,0.0,0.0,0.0,0.0,0.0,0.0,0.0,0.0,0.0,0.0,0.0,0.0,0.0,0.0,0.0,0.0,0.0,0.0,0.0,0.0,0.0,0.0,0.0,0.0,0.0,0.0,0.0,0.0,0.0,0.0,0.0,0.0,0.0,0.0,0.0,0.0,0.0,0.0,0.0,0.0,0.0,0.0,0.0,0.0,0.0,0.0,0.0,0.0,0.0,0.0,0.0,0.0,0.0,0.0,0.0,0.0,0.0,0.0,0.0,0.0,0.0,0.0,0.0,0.0,0.0,0.0,0.0,0.0,0.0,0.0,0.0,0.0,0.0,0.0,0.0,0.0,0.0,0.1911,0.1726,0.164,0.1623,0.1378,0.1179,0.0,0.0,0.0,0.0,0.0,0.0,0.0,0.0,0.0,0.0,0.0,0.0,0.0,0.0,0.0,0.0,0.0,0.0,0.0,0.0,0.0,0.0,0.0,0.0,0.0,0.0,0.0,0.0,0.0,0.0,0.0,0.0,0.0,0.0,0.0,0.0,0.0,0.0,0.0,0.0,0.0,0.0,0.0,0.0,0.0,0.0,0.0,0.0,0.0,0.0,0.0,0.0,0.0,0.0,0.0,0.0,0.0,0.0,0.0,0.0,0.0,0.0,0.0,0.0,0.0,0.0,0.0,0.0,0.0,0.0,0.0,0.0,0.0,0.0,0.0,0.0,0.0,0.0,0.0,0.0,0.0,0.0,0.0,0.0,0.0,0.0,0.0,0.0,0.0,0.0,0.0,0.0,0.0,0.0,0.0,0.0,0.0,0.0,0.0,0.0,0.0,0.0,0.0,0.0,0.0,0.0,0.0,0.0,0.0,0.2064,0.0,0.1594,0.1623,0.1362,0.123,0.0,0.0,0.0,0.0,0.0,0.0,0.0,0.0,0.0,0.0,0.0,0.0,0.0,0.0,0.0,0.0,0.0,0.0,0.0,0.0,0.0,0.0,0.0,0.0,0.0,0.0,0.0,0.0,0.0,0.0,0.0,0.0,0.0,0.0,0.0,0.0,0.0,0.0,0.0,0.0,0.0,0.0,0.0,0.0,0.0,0.0,0.0,0.0,0.0,0.0,0.0,0.0,0.0,0.0,0.0,0.0,0.0,0.0,0.0,0.0,0.0,0.0,0.0,0.0,0.0,0.0,0.0,0.0,0.0,0.0,0.0,0.0,0.0,0.0,0.0,0.0,0.0,0.0,0.0,0.0,0.0,0.0,0.0,0.0,0.0,0.0,0.0,0.0,0.0,0.0,0.0,0.0,0.0,0.0,0.0,0.0,0.0,0.0,0.0,0.0,0.0,0.0,0.0,0.0,0.0,0.0,0.0,0.0,0.1931,0.1961,0.1546,0.1395,0.149,0.1243,0.1128,0.0,0.0,0.0,0.0,0.0,0.0,0.0,0.0,0.0,0.0,0.0,0.0,0.0,0.0,0.0,0.0,0.0,0.0,0.0,0.0,0.0,0.0,0.0,0.0,0.0,0.0,0.0,0.0,0.0,0.0,0.0,0.0,0.0,0.0,0.0,0.0,0.0,0.0,0.0,0.0,0.0,0.0,0.0,0.0,0.0,0.0,0.0,0.0,0.0,0.0,0.0,0.0,0.0,0.0,0.0,0.0,0.0,0.0,0.0,0.0,0.0,0.0,0.0,0.0,0.0,0.0,0.0,0.0,0.0,0.0,0.0,0.0,0.0,0.0,0.0,0.0,0.0,0.0,0.0,0.0,0.0,0.0,0.0,0.0,0.0,0.0,0.0,0.0,0.0,0.0,0.0,0.0,0.0,0.0,0.0,0.0,0.0,0.0,0.0,0.0,0.0,0.0,0.0,0.0,0.0,0.0,0.0,0.0,0.0,0.1778,0.1611,0.1542,0.1623,0.1159,0.1027,0.0,0.0,0.0,0.0,0.0,0.0,0.0,0.0,0.0,0.0,0.0,0.0,0.0,0.0,0.0,0.0,0.0,0.0,0.0,0.0,0.0,0.0,0.0,0.0,0.0,0.0,0.0,0.0,0.0,0.0,0.0,0.0,0.0,0.0,0.0,0.0,0.0,0.0,0.0,0.0,0.0,0.0,0.0,0.0,0.0,0.0,0.0,0.0,0.0,0.0,0.0,0.0,0.0,0.0,0.0,0.0,0.0,0.0,0.0,0.0,0.0,0.0,0.0,0.0,0.0,0.0,0.0,0.0,0.0,0.0,0.0,0.0,0.0,0.0,0.0,0.0,0.0,0.0,0.0,0.0,0.0,0.0,0.0,0.0,0.0,0.0,0.0,0.0,0.0,0.0,0.0,0.0,0.0,0.0,0.0,0.0,0.0,0.0,0.0,0.0,0.0,0.0,0.0,0.0,0.0,0.0,0.0,0.0,0.0,0.1525,0.1562,0.1582,0.1612,0.1118,0.1009,0.1353,0.0,0.0,0.0,0.0,0.0,0.0,0.0,0.0,0.0,0.0,0.0,0.0,0.0,0.0,0.0,0.0,0.0,0.0,0.0,0.0,0.0,0.0,0.0,0.0,0.0,0.0,0.0,0.0,0.0,0.0,0.0,0.0,0.0,0.0,0.0,0.0,0.0,0.0,0.0,0.0,0.0,0.0,0.0,0.0,0.0,0.0,0.0,0.0,0.0,0.0,0.0,0.0,0.0,0.0,0.0,0.0,0.0,0.0,0.0,0.0,0.0,0.0,0.0,0.0,0.0,0.0,0.0,0.0,0.0,0.0,0.0,0.0,0.0,0.0,0.0,0.0,0.0,0.0,0.0,0.0,0.0,0.0,0.0,0.0,0.0,0.0,0.0,0.0,0.0,0.0,0.0,0.0,0.0,0.0,0.0,0.0,0.0,0.0,0.0,0.0,0.0,0.0,0.0,0.0,0.0,0.0,0.0,0.0,0.1194,0.1377,0.1446,0.1455,0.1095,0.1061,0.0,0.0,0.0,0.0,0.0,0.0,0.0,0.0,0.0,0.0,0.0,0.0,0.0,0.0,0.0,0.0,0.0,0.0,0.0,0.0,0.0,0.0,0.0,0.0,0.0,0.0,0.0,0.0,0.0,0.0,0.0,0.0,0.0,0.0,0.0,0.0,0.0,0.0,0.0,0.0,0.0,0.0,0.0,0.0,0.0,0.0,0.0,0.0,0.0,0.0,0.0,0.0,0.0,0.0,0.0,0.0,0.0,0.0,0.0,0.0,0.0,0.0,0.0,0.0,0.0,0.0,0.0,0.0,0.0,0.0,0.0,0.0,0.0,0.0,0.0,0.0,0.0,0.0,0.0,0.0,0.0,0.0,0.0,0.0,0.0,0.0,0.0,0.0,0.0,0.0,0.0,0.0,0.0,0.0,0.0,0.0,0.0,0.0,0.0,0.0,0.0,0.0,0.0,0.0,0.0,0.0,0.0,0.0,0.0,0.0146,0.0616,0.0944,0.104,0.0952,0.0858,0.0,0.0,0.0,0.0,0.0,0.0,0.0,0.0,0.0,0.0,0.0,0.0,0.0,0.0,0.0,0.0,0.0,0.0,0.0,0.0,0.0,0.0,0.0,0.0,0.0,0.0,0.0,0.0,0.0,0.0,0.0,0.0,0.0,0.0,0.0,0.0,0.0,0.0,0.0,0.0,0.0,0.0,0.0,0.0,0.0,0.0,0.0,0.0,0.0,0.0,0.0,0.0,0.0,0.0,0.0,0.0,0.0,0.0,0.0,0.0,0.0,0.0,0.0,0.0,0.0,0.0,0.0,0.0,0.0,0.0,0.0,0.0,0.0,0.0,0.0,0.0,0.0,0.0,0.0,0.0,0.0,0.0,0.0,0.0,0.0,0.0,0.0,0.0,0.0,0.0,0.0,0.0,0.0,0.0,0.0,0.0,0.0,0.0,0.0,0.0,0.0,0.0,0.0,0.0,0.0,0.0,0.0,0.0,-0.0235,-0.0131,-0.0442,-0.0334,0.0161,0.0765,0.0885,0.0,0.0,0.0,0.0,0.0,0.0,0.0,0.0,0.0,0.0,0.0,0.0,0.0,0.0,0.0,0.0,0.0,0.0,0.0,0.0,0.0,0.0,0.0,0.0,0.0,0.0,0.0,0.0,0.0,0.0,0.0,0.0,0.0,0.0,0.0,0.0,0.0,0.0,0.0,0.0,0.0,0.0,0.0,0.0,0.0,0.0,0.0,0.0,0.0,0.0,0.0,0.0,0.0,0.0,0.0,0.0,0.0,0.0,0.0,0.0,0.0,0.0,0.0,0.0,0.0,0.0,0.0,0.0,0.0,0.0,0.0,0.0,0.0,0.0,0.0,0.0,0.0,0.0,0.0,0.0,0.0,0.0,0.0,0.0,0.0,0.0,0.0,0.0,0.0,0.0,0.0,0.0,0.0,0.0,0.0,0.0,0.0,0.0,0.0,0.0,0.0,0.0,0.0,0.0,0.0,0.0,0.0,0.0,-0.103,-0.0168,-0.146,-0.1787,-0.0865,0.0466,0.0958,0.0,0.0,0.0,0.0,0.0,0.0,0.0,0.0,0.0,0.0,0.0,0.0,0.0,0.0,0.0,0.0,0.0,0.0,0.0,0.0,0.0,0.0,0.0,0.0,0.0,0.0,0.0,0.0,0.0,0.0,0.0,0.0,0.0,0.0,0.0,0.0,0.0,0.0,0.0,0.0,0.0,0.0,0.0,0.0,0.0,0.0,0.0,0.0,0.0,0.0,0.0,0.0,0.0,0.0,0.0,0.0,0.0,0.0,0.0,0.0,0.0,0.0,0.0,0.0,0.0,0.0,0.0,0.0,0.0,0.0,0.0,0.0,0.0,0.0,0.0,0.0,0.0,0.0,0.0,0.0,0.0,0.0,0.0,0.0,0.0,0.0,0.0,0.0,0.0,0.0,0.0,0.0,0.0,0.0,0.0,0.0,0.0,0.0,0.0,0.0,0.0,0.0,0.0,0.0,0.0,0.0,0.0,0.0,-0.0918,-0.1594,-0.1088,-0.1029,-0.1404,-0.0116,0.0601,0.0,0.0,0.0,0.0,0.0,0.0,0.0,0.0,0.0,0.0,0.0,0.0,0.0,0.0,0.0,0.0,0.0,0.0,0.0,0.0,0.0,0.0,0.0,0.0,0.0,0.0,0.0,0.0,0.0,0.0,0.0,0.0,0.0,0.0,0.0,0.0,0.0,0.0,0.0,0.0,0.0,0.0,0.0,0.0,0.0,0.0,0.0,0.0,0.6292,0.0,0.0,0.0,0.0,0.0,0.0,0.0,0.0,0.0,0.0,0.0,0.0,0.0,0.0,0.0,0.0,0.0,0.0,0.0,0.0,0.0,0.0,0.0,0.0,0.0,0.0,0.0,0.0,0.0,0.0,0.0,0.0,0.0,0.0,0.0,0.0,0.0,0.0,0.0,0.0,0.0,0.0,0.0,0.0,0.0,0.0,0.0,0.0,0.0,0.0,0.0,0.0,0.0,0.0,0.0,0.0,0.0,0.0,0.0,-0.0647,-0.1347,-0.1039,-0.0944,-0.1171,-0.0318,0.0243,0.0,0.0,0.0,0.0,0.0,0.0,0.0,0.0,0.0,0.0,0.0,0.0,0.0,0.0,0.0,0.0,0.0,0.0,0.0,0.0,0.0,0.0,0.0,0.0,0.0,0.0,0.0,0.0,0.0,0.0,0.0,0.0,0.0,0.0,0.0,0.0,0.0,0.0,0.0,0.0,0.0,0.0,0.0,0.0,0.0,0.0,0.0,0.0,0.0,0.0,0.0,0.0,0.0,0.0,0.0,0.0,0.0,0.0,0.0,0.0,0.0,0.0,0.0,0.0,0.0,0.0,0.0,0.0,0.0,0.0,0.0,0.0,0.0,0.0,0.0,0.0,0.0,0.0,0.0,0.0,0.0,0.0,0.0,0.0,0.0,0.0,0.0,0.0,0.0,0.0,0.0,0.0,0.0,0.0,0.0,0.0,0.0,0.0,0.0,0.0,0.0,0.0,0.0,0.0,0.0,0.0,0.0,-0.0263,-0.0445,-0.0705,-0.0988,-0.1064,-0.0801,-0.0285,0.0028,0.008,0.0,0.0,0.0,0.0,0.0,0.0,0.0,0.0,0.0,0.0,0.0,0.0,0.0,0.0,0.0,0.0,0.0,0.0,0.0,0.0,0.0,0.0,0.0,0.0,0.0,0.0,0.0,0.0,0.0,0.0,0.0,0.0,0.0,0.0,0.0,0.0,0.0,0.0,0.6361,0.6886,0.0,0.0,0.0,0.0,0.0,0.0,0.0,0.0,0.7492,0.0,0.0,0.0,0.0,0.0,0.0,0.0,0.0,0.0,0.0,0.0,0.0,0.0,0.0,0.0,0.0,0.0,0.0,0.0,0.0,0.0,0.0,0.0,0.0,0.0,0.0,0.0,0.0,0.0,0.0,0.0,0.0,0.0,0.0,0.0,0.0,0.0,0.0,0.0,0.0,0.0,0.0,0.0,0.0,0.0,0.0,0.0,0.0,0.0,0.0,0.0,0.0,0.0,0.0,0.0,0.0,-0.028,-0.0467,-0.0743,-0.1166,-0.0764,-0.0626,-0.0764,0.0087,0.0496,0.0346,0.0,0.0,0.0,0.0,0.0,0.0,0.0,0.0,0.0,0.0,0.0,0.0,0.0,0.0,0.0,0.0,0.0,0.0,0.0,0.0,0.0,0.0,0.0,0.0,0.0,0.0,0.0,0.0,0.0,0.0,0.0,0.0,0.0,0.0,0.0,0.0,0.0,0.0,0.0,0.7558,0.7753,0.0,0.0,0.0,0.0,0.0,0.0,0.0,0.0,0.7623,0.0,0.0,0.0,0.0,0.0,0.0,0.0,0.0,0.0,0.0,0.0,0.0,0.0,0.0,0.0,0.0,0.0,0.0,0.0,0.0,0.0,0.0,0.0,0.0,0.0,0.0,0.0,0.0,0.0,0.0,0.0,0.0,0.0,0.0,0.0,0.0,0.0,0.0,0.0,0.0,0.0,0.0,0.0,0.0,0.0,0.0,0.0,0.0,0.0,0.0,0.0,0.0,0.0,0.0,0.0,-0.057,-0.0605,-0.0725,-0.0831,-0.0546,-0.0405,-0.0381,0.0336,0.0698,0.0,0.0,0.0,0.0,0.0,0.0,0.0,0.0,0.0,0.0,0.0,0.0,0.0,0.0,0.0,0.0,0.0,0.0,0.0,0.0,0.0,0.0,0.0,0.0,0.0,0.0,0.0,0.0,0.0,0.0,0.0,0.0,0.0,0.0,0.0,0.0,0.0,0.0,0.0,0.0,0.8213,0.8267,0.7888,0.0,0.0,0.0,0.0,0.0,0.0,0.774,0.7673,0.0,0.0,0.0,0.0,0.0,0.0,0.0,0.0,0.0,0.0,0.0,0.0,0.0,0.0,0.0,0.0,0.0,0.0,0.0,0.0,0.0,0.0,0.0,0.0,0.0,0.0,0.0,0.0,0.0,0.0,0.0,0.0,0.0,0.0,0.0,0.0,0.0,0.0,0.0,0.0,0.0,0.0,0.0,0.0,0.0,0.0,0.0,0.0,0.0,0.0,0.0,0.0,0.0,0.0,0.0,-0.0794,-0.0824,-0.0733,-0.0593,-0.0478,-0.031,-0.0143,0.0434,0.0808,0.0,0.0,0.0,0.0,0.0,0.0,0.0,0.0,0.0,0.0,0.0,0.0,0.0,0.0,0.0,0.0,0.0,0.0,0.0,0.0,0.0,0.0,0.0,0.0,0.0,0.0,0.0,0.0,0.0,0.0,0.0,0.0,0.0,0.0,0.0,0.0,0.0,0.0,0.0,0.0,0.0,0.855,0.8194,0.8285,0.0,0.0,0.0,0.0,0.8275,0.7976,0.0,0.0,0.0,0.0,0.0,0.0,0.0,0.0,0.0,0.0,0.0,0.0,0.0,0.0,0.0,0.0,0.0,0.0,0.0,0.0,0.0,0.0,0.0,0.0,0.0,0.0,0.0,0.0,0.0,0.0,0.0,0.0,0.0,0.0,0.0,0.0,0.0,0.0,0.0,0.0,0.0,0.0,0.0,0.0,0.0,0.0,0.0,0.0,0.0,0.0,0.0,0.0,0.0,0.0,0.0,0.0,-0.0825,-0.107,-0.1237,-0.1166,-0.0684,-0.049,-0.067,0.0435,0.0951,0.0,0.0,0.0,0.0,0.0,0.0,0.0,0.0,0.0,0.0,0.0,0.0,0.0,0.0,0.0,0.0,0.0,0.0,0.0,0.0,0.0,0.0,0.0,0.0,0.0,0.0,0.0,0.0,0.0,0.0,0.0,0.0,0.0,0.0,0.0,0.0,0.0,0.0,0.0,0.0,0.0,0.8439,0.7701,0.8395,0.8859,0.0,0.0,0.8281,0.8141,0.7845,0.0,0.0,0.0,0.0,0.0,0.0,0.0,0.0,0.0,0.0,0.0,0.0,0.0,0.0,0.0,0.0,0.0,0.0,0.0,0.0,0.0,0.0,0.0,0.0,0.0,0.0,0.0,0.0,0.0,0.0,0.0,0.0,0.0,0.0,0.0,0.0,0.0,0.0,0.0,0.0,0.0,0.0,0.0,0.0,0.0,0.0,0.0,0.0,0.0,0.0,0.0,0.0,0.0,0.0,0.0,-0.1798,-0.1767,-0.2097,-0.2203,-0.205,-0.1579,-0.117,-0.0803,0.0169,0.0801,0.0,0.0,0.0,0.0,0.0,0.0,0.0,0.0,0.0,0.0,0.0,0.0,0.0,0.0,0.0,0.0,0.0,0.0,0.0,0.0,0.0,0.0,0.0,0.0,0.0,0.0,0.0,0.0,0.0,0.0,0.0,0.0,0.0,0.0,0.0,0.0,0.0,0.0,0.0,0.0,0.0,0.0,0.7761,0.8251,0.0,0.0,0.0,0.8037,0.7948,0.0,0.0,0.0,0.0,0.0,0.0,0.0,0.0,0.0,0.0,0.0,0.0,0.0,0.0,0.0,0.0,0.0,0.0,0.0,0.0,0.0,0.0,0.0,0.0,0.0,0.0,0.0,0.0,0.0,0.0,0.0,0.0,0.0,0.0,0.0,0.0,0.0,0.0,0.0,0.0,0.0,0.0,0.0,0.0,0.0,0.0,0.0,0.0,0.0,0.0,0.0,0.0,0.0,0.0,0.0,0.0,0.0,-0.2505,-0.2934,-0.3085,-0.2919,-0.2472,-0.1954,-0.1354,-0.05,0.0,0.0,0.0,0.0,0.0,0.0,0.0,0.0,0.0,0.0,0.0,0.0,0.0,0.0,0.0,0.0,0.0,0.0,0.0,0.0,0.0,0.0,0.0,0.0,0.0,0.0,0.0,0.4041,0.0,0.0,0.0,0.0,0.0,0.0,0.0,0.0,0.0,0.0,0.0,0.0,0.0,0.0,0.7738,0.7715,0.7948,0.7942,0.0,0.0,0.7799,0.7558,0.7264,0.7081,0.0,0.0,0.0,0.0,0.0,0.0,0.0,0.0,0.0,0.0,0.0,0.0,0.0,0.0,0.0,0.0,0.0,0.0,0.0,0.0,0.0,0.0,0.0,0.0,0.0,0.0,0.0,0.0,0.0,0.0,0.0,0.0,0.0,0.0,0.0,0.0,0.0,0.0,0.0,0.0,0.0,0.0,0.0,0.0,0.0,0.0,0.0,0.0,0.0,0.0,0.0,0.0,0.0,0.0,0.0,-0.2536,-0.3195,-0.3647,-0.3773,-0.2995,-0.2656,-0.283,-0.1781,-0.0692,0.0,0.0,0.0,0.0,0.0,0.0,0.0,0.0,0.0,0.0,0.0,0.0,0.0,0.0,0.0,0.0,0.0,0.0,0.0,0.0,0.0,0.0,0.0,0.0,0.0,0.0,0.0,0.0,0.0,0.0,0.0,0.0,0.0,0.0,0.0,0.0,0.0,0.0,0.0,0.0,0.0,0.7312,0.7249,0.7532,0.7516,0.0,0.0,0.7765,0.6811,0.7053,0.7253,0.6963,0.0,0.0,0.0,0.0,0.0,0.0,0.0,0.0,0.0,0.0,0.0,0.0,0.0,0.0,0.0,0.0,0.0,0.0,0.0,0.0,0.0,0.0,0.0,0.0,0.0,0.0,0.0,0.0,0.0,0.0,0.0,0.0,0.0,0.0,0.0,0.0,0.0,0.0,0.0,0.0,0.0,0.0,0.0,0.0,0.0,0.0,0.0,0.0,0.0,0.0,0.0,0.0,0.0,-0.3046,-0.3053,-0.3905,-0.4372,-0.4418,-0.3946,-0.354,-0.332,-0.2679,-0.1818,0.0,0.0,0.0,0.0,0.0,0.0,0.0,0.0,0.0,0.0,0.0,0.0,0.0,0.0,0.0,0.0,0.0,0.0,0.0,0.0,0.0,0.0,0.0,0.0,0.0,0.0,0.0,0.0,0.4206,0.4456,0.5308,0.0,0.0,0.0,0.0,0.0,0.0,0.0,0.0,0.0,0.0,0.7057,0.6656,0.69,0.0,0.0,0.6466,0.6806,0.6408,0.6741,0.712,0.7296,0.7804,0.0,0.0,0.0,0.0,0.0,0.0,0.0,0.0,0.0,0.0,0.0,0.0,0.0,0.0,0.0,0.0,0.0,0.0,0.0,0.0,0.0,0.0,0.0,0.0,0.0,0.0,0.0,0.0,0.0,0.0,0.0,0.0,0.0,0.0,0.0,0.0,0.0,0.0,0.0,0.0,0.0,0.0,0.0,0.0,0.0,0.0,0.0,0.0,0.0,0.0,0.0,0.0,-0.3388,-0.3388,-0.443,-0.4997,-0.496,-0.4625,-0.4289,-0.3923,-0.3547,-0.2874,0.0,0.0,0.0,0.0,0.0,0.0,0.0,0.0,0.0,0.0,0.0,0.0,0.0,0.0,0.0,0.0,0.0,0.0,0.0,0.0,0.0,0.0,0.0,0.0,0.0,0.0,0.0,0.0,0.4533,0.4722,0.5338,0.0,0.0,0.0,0.0,0.0,0.0,0.0,0.0,0.0,0.0,0.674,0.6395,0.6596,0.6497,0.572,0.6221,0.6577,0.6418,0.6764,0.7165,0.7425,0.0,0.0,0.0,0.0,0.0,0.0,0.0,0.0,0.0,0.0,0.0,0.0,0.0,0.0,0.0,0.0,0.0,0.0,0.0,0.0,0.0,0.0,0.0,0.0,0.0,0.0,0.0,0.0,0.0,0.0,-0.2959,0.0,0.0,0.0,0.0,0.0,0.0,0.0,0.0,0.0,0.0,0.0,0.0,0.0,0.0,0.0,0.0,0.0,0.0,0.0,0.0,0.0,0.0,-0.3388,-0.3421,-0.4712,-0.5392,-0.5359,-0.4997,-0.4797,-0.4761,-0.4453,-0.3841,-0.2881,0.0,0.0,0.0,0.0,0.0,0.0,0.0,0.0,0.0,0.0,0.0,0.0,0.0,0.0,0.0,0.0,0.0,0.0,0.0,0.0,0.0,0.0,0.0,0.0,0.0,0.0,0.5086,0.5289,0.5361,0.0,0.0,0.0,0.0,0.0,0.0,0.0,0.0,0.0,0.0,0.6412,0.6263,0.6625,0.6694,0.6611,0.6368,0.7065,0.7456,0.6858,0.7295,0.7584,0.0,0.0,0.0,0.0,0.0,0.0,0.0,0.0,0.0,0.0,0.0,0.0,0.0,0.0,0.0,0.0,0.0,0.0,0.0,0.0,0.0,0.0,0.0,0.0,0.0,0.0,0.0,-0.3042,-0.3431,0.0,0.0,0.0,0.0,0.0,0.0,0.0,0.0,0.0,0.0,0.0,-0.2914,-0.2886,0.0,0.0,0.0,0.0,0.0,0.0,0.0,0.0,0.0,0.0,0.0,0.0,-0.3396,-0.3396,-0.4696,-0.5395,-0.5395,-0.5263,-0.5193,-0.5193,-0.509,-0.4499,-0.3343,0.0,0.0,0.0,0.0,0.0,0.0,0.0,0.0,0.0,0.0,0.0,0.0,0.0,0.0,0.0,0.0,0.0,0.0,0.0,0.0,0.0,0.0,0.0,0.0,0.0,0.4595,0.0,0.0,0.0,0.0,0.0,0.0,0.0,0.0,0.0,0.0,0.0,0.7096,0.6718,0.6789,0.6817,0.6538,0.6567,0.6447,0.0,0.0,0.0,0.0,0.0,0.0,0.0,0.0,0.0,0.0,0.0,0.0,0.0,0.0,0.7567,0.8417,0.8431,0.8301,0.8401,0.0,0.0,0.0,0.0,0.0,0.0,0.0,0.0,0.0,0.0,0.0,0.0,0.0,0.0,-0.4344,0.0,-0.4345,0.0,0.0,0.0,0.0,0.0,0.0,0.0,0.0,-0.3707,-0.3553,-0.3558,-0.3558,-0.3528,0.0,-0.3366,-0.2861,0.0,0.0,0.0,0.0,0.0,0.0,0.0,0.0,-0.3366,-0.336,-0.4686,-0.5395,-0.5395,-0.5395,-0.5395,-0.5395,-0.5395,-0.5,-0.4176,-0.3868,-0.3009,0.0,0.0,0.0,0.0,0.0,0.0,0.0,0.0,0.0,0.0,0.0,0.0,0.0,0.0,0.0,0.0,0.0,0.0,0.0,0.0,0.0,0.0,0.0,0.4372,0.0,0.0,0.0,0.0,0.0,0.0,0.0,0.0,0.0,0.6025,0.6587,0.6854,0.6525,0.6697,0.6822,0.674,0.0,0.0,0.0,0.0,0.0,0.0,0.0,0.8271,0.8458,0.8565,0.8477,0.8002,0.7561,0.7251,0.7223,0.0,0.0,0.8063,0.7996,0.7903,0.8007,0.8031,0.8031,0.8025,0.8025,0.8031,0.0,0.0,0.0,0.0,0.0,0.0,0.0,0.0,-0.6605,-0.6605,0.0,-0.6148,0.0,0.0,0.0,0.0,0.0,-0.4566,0.0,0.0,-0.5096,-0.5009,-0.4333,-0.4296,-0.4267,-0.4223,-0.355,-0.3277,-0.3358,-0.3429,0.0,0.0,0.0,0.0,0.0,0.0,-0.3324,-0.3372,-0.4693,-0.5395,-0.5395,-0.5395,-0.5395,-0.5395,-0.5395,-0.5392,-0.5348,-0.476,-0.4144,-0.3507,-0.1922,0.0,0.0,0.0,0.0,0.0,0.0,0.0,0.0,0.0,0.0,0.0,0.0,0.0,0.0,0.0,0.0,0.0,0.0,0.0,0.0,0.4027,0.0,0.0,0.0,0.0,0.0,0.0,0.0,0.0,0.0,0.0,0.5808,0.6299,0.6544,0.6349,0.0,0.0,0.0,0.0,0.7206,0.7982,0.824,0.8453,0.8798,0.8212,0.7647,0.7533,0.0,0.0,0.7334,0.7607,0.7723,0.7811,0.7461,0.7339,0.732,0.7366,0.7492,0.7797,0.7841,0.7876,0.7841,0.7817,0.7811,-0.776,0.0,0.0,0.0,0.0,-0.6012,-0.6096,-0.6272,-0.616,-0.6381,-0.6763,-0.6554,0.0,0.0,0.0,0.0,0.0,0.0,-0.5826,-0.6161,-0.6108,-0.6057,-0.6124,-0.5737,-0.5545,-0.5542,-0.5009,-0.4753,-0.4813,-0.481,-0.4076,-0.2572,0.0,0.0,0.0,0.0,-0.3687,-0.3976,-0.4912,-0.5395,-0.5395,-0.5395,-0.5395,-0.5395,-0.5395,-0.5395,-0.5395,-0.5212,-0.468,-0.374,-0.3436,0.0,0.0,0.0,0.0,0.0,0.0,0.0,0.0,0.0,0.0,0.0,0.0,0.0,0.0,0.0,0.0,0.0,0.0,0.0,0.4426,0.3423,0.3162,0.0,0.0,0.0,0.0,0.0,0.0,0.0,0.0,0.0,0.4892,0.6024,0.6782,0.0,0.0,0.7282,0.7858,0.7437,0.7082,0.7262,0.7373,0.0,0.7041,0.7308,0.7478,0.7255,0.6774,0.6473,0.6532,0.6316,0.6113,0.6141,0.6064,0.5971,0.6014,0.6579,0.7029,0.718,0.7189,0.7194,0.7189,0.7189,0.7185,-0.8817,-0.809,-0.7252,-0.6836,-0.6692,-0.6784,-0.6967,-0.7217,-0.7125,-0.7295,-0.7608,-0.7218,-0.7047,-0.7094,-0.6724,0.0,0.0,0.0,-0.6607,-0.7203,-0.6721,-0.6686,-0.6887,-0.6568,-0.64,-0.6404,-0.6112,-0.598,-0.6013,-0.5817,-0.5223,-0.4115,0.0,0.0,-0.2799,-0.3515,-0.3994,-0.4232,-0.4986,-0.5395,-0.5395,-0.5395,-0.5395,-0.5395,-0.5395,-0.5395,-0.5395,-0.5395,-0.5078,-0.4454,-0.4095,-0.3257,0.0,0.0,0.0,0.0,0.0,0.0,0.0,0.0,0.0,0.0,0.0,0.197,0.2298,0.0,0.0,0.0,0.3266,0.3546,0.3446,0.2904,0.0,0.0,0.0,0.0,0.0,0.0,0.0,0.4326,0.4013,0.3776,0.3889,0.4862,0.5684,0.5999,0.6231,0.6701,0.7477,0.0,0.6776,0.6887,0.7007,0.6956,0.6616,0.6812,0.6869,0.6471,0.6137,0.5885,0.586,0.5592,0.5425,0.5395,0.5395,0.5395,0.5395,0.5918,0.6309,0.6309,0.6309,0.6309,0.6305,0.6305,0.6305,-0.995,-0.9464,-0.8375,-0.7897,-0.7902,-0.8168,-0.8546,-0.8957,-0.8991,-0.8985,-0.8864,-0.817,-0.7824,-0.7747,-0.6899,0.0,-0.7731,-0.6876,-0.6949,-0.7727,-0.726,-0.7027,-0.7022,-0.699,-0.6957,-0.6961,-0.6924,-0.6892,-0.6883,-0.6521,-0.6306,-0.6247,-0.4976,-0.4001,-0.3352,-0.3951,-0.4316,-0.4362,-0.5071,-0.5448,-0.5458,-0.5428,-0.5395,-0.5395,-0.5395,-0.5395,-0.5395,-0.5395,-0.5395,-0.5352,-0.4293,-0.36,-0.3474,0.0,0.0,0.0,0.0,0.0,0.0,0.0,0.0,0.0,0.0,0.0,0.0,0.0,0.0,0.0,0.2362,0.0,0.1794,0.2354,0.0,0.0,0.0,0.2968,0.2186,0.2427,0.2561,0.2206,0.0,0.0,0.2801,0.3127,0.3622,0.4339,0.4592,0.5161,0.6426,0.634,0.632,0.6743,0.6905,0.694,0.6789,0.6467,0.601,0.5599,0.5395,0.5451,0.5451,0.5422,0.5395,0.5395,0.5395,0.5395,0.5395,0.5425,0.5395,0.5462,0.5428,0.5428,0.5458,0.5491,0.5495,-1.0524,-1.0168,-0.987,-0.9655,-0.9491,-0.9755,-0.9791,-0.9762,-0.9756,-0.9445,-0.8972,-0.9035,-0.892,-0.867,-0.8477,-0.8329,-0.8297,-0.8099,-0.8098,-0.8284,-0.8187,-0.8117,-0.8084,-0.7694,-0.7498,-0.7466,-0.7092,-0.6892,-0.6892,-0.6811,-0.653,-0.6144,-0.5817,-0.5368,-0.483,-0.507,-0.5292,-0.5497,-0.5799,-0.5919,-0.591,-0.5591,-0.5395,-0.5395,-0.5395,-0.5395,-0.5395,-0.5395,-0.5395,-0.5392,-0.5124,-0.4562,-0.3742,-0.2368,0.0,0.0,0.0,0.0,0.0,0.0,0.0,0.0,0.0,0.1494,0.1797,0.0,0.2161,0.0,0.1563,0.1371,0.1676,0.1497,0.0,0.0,0.2236,0.2416,0.2198,0.1852,0.193,0.2647,0.2243,0.1905,0.1906,0.1998,0.2052,0.2141,0.3716,0.51,0.5697,0.5763,0.5872,0.6212,0.6022,0.5801,0.5855,0.5701,0.5577,0.5418,0.5395,0.5395,0.5395,0.5395,0.5395,0.5395,0.5395,0.5395,0.5395,0.5395,0.5395,0.5395,0.5395,0.5395,0.5395,0.5395,0.5395,-1.2157,-1.169,-1.1942,-1.1741,-1.115,-1.0763,-1.0493,-1.0347,-1.0347,-1.0125,-0.9791,-0.9868,-0.9786,-0.9626,-0.9626,-0.9532,-0.9332,-0.9332,-0.9365,-0.9326,-0.9332,-0.9269,-0.9155,-0.8887,-0.857,-0.8279,-0.7977,-0.7739,-0.7619,-0.7619,-0.7456,-0.7162,-0.7162,-0.6875,-0.6279,-0.5732,-0.5562,-0.5771,-0.584,-0.6076,-0.6433,-0.5951,-0.562,-0.5488,-0.5454,-0.5257,-0.4869,-0.4813,-0.4778,-0.4778,-0.4676,-0.4385,-0.39,-0.2554,-0.1608,0.0,0.0,0.0,0.0,0.0,0.0,0.0,0.0,0.0,0.0,0.0,0.169,0.1751,0.1241,0.1129,0.1682,0.1473,0.1344,0.1387,0.1547,0.152,0.1253,0.092,0.0959,0.154,0.1169,0.0886,0.0886,0.0886,0.0857,0.0737,0.2212,0.3529,0.4101,0.4292,0.4502,0.5087,0.4963,0.4957,0.5329,0.5395,0.5395,0.5395,0.5395,0.5395,0.5395,0.5395,0.5395,0.5395,0.5395,0.5395,0.5395,0.5395,0.5395,0.5395,0.5395,0.5395,0.5395,0.5395,0.5395,-1.4013,-1.3446,-1.4009,-1.3793,-1.2935,-1.185,-1.122,-1.0947,-1.0875,-1.0851,-1.0772,-1.0581,-1.0443,-1.0478,-1.0443,-1.0443,-1.0408,-1.0408,-1.0408,-1.0408,-1.0408,-1.0274,-1.0044,-1.0071,-0.9739,-0.9133,-0.9127,-0.8954,-0.8641,-0.8608,-0.8608,-0.8544,-0.8506,-0.8212,-0.7552,-0.6298,-0.5675,-0.5782,-0.58,-0.6174,-0.6892,-0.6305,-0.5844,-0.5543,-0.5413,-0.4989,-0.4246,-0.4077,-0.4014,-0.3997,-0.3778,-0.3786,-0.4014,-0.2642,-0.1961,0.0,-0.123,0.0,0.0,0.0,0.0,0.0,0.0,0.0,0.0,0.13,0.1388,0.1486,0.1113,0.1093,0.1515,0.1554,0.135,0.0857,0.0788,0.0558,0.0068,0.0,0.0,0.0,0.0,0.0,0.0,0.0,0.0,0.0,0.0737,0.1533,0.2206,0.2638,0.3103,0.3749,0.3816,0.4148,0.4924,0.516,0.5233,0.5352,0.5436,0.5433,0.5467,0.5467,0.546,0.546,0.5474,0.5463,0.5453,0.546,0.546,0.5474,0.5477,0.5457,0.5409,0.5395,0.5395,-1.4232,-1.433,-1.4453,-1.4621,-1.4691,-1.4463,-1.334,-1.1692,-1.1371,-1.106,-1.0811,-1.0802,-1.0817,-1.0817,-1.0817,-1.0651,-1.0408,-1.0408,-1.0408,-1.0408,-1.0408,-1.0378,-1.0335,-1.0323,-1.0143,-0.9823,-0.9817,-0.9631,-0.93,-0.93,-0.9102,-0.8678,-0.8646,-0.8398,-0.7906,0.0,0.0,0.0,-0.6822,-0.697,-0.7101,-0.591,-0.5253,-0.5186,-0.4764,0.0,-0.4222,-0.4192,-0.4133,-0.4003,-0.3964,0.0,0.0,0.0,0.0,0.0,0.0,0.0,0.0,0.0,0.0,0.0,-0.0216,0.0367,0.0797,0.1269,0.1369,0.0924,0.0886,0.0746,0.0388,0.0326,0.0294,0.0184,0.0,0.0107,0.0,0.0,0.0,0.0,0.0,0.0,0.0,0.0,0.0,0.0,0.0,0.0303,0.0,0.1746,0.2709,0.2909,0.2947,0.328,0.4115,0.4259,0.458,0.5297,0.5549,0.5589,0.5642,0.5705,0.5711,0.5705,0.5718,0.5711,0.5711,0.5718,0.5698,0.5711,0.5711,0.5647,0.545,0.5395,0.5395,-1.5596,0.0,-1.5945,-1.5857,0.0,-1.581,-1.4988,-1.3474,-1.2795,-1.2211,-1.1781,-1.1638,-1.1686,-1.1817,-1.1458,-1.1222,-1.1042,-1.0827,-1.0869,-1.1042,-1.1049,-1.1081,-1.116,-1.116,-1.0909,-1.0467,-1.0467,-1.0291,-0.9962,-0.9956,-0.9789,-0.9516,-0.9549,-0.9416,-0.9176,-0.8974,-0.8428,-0.7489,-0.7328,-0.7563,-0.8097,-0.7244,-0.6531,-0.6043,-0.5654,0.0,0.0,0.0,0.0,0.0,0.0,0.0,0.0,-0.3726,0.0,-0.3867,-0.3437,-0.3175,-0.3268,-0.2817,-0.2577,-0.2756,-0.2015,-0.1041,0.0129,0.0594,0.0709,0.0377,0.0417,0.0319,0.0,0.0,0.0,0.0,0.0,0.0,0.0,0.0,0.0,0.0,0.0,0.0,0.0,0.0,0.0,0.0,0.0,0.0,0.0,0.0752,0.1477,0.1944,0.2443,0.2834,0.3249,0.3565,0.3707,0.4149,0.4768,0.5116,0.503,0.544,0.58,0.58,0.58,0.58,0.58,0.58,0.5728,0.5587,0.5656,0.5584,0.519,0.5337,0.5614,-1.7066,-1.7114,-1.7385,-1.7049,-1.6368,-1.6719,-1.6323,-1.5389,0.0,0.0,0.0,-1.2791,-1.278,-1.2997,-1.2301,-1.1946,-1.1857,-1.1552,-1.1534,-1.1781,-1.1818,-1.1879,-1.1986,-1.1986,-1.1655,-1.1101,-1.106,-1.0896,-1.0581,-1.0581,-1.0575,-1.0581,-1.0575,-1.0547,-1.0471,-1.0478,-0.9835,-0.8614,-0.7946,-0.8152,-0.9165,-0.8564,-0.7858,-0.7074,-0.6754,-0.6015,-0.4807,-0.4446,-0.4256,-0.4236,-0.3924,-0.388,-0.4156,-0.3912,-0.3944,-0.4279,-0.4219,-0.4359,-0.4704,-0.4444,-0.4341,-0.459,-0.3717,-0.2436,-0.0742,-0.0432,-0.0328,-0.0328,-0.0219,-0.0147,-0.0147,0.0,0.0,0.0,0.0,0.0,0.0,0.0,0.0,0.0,0.0,0.0,0.0,0.0,0.0,0.0,0.0,0.0,0.0,0.0,0.0377,0.0994,0.16,0.2179,0.2466,0.2677,0.287,0.2956,0.3796,0.4387,0.4259,0.4739,0.5255,0.5164,0.5292,0.5265,0.5295,0.5197,0.5216,0.4891,0.5073,0.5183,0.4747,0.504,0.5422,-1.7623,-1.7902,-1.7605,-1.7581,-1.7717,-1.7768,-1.7294,-1.6331,-1.5397,-1.4742,-1.434,-1.404,-1.397,-1.3974,-1.3282,-1.2855,-1.2654,-1.2565,-1.2432,-1.2231,-1.2231,-1.2248,-1.2245,-1.2238,-1.2084,-1.1788,-1.174,-1.1607,-1.1278,-1.1258,-1.1258,-1.1265,-1.1252,-1.1127,-1.0852,-1.072,-1.0569,-1.039,-0.9512,-0.9104,-0.9281,-0.8141,-0.75,-0.7354,-0.6887,-0.6235,-0.54,-0.5303,-0.5023,-0.4502,-0.4413,-0.4553,-0.49,-0.5028,-0.5248,-0.5538,-0.5633,-0.5679,-0.5594,-0.5167,-0.479,-0.4592,-0.4177,-0.3305,-0.1855,-0.1669,-0.1637,-0.1601,-0.1115,-0.0791,-0.0716,-0.0339,0.0,0.0,0.0,0.0,0.0,0.0,0.0,0.0,0.0,0.0,0.0,0.0,0.0,0.0,0.0,0.0,0.0,0.0,0.0,0.0144,0.0289,0.0687,0.1339,0.1521,0.1911,0.2731,0.3001,0.3281,0.3219,0.3494,0.3687,0.355,0.3689,0.3657,0.3621,0.3477,0.3578,0.3536,0.3649,0.3693,0.3966,0.4198,0.4384,-1.8131,-1.8052,-1.7854,-1.7837,-1.7991,-1.7991,-1.7895,-1.7644,-1.7243,-1.6285,-1.5144,-1.4853,-1.4836,-1.49,-1.4241,-1.3694,-1.3206,-1.3012,-1.2751,-1.2492,-1.2447,-1.2515,-1.2589,-1.2583,-1.2429,-1.2154,-1.2104,-1.2037,-1.1875,-1.1904,-1.1904,-1.1904,-1.1904,-1.1797,-1.1647,-1.1582,-1.1582,-1.1582,-1.0533,-1.0045,-1.0273,-0.9687,-0.9134,-0.8621,-0.8261,-0.7567,-0.6452,-0.6243,-0.5877,-0.5329,-0.5221,-0.5278,-0.5483,-0.5627,-0.5778,-0.5892,-0.6067,-0.6122,-0.6095,-0.5826,-0.5551,-0.5158,-0.5016,-0.4537,-0.3678,-0.2725,-0.2121,-0.1934,-0.161,-0.1467,-0.1427,-0.1181,-0.1021,-0.102,-0.1024,-0.1043,-0.1051,-0.1046,-0.0899,-0.0582,-0.0801,-0.0765,-0.0073,-0.0295,-0.0335,0.0,0.0,0.0,0.0,0.0,0.0,0.0,0.0,0.0,0.0558,0.0791,0.1028,0.1348,0.2004,0.2361,0.2422,0.2657,0.3046,0.3124,0.3085,0.3124,0.3085,0.3124,0.3007,0.2813,0.3007,0.3125,0.3012,0.2896,0.3245,-1.8643,-1.8264,-1.8072,-1.8042,-1.8119,-1.816,-1.8365,-1.8708,-1.8716,-1.7838,-1.6499,-1.5944,-1.5818,-1.5862,-1.5259,-1.4589,-1.4059,-1.3736,-1.3471,-1.32,-1.3035,-1.3027,-1.309,-1.2961,-1.2764,-1.2525,-1.2505,-1.2505,-1.2498,-1.2438,-1.2365,-1.2318,-1.2365,-1.2371,-1.2305,-1.2305,-1.2305,-1.2254,-1.1387,-1.1016,-1.1211,-1.1143,-1.0738,-1.0002,-0.977,-0.906,-0.78,-0.7393,-0.6944,-0.6327,-0.6187,-0.6051,-0.5945,-0.6017,-0.6081,-0.6091,-0.6193,-0.63,-0.63,-0.63,-0.6145,-0.5792,-0.5754,-0.5556,-0.5082,-0.3949,-0.3012,-0.2662,-0.2542,-0.2426,-0.2419,-0.2223,-0.2191,-0.2151,-0.2178,-0.2152,-0.2162,-0.2164,-0.195,-0.1441,-0.174,-0.1593,-0.0818,-0.083,-0.0877,-0.0383,-0.0078,0.0,0.0,0.0,0.0,0.0,0.0,0.0,0.0,0.0271,0.0352,0.0039,0.0902,0.137,0.1411,0.1917,0.2305,0.2228,0.2306,0.2228,0.2344,0.2344,0.215,0.1879,0.1994,0.2151,0.1842,0.192,0.234,-1.924,-1.9073,-1.8388,-1.8196,-1.8528,-1.8537,-1.8759,-1.9136,-1.9162,-1.9093,-1.8676,-1.781,-1.7227,-1.6903,-1.63,-1.5805,-1.5458,-1.5387,-1.5212,-1.4892,-1.4311,-1.4063,-1.4055,-1.3475,-1.3153,-1.3106,-1.3132,-1.3105,-1.306,-1.2864,-1.2616,-1.2365,-1.261,-1.261,-1.2345,-1.2311,-1.2305,-1.2305,-1.2198,-1.1983,-1.1626,-1.1298,-1.1074,-1.0956,-1.0602,-1.011,-0.9291,-0.8997,-0.8268,-0.7195,-0.7061,-0.6785,-0.6329,-0.6269,-0.6276,-0.6276,-0.6293,-0.63,-0.6303,-0.63,-0.6303,-0.6261,-0.6225,-0.6025,-0.5595,-0.5401,-0.5124,-0.4654,-0.4185,-0.3834,-0.3865,-0.3371,-0.3066,-0.3063,-0.3038,-0.3006,-0.3032,-0.297,-0.2806,-0.2405,-0.2513,-0.2255,-0.1821,-0.1749,-0.1521,-0.0896,-0.0391,0.0,0.0,0.0,0.0,0.0,0.0,0.0,0.0,0.0,0.0,0.0,0.0,0.0,0.0,0.0,0.0,0.0,0.0,0.0,0.0,0.0,0.0,0.0,0.0,0.051,0.0903,0.1373,0.2032,-2.0294,-2.0017,-1.9398,-1.9037,-1.8964,-1.893,-1.9153,-1.9495,-1.9504,-1.9513,-1.9452,-1.9038,-1.8674,-1.833,-1.8027,-1.7642,-1.7161,-1.7119,-1.6873,-1.6383,-1.5835,-1.5517,-1.5322,-1.4881,-1.4356,-1.3831,-1.3777,-1.3588,-1.3226,-1.3086,-1.2953,-1.2839,-1.2831,-1.2723,-1.2596,-1.2392,-1.2305,-1.2305,-1.2305,-1.2231,-1.204,-1.1892,-1.1669,-1.144,-1.108,-1.047,-0.9674,-0.9226,-0.8618,-0.7783,-0.7407,-0.7107,-0.6837,-0.649,-0.63,-0.6303,-0.6378,-0.6427,-0.6515,-0.6477,-0.6422,-0.6422,-0.6347,-0.6222,-0.6028,-0.6025,-0.5948,-0.5709,-0.5085,-0.4652,-0.4611,-0.4378,-0.4236,-0.4232,-0.4235,-0.4228,-0.4229,-0.4239,-0.4026,-0.3554,-0.3752,-0.3595,-0.2815,-0.2387,-0.2037,-0.153,-0.0942,-0.0589,-0.051,-0.0236,0.0,0.0,0.0,0.0,0.0,0.0,0.0,0.0,0.0,0.0,0.0,0.0,0.0,0.0,0.0,0.0,0.0,0.0,0.0,0.0,0.0,0.0079,0.0314,0.0589,0.102,-2.1006,-2.0713,-2.0123,-1.9778,-1.954,-1.9411,-1.9547,-1.9872,-1.9845,-1.9889,-1.9853,-1.9845,-1.9744,-1.9478,-1.9316,-1.8912,-1.8508,-1.8465,-1.824,-1.7731,-1.7278,-1.6823,-1.6449,-1.607,-1.5415,-1.4685,-1.4663,-1.4475,-1.4043,-1.3762,-1.3688,-1.3585,-1.3217,-1.2991,-1.2891,-1.2572,-1.2418,-1.2418,-1.2351,-1.2305,-1.2305,-1.2305,-1.215,-1.1855,-1.1484,-1.0844,-1.0051,-0.9604,-0.9003,-0.8309,-0.7829,-0.7474,-0.7169,-0.6786,-0.6511,-0.64,-0.645,-0.6579,-0.6688,-0.6559,-0.6515,-0.6501,-0.6378,-0.63,-0.63,-0.63,-0.63,-0.6219,-0.5712,-0.5356,-0.5356,-0.5354,-0.5356,-0.5356,-0.5354,-0.5356,-0.5351,-0.5356,-0.5118,-0.4654,-0.481,-0.4807,-0.3826,-0.3283,-0.2857,-0.2546,-0.1959,-0.1372,-0.1256,-0.0903,0.0,-0.0471,0.0,0.0,0.0,0.0,0.0,0.0,0.0,0.0,0.0,0.0,0.0,0.0,0.0,0.0,0.0,0.0,0.0,0.0,0.0,0.0,0.0,0.0,0.0,-2.1182,-2.1085,-2.0268,-2.0153,-2.0316,-1.9912,-1.9932,-2.0232,-2.0249,-2.0257,-2.024,-2.024,-2.0249,-2.0163,-1.9521,-1.9187,-1.9153,-1.9144,-1.9109,-1.9015,-1.8422,-1.7731,-1.7039,-1.6718,-1.6202,-1.5553,-1.5766,-1.5895,-1.5861,-1.5282,-1.493,-1.465,-1.3919,-1.3413,-1.318,-1.2904,-1.2795,-1.2744,-1.2408,-1.2288,-1.2294,-1.2294,-1.2257,-1.2203,-1.1861,-1.1416,-1.0974,-1.0449,-0.9695,-0.8708,-0.8651,-0.8185,-0.7268,-0.7161,-0.6958,-0.6564,-0.6478,-0.6593,-0.6675,-0.6583,-0.6532,-0.6504,-0.6399,-0.6303,-0.63,-0.63,-0.63,-0.6296,-0.6183,-0.6141,-0.6141,-0.606,-0.6103,-0.6141,-0.618,-0.6183,-0.618,-0.6103,-0.599,-0.5637,-0.5518,-0.5359,-0.4927,-0.438,-0.4027,-0.3793,-0.3361,-0.2735,-0.2234,-0.2079,-0.1803,-0.1528,-0.1372,0.0,0.0,0.0,0.0,0.0,0.0,0.0,0.0,0.0,0.0,0.0,0.0,0.0,0.0,0.0,0.0,0.0,0.0,0.0,0.0,0.0,0.0,-2.2399,-2.2385,-2.2076,-2.167,-2.1247,-2.1029,-2.0759,-2.0292,-2.0292,-2.0292,-2.0292,-2.0292,-2.0292,-2.0275,-2.0018,-1.9889,-1.9889,-1.9889,-1.9934,-1.9855,-1.9377,-1.9004,-1.8787,-1.8405,-1.7623,-1.67,-1.668,-1.6275,-1.5466,-1.5168,-1.4879,-1.4584,-1.4134,-1.3781,-1.3413,-1.2993,-1.2878,-1.2973,-1.2332,-1.2066,-1.2344,-1.2005,-1.1992,-1.2338,-1.1709,-1.1302,-1.1339,-1.0654,-1.014,-0.9934,-0.9577,-0.9173,-0.8747,-0.7983,-0.7248,-0.6699,-0.6709,-0.6831,-0.6896,-0.6844,-0.6719,-0.662,-0.6481,-0.6395,-0.632,-0.63,-0.63,-0.63,-0.63,-0.63,-0.63,-0.63,-0.63,-0.63,-0.63,-0.63,-0.63,-0.63,-0.6222,-0.6106,-0.6028,-0.587,-0.5479,-0.5204,-0.4968,-0.4654,-0.4142,-0.3558,-0.3054,-0.2663,-0.231,-0.192,-0.1763,-0.1646,0.0,0.0,0.0,0.0,0.0,0.0,0.0,0.0,0.0,0.0,0.0,0.0,0.0,0.0,0.0,0.0,0.0,0.0,0.0,0.0,0.0,-2.3167,-2.3281,-2.3014,-2.2542,-2.1935,-2.1579,-2.1109,-2.0518,-2.0374,-2.036,-2.0463,-2.048,-2.048,-2.048,-2.048,-2.0394,-2.03,-2.0283,-2.0292,-2.0266,-2.0035,-1.9781,-1.9544,-1.9399,-1.8734,-1.773,-1.7461,-1.6853,-1.588,-1.5452,-1.526,-1.513,-1.4595,-1.4128,-1.3861,-1.3333,-1.3153,-1.3141,-1.2576,-1.2312,-1.2455,-1.2223,-1.2087,-1.2159,-1.1674,-1.1417,-1.1609,-1.0875,-1.0471,-1.0449,-1.01,-0.9857,-0.9613,-0.8482,-0.7602,-0.7199,-0.6953,-0.6947,-0.7055,-0.6967,-0.6881,-0.678,-0.6637,-0.6498,-0.641,-0.6399,-0.6371,-0.6364,-0.632,-0.631,-0.6347,-0.6327,-0.63,-0.63,-0.63,-0.63,-0.63,-0.63,-0.63,-0.6261,-0.6261,-0.6103,-0.5909,-0.5831,-0.5595,-0.5279,-0.481,-0.4382,-0.3722,-0.329,-0.2857,-0.2507,-0.2469,-0.2508,-0.2391,-0.204,-0.1452,-0.1256,-0.102,-0.0628,-0.0392,-0.0432,-0.0432,-0.0471,-0.0471,-0.0432,-0.0393,-0.0314,0.0,0.0,0.0,0.0,0.0,0.0,0.0,-2.3398,-2.3705,-2.2809,-2.2482,-2.2279,-2.1608,-2.1069,-2.0916,-2.0518,-2.0554,-2.0749,-2.0823,-2.0861,-2.0848,-2.0903,-2.0686,-2.0446,-2.042,-2.036,-2.0292,-2.0292,-1.9957,-1.9397,-1.9586,-1.924,-1.8406,-1.8145,-1.7773,-1.7085,-1.6249,-1.5944,-1.6066,-1.5035,-1.4509,-1.4502,-1.3853,-1.3573,-1.3547,-1.3207,-1.2916,-1.2611,-1.279,-1.259,-1.2009,-1.1818,-1.18,-1.1852,-1.1197,-1.074,-1.0437,-1.0361,-1.0121,-0.9671,-0.8686,-0.8021,-0.7839,-0.7311,-0.7004,-0.7061,-0.6977,-0.6906,-0.6846,-0.678,-0.6688,-0.6634,-0.6569,-0.6491,-0.647,-0.6381,-0.6347,-0.6433,-0.6371,-0.6306,-0.63,-0.631,-0.63,-0.63,-0.63,-0.63,-0.63,-0.63,-0.63,-0.6261,-0.6219,-0.6025,-0.5715,-0.5518,-0.5204,-0.4428,-0.4153,-0.3958,-0.3604,-0.3407,-0.3368,-0.3331,-0.3217,-0.2627,-0.2078,-0.1803,-0.1489,-0.1215,-0.1137,-0.1097,-0.1137,-0.1176,-0.1137,-0.0981,-0.0903,-0.0706,0.0,0.0,0.0,0.0,0.0,0.0,-2.4297,-2.4877,-2.3859,-2.3191,-2.2877,-2.2552,-2.1943,-2.1051,-2.0817,-2.067,-2.0552,-2.0763,-2.0921,-2.0942,-2.1114,-2.1174,-2.1062,-2.1045,-2.0788,-2.0412,-2.0574,-2.0448,-2.0027,-2.0082,-1.948,-1.8317,-1.7629,-1.7016,-1.6432,-1.6044,-1.5843,-1.5606,-1.5152,-1.4836,-1.4783,-1.4033,-1.3766,-1.4086,-1.3276,-1.2858,-1.2984,-1.2488,-1.2229,-1.2356,-1.1834,-1.1514,-1.1505,-1.1164,-1.1003,-1.0974,-1.1001,-1.0668,-0.9979,-0.9255,-0.8566,-0.8006,-0.7407,-0.7041,-0.7082,-0.7058,-0.698,-0.6906,-0.6839,-0.6765,-0.6705,-0.6613,-0.6532,-0.6508,-0.6385,-0.6327,-0.6344,-0.633,-0.6354,-0.6436,-0.6358,-0.63,-0.63,-0.63,-0.63,-0.63,-0.63,-0.63,-0.63,-0.63,-0.6222,-0.6067,-0.6028,-0.5715,-0.5249,-0.4973,-0.4973,-0.4616,-0.4421,-0.4109,-0.3995,-0.3878,-0.3485,-0.2937,-0.2585,-0.2195,-0.1959,-0.1803,-0.1763,-0.1763,-0.1803,-0.1763,-0.1608,-0.1412,-0.1216,-0.1059,0.0,0.0,0.0,0.0,0.0,-2.4893,-2.5431,-2.4103,-2.3367,-2.3108,-2.2929,-2.2468,-2.1762,-2.1355,-2.1204,-2.127,-2.1285,-2.1293,-2.1345,-2.1533,-2.1533,-2.1448,-2.155,-2.1302,-2.0805,-2.0934,-2.0797,-2.0386,-2.0454,-1.9816,-1.8682,-1.8186,-1.7374,-1.6292,-1.6244,-1.6014,-1.5584,-1.5271,-1.5124,-1.5102,-1.4389,-1.4139,-1.4296,-1.3638,-1.3255,-1.3283,-1.2884,-1.2542,-1.2419,-1.202,-1.1696,-1.1424,-1.1202,-1.1107,-1.1096,-1.1209,-1.1048,-1.0539,-0.9947,-0.9269,-0.8513,-0.7901,-0.7404,-0.7187,-0.7092,-0.7065,-0.698,-0.6964,-0.693,-0.6861,-0.6729,-0.6647,-0.6627,-0.6522,-0.6447,-0.6498,-0.6454,-0.6495,-0.6624,-0.6407,-0.6317,-0.63,-0.63,-0.63,-0.63,-0.63,-0.63,-0.63,-0.63,-0.6219,-0.6106,-0.6028,-0.587,-0.5518,-0.5323,-0.5204,-0.5043,-0.481,-0.4616,-0.4613,-0.446,-0.4304,-0.3837,-0.3405,-0.2899,-0.251,-0.2431,-0.2353,-0.2352,-0.2353,-0.2195,-0.204,-0.1882,-0.1724,-0.1529,-0.1295,-0.1059,-0.0825,-0.0668,0.0,-2.5259,-2.5425,-2.389,-2.3276,-2.3154,-2.2767,-2.2773,-2.2884,-2.2189,-2.2075,-2.2434,-2.2143,-2.1976,-2.1961,-2.1978,-2.1859,-2.1602,-2.1859,-2.1807,-2.1508,-2.1456,-2.1165,-2.06,-2.0632,-2.014,-1.9423,-1.9412,-1.8597,-1.7037,-1.6878,-1.6574,-1.5805,-1.5504,-1.5404,-1.5284,-1.4816,-1.4489,-1.4522,-1.4229,-1.3837,-1.3483,-1.3639,-1.3336,-1.2186,-1.2277,-1.1997,-1.1348,-1.1166,-1.107,-1.0826,-1.1123,-1.1257,-1.1165,-1.0646,-0.9889,-0.9252,-0.8627,-0.8021,-0.7448,-0.7445,-0.7353,-0.7251,-0.7248,-0.7095,-0.7082,-0.6953,-0.6825,-0.6868,-0.6746,-0.6722,-0.6797,-0.6742,-0.6739,-0.682,-0.6549,-0.6388,-0.6334,-0.6347,-0.6375,-0.6361,-0.633,-0.632,-0.634,-0.633,-0.6126,-0.587,-0.5792,-0.5634,-0.5437,-0.5395,-0.5198,-0.5121,-0.516,-0.5046,-0.5007,-0.4771,-0.4616,-0.446,-0.407,-0.3722,-0.3294,-0.3176,-0.302,-0.2981,-0.2902,-0.2744,-0.251,-0.2352,-0.2078,-0.1804,-0.153,-0.1256,-0.0981,-0.0707,0.0,-2.6254,-2.6262,-2.4989,-2.4092,-2.3668,-2.3479,-2.3451,-2.3539,-2.3289,-2.282,-2.2542,-2.251,-2.2365,-2.2079,-2.2337,-2.2388,-2.2311,-2.2379,-2.2259,-2.1944,-2.2141,-2.1816,-2.1108,-2.0589,-2.0254,-1.9933,-1.97,-1.8886,-1.7423,-1.7127,-1.6595,-1.5812,-1.5571,-1.5511,-1.5571,-1.4885,-1.4676,-1.4743,-1.4329,-1.4039,-1.387,-1.3349,-1.2918,-1.2577,-1.2026,-1.1471,-1.09,-1.0874,-1.099,-1.1128,-1.1219,-1.1311,-1.1224,-1.0689,-1.0202,-0.9893,-0.9323,-0.8886,-0.8667,-0.858,-0.8408,-0.7977,-0.7889,-0.7672,-0.7136,-0.6967,-0.69,-0.6859,-0.6793,-0.677,-0.6756,-0.6739,-0.6742,-0.6739,-0.674,-0.662,-0.6607,-0.6624,-0.6583,-0.6586,-0.6569,-0.6515,-0.6487,-0.6413,-0.6343,-0.6152,-0.6093,-0.6041,-0.5856,-0.5808,-0.5779,-0.5754,-0.575,-0.5556,-0.5362,-0.5124,-0.4968,-0.4888,-0.4732,-0.4618,-0.4309,-0.4153,-0.3919,-0.3684,-0.3606,-0.345,-0.3059,-0.2785,-0.2433,-0.2119,-0.1727,-0.1412,-0.0903,-0.0589,-0.0314,-2.6463,-2.6396,-2.5173,-2.4451,-2.4053,-2.4053,-2.4159,-2.4218,-2.4041,-2.3624,-2.3118,-2.2984,-2.2714,-2.2302,-2.2508,-2.2594,-2.2603,-2.2603,-2.2474,-2.2254,-2.2072,-2.167,-2.1015,-2.0271,-1.9856,-1.9714,-1.9692,-1.8862,-1.7782,-1.7301,-1.6737,-1.6116,-1.5725,-1.5678,-1.5752,-1.5124,-1.4776,-1.4874,-1.4402,-1.4088,-1.4046,-1.3398,-1.2918,-1.2662,-1.1977,-1.1391,-1.1027,-1.0974,-1.1086,-1.1235,-1.1311,-1.1311,-1.1267,-1.0954,-1.0603,-1.0337,-0.985,-0.954,-0.9235,-0.9192,-0.9017,-0.8715,-0.8632,-0.8237,-0.7834,-0.7708,-0.7837,-0.7487,-0.74,-0.7364,-0.7271,-0.7059,-0.7059,-0.7332,-0.7353,-0.7168,-0.6764,-0.6688,-0.6698,-0.6702,-0.6695,-0.6678,-0.6576,-0.6569,-0.6529,-0.6481,-0.6434,-0.6427,-0.6337,-0.6395,-0.6332,-0.6237,-0.6175,-0.598,-0.5869,-0.5707,-0.5602,-0.5517,-0.5451,-0.5325,-0.5042,-0.4841,-0.4465,-0.4192,-0.4233,-0.4116,-0.3684,-0.3255,-0.2899,-0.2508,-0.2,-0.1452,-0.0942,-0.0511,-0.0236,-2.6217,-2.6099,-2.5056,-2.4529,-2.4482,-2.439,-2.4586,-2.4898,-2.443,-2.4078,-2.3817,-2.3461,-2.2976,-2.2603,-2.2577,-2.2603,-2.2603,-2.2603,-2.2594,-2.2299,-2.1861,-2.1216,-2.0872,-2.0123,-1.9699,-1.9514,-1.9518,-1.8803,-1.8008,-1.7573,-1.6981,-1.6326,-1.5932,-1.5852,-1.5745,-1.5271,-1.5068,-1.4914,-1.4462,-1.4064,-1.3884,-1.344,-1.296,-1.2534,-1.2063,-1.1634,-1.1365,-1.1246,-1.1262,-1.1311,-1.1311,-1.1311,-1.1311,-1.1311,-1.1046,-1.0603,-1.0424,-1.0115,-0.9632,-0.9632,-0.9453,-0.9366,-0.9323,-0.9021,-0.854,-0.8646,-0.8769,-0.8297,-0.8285,-0.8281,-0.819,-0.7647,-0.7672,-0.8047,-0.8209,-0.7735,-0.7123,-0.6871,-0.6871,-0.6829,-0.6836,-0.6746,-0.6729,-0.6725,-0.6712,-0.6597,-0.66,-0.6563,-0.6559,-0.6502,-0.6494,-0.64,-0.6369,-0.6339,-0.6303,-0.6303,-0.6244,-0.6218,-0.6165,-0.6007,-0.5507,-0.5207,-0.4836,-0.4621,-0.4659,-0.4543,-0.4229,-0.3837,-0.345,-0.282,-0.2273,-0.1569,-0.0903,-0.0589,-0.0275,-2.655,-2.6166,-2.5924,-2.5485,-2.4932,-2.4526,-2.4564,-2.4878,-2.4398,-2.3934,-2.352,-2.3329,-2.3038,-2.2603,-2.2603,-2.2603,-2.2603,-2.2603,-2.2603,-2.2502,-2.1683,-2.1293,-2.0985,-2.035,-2.0268,-2.0261,-1.9779,-1.895,-1.8095,-1.7605,-1.71,-1.6095,-1.6072,-1.6052,-1.5785,-1.5478,-1.5177,-1.4995,-1.4589,-1.4081,-1.3544,-1.3088,-1.2619,-1.2149,-1.1725,-1.1435,-1.1348,-1.1311,-1.1311,-1.1311,-1.1311,-1.1311,-1.1311,-1.1267,-1.1132,-1.0997,-1.0954,-1.0906,-1.0819,-1.0554,-1.0559,-0.9985,-0.985,-0.9763,-0.9061,-0.9061,-0.9148,-0.8973,-0.8973,-0.8846,-0.8759,-0.8324,-0.8237,-0.854,-0.8452,-0.8129,-0.7929,-0.7859,-0.7797,-0.7675,-0.7277,-0.6957,-0.6856,-0.6839,-0.6837,-0.6739,-0.6705,-0.6688,-0.6668,-0.6651,-0.6593,-0.6566,-0.6552,-0.6535,-0.6535,-0.6535,-0.6532,-0.6535,-0.6549,-0.6515,-0.6049,-0.5802,-0.551,-0.5294,-0.5126,-0.4984,-0.4923,-0.4499,-0.4117,-0.331,-0.2556,-0.1894,-0.1306,-0.0829,0.0,-2.6536,-2.5992,-2.5992,-2.5754,-2.5381,-2.5064,-2.4937,-2.4854,-2.4637,-2.4035,-2.3429,-2.3279,-2.3038,-2.2594,-2.2603,-2.2603,-2.2603,-2.2603,-2.2603,-2.2502,-2.2089,-2.1937,-2.1573,-2.0696,-2.0181,-2.0048,-1.9081,-1.8207,-1.7714,-1.7348,-1.6818,-1.6107,-1.6079,-1.5965,-1.5764,-1.5551,-1.5244,-1.4918,-1.4443,-1.3901,-1.34,-1.2699,-1.2149,-1.1768,-1.1435,-1.1311,-1.1311,-1.1311,-1.1311,-1.1311,-1.1311,-1.1311,-1.1219,-1.0997,-1.0868,-1.0776,-1.0467,-1.0332,-1.0289,-1.0289,-1.0067,-0.9854,-0.9806,-0.9371,-0.9065,-0.8978,-0.9017,-0.8846,-0.8715,-0.8719,-0.8719,-0.8061,-0.8105,-0.85,-0.8456,-0.8201,-0.8201,-0.8201,-0.8025,-0.776,-0.7298,-0.7092,-0.7007,-0.697,-0.6967,-0.6936,-0.6893,-0.6873,-0.682,-0.6797,-0.6739,-0.6688,-0.6678,-0.6671,-0.6668,-0.6661,-0.6644,-0.6637,-0.6627,-0.6634,-0.646,-0.6356,-0.6294,-0.6048,-0.5781,-0.5907,-0.5788,-0.5293,-0.4831,-0.4297,-0.357,-0.2575,-0.1802,-0.1402,-0.0754,-2.6304,-2.5684,-2.5684,-2.5684,-2.5684,-2.5577,-2.5216,-2.4784,-2.4686,-2.3935,-2.3338,-2.3188,-2.2946,-2.2644,-2.2603,-2.2603,-2.2603,-2.2603,-2.2603,-2.2552,-2.2544,-2.2291,-2.1878,-2.0798,-1.9717,-1.8781,-1.8126,-1.7531,-1.715,-1.6854,-1.6666,-1.6233,-1.6039,-1.5925,-1.5751,-1.5605,-1.5357,-1.5077,-1.4517,-1.3823,-1.3341,-1.2576,-1.1977,-1.1435,-1.1354,-1.1311,-1.1311,-1.1311,-1.1311,-1.1311,-1.1311,-1.1311,-1.1132,-1.0689,-1.0294,-1.0294,-0.9763,-0.9453,-0.9453,-0.9366,-0.9323,-0.9192,-0.9235,-0.9017,-0.8719,-0.889,-0.8934,-0.8715,-0.8544,-0.8544,-0.8328,-0.7889,-0.7845,-0.8197,-0.8328,-0.8201,-0.8201,-0.8201,-0.7937,-0.754,-0.7316,-0.7119,-0.7075,-0.7061,-0.7082,-0.7095,-0.7092,-0.7065,-0.6967,-0.6903,-0.6849,-0.6836,-0.6875,-0.6875,-0.6875,-0.6861,-0.6841,-0.6817,-0.6793,-0.679,-0.6793,-0.6748,-0.6666,-0.662,-0.6521,-0.6541,-0.6452,-0.6075,-0.5627,-0.5266,-0.4619,-0.3656,-0.2817,-0.2076,-0.1331,-2.583,-2.5684,-2.5684,-2.5684,-2.5635,-2.5235,-2.4784,-2.4233,-2.3836,-2.3288,-2.2795,-2.2754,-2.2695,-2.2594,-2.2603,-2.2603,-2.2603,-2.2603,-2.2544,-2.2493,-2.2443,-2.2241,-2.1369,-2.049,-1.9561,-1.8781,-1.7982,-1.7321,-1.7001,-1.6971,-1.6613,-1.6112,-1.6072,-1.6052,-1.5818,-1.5758,-1.5571,-1.5232,-1.4785,-1.411,-1.3287,-1.2635,-1.202,-1.1397,-1.1311,-1.1311,-1.1311,-1.1311,-1.1311,-1.1311,-1.1311,-1.1311,-1.1176,-1.0646,-1.0337,-1.0159,-0.9545,-0.9061,-0.9061,-0.9104,-0.9148,-0.9192,-0.9061,-0.9104,-0.9021,-0.9017,-0.8798,-0.8886,-0.8842,-0.893,-0.9017,-0.8281,-0.8368,-0.8675,-0.8548,-0.8245,-0.8245,-0.8288,-0.8285,-0.8017,-0.758,-0.7095,-0.7095,-0.7095,-0.7095,-0.7095,-0.7095,-0.7092,-0.7045,-0.7024,-0.7021,-0.7024,-0.7041,-0.7041,-0.7085,-0.7068,-0.7051,-0.7024,-0.7007,-0.7004,-0.7021,-0.7018,-0.698,-0.6878,-0.678,-0.6714,-0.6617,-0.6579,-0.6334,-0.5906,-0.5315,-0.4731,-0.3962,-0.312,-0.2201,-2.6062,-2.5684,-2.5684,-2.5684,-2.5586,-2.5137,-2.4587,-2.4075,-2.3529,-2.3029,-2.2695,-2.2603,-2.2603,-2.2603,-2.2603,-2.2603,-2.2603,-2.2603,-2.2342,-2.2089,-2.1878,-2.1471,-2.0652,-1.982,-1.9294,-1.867,-1.7969,-1.7375,-1.6967,-1.6945,-1.6607,-1.6206,-1.6079,-1.5959,-1.5811,-1.5812,-1.5665,-1.5325,-1.4773,-1.4044,-1.3077,-1.2461,-1.1705,-1.1435,-1.1311,-1.1311,-1.1311,-1.1311,-1.1311,-1.1311,-1.1311,-1.1311,-1.1132,-1.0781,-1.0337,-1.0164,-0.9327,-0.8671,-0.8584,-0.8408,-0.8057,-0.8057,-0.8145,-0.8321,-0.8452,-0.8321,-0.8273,-0.8273,-0.8584,-0.8671,-0.8627,-0.8372,-0.8588,-0.8886,-0.8627,-0.8456,-0.8588,-0.8675,-0.8671,-0.854,-0.7841,-0.7316,-0.7095,-0.7095,-0.7095,-0.7095,-0.7095,-0.7095,-0.7095,-0.7095,-0.7095,-0.7095,-0.7088,-0.7092,-0.7092,-0.7095,-0.7095,-0.7095,-0.7095,-0.7095,-0.7095,-0.7088,-0.7055,-0.6967,-0.6939,-0.6878,-0.6889,-0.684,-0.6681,-0.6527,-0.6227,-0.5741,-0.5004,-0.4168,-0.3269,-2.6294,-2.5684,-2.5684,-2.5684,-2.5635,-2.5128,-2.4587,-2.4035,-2.3529,-2.3038,-2.2653,-2.2603,-2.2603,-2.2603,-2.2603,-2.2603,-2.2544,-2.2443,-2.1937,-2.1479,-2.1113,-2.0652,-1.982,-1.9242,-1.8722,-1.8363,-1.7943,-1.7481,-1.7166,-1.6867,-1.6567,-1.6246,-1.5972,-1.5825,-1.5825,-1.5825,-1.5651,-1.5265,-1.4551,-1.3759,-1.2865,-1.2002,-1.1343,-1.1311,-1.1311,-1.1311,-1.1311,-1.1311,-1.1311,-1.1311,-1.1311,-1.1311,-1.1219,-1.0781,-1.0516,-1.0294,-0.9157,-0.85,-0.8109,-0.7845,-0.7665,-0.7713,-0.7408,-0.7757,-0.8149,-0.8233,-0.7749,-0.7621,-0.8061,-0.8544,-0.8588,-0.8456,-0.8675,-0.8934,-0.8803,-0.8588,-0.8934,-0.9061,-0.9061,-0.8667,-0.7969,-0.7709,-0.7625,-0.7448,-0.7492,-0.7139,-0.7095,-0.7095,-0.7095,-0.7095,-0.7095,-0.7095,-0.7095,-0.7095,-0.7095,-0.7095,-0.7095,-0.7095,-0.7095,-0.7095,-0.7095,-0.7095,-0.7061,-0.7034,-0.7041,-0.7048,-0.7078,-0.7095,-0.694,-0.6877,-0.7024,-0.6784,-0.5993,-0.5262,-0.4428,-2.5781,-2.5684,-2.5684,-2.5684,-2.5635,-2.5079,-2.4587,-2.4075,-2.3529,-2.3038,-2.2603,-2.2603,-2.2603,-2.2603,-2.2603,-2.2603,-2.2342,-2.1886,-2.1369,-2.0952,-2.0439,-1.9761,-1.9027,-1.893,-1.8356,-1.8003,-1.774,-1.746,-1.7219,-1.6881,-1.658,-1.6299,-1.6019,-1.5825,-1.5825,-1.5825,-1.5764,-1.559,-1.4892,-1.3817,-1.2634,-1.1927,-1.1515,-1.1359,-1.1311,-1.1311,-1.1311,-1.1311,-1.1311,-1.1311,-1.1311,-1.1311,-1.1267,-1.1262,-1.1176,-1.0776,-0.9941,-0.8846,-0.846,-0.8197,-0.8065,-0.8061,-0.8065,-0.8456,-0.8715,-0.8973,-0.8838,-0.8969,-0.9061,-0.9104,-0.9109,-0.9104,-0.9148,-0.9235,-0.9279,-0.9148,-0.9362,-0.9763,-0.9719,-0.9589,-0.9109,-0.8632,-0.8372,-0.8109,-0.7889,-0.7448,-0.7139,-0.7139,-0.7139,-0.7183,-0.7095,-0.7095,-0.7095,-0.7095,-0.7095,-0.7095,-0.7095,-0.7095,-0.7095,-0.7095,-0.7095,-0.7095,-0.7095,-0.7082,-0.7095,-0.7095,-0.7095,-0.7095,-0.7095,-0.7095,-0.7095,-0.7095,-0.6993,-0.626,-0.5478,-2.5684,-2.5684,-2.5684,-2.5684,-2.5586,-2.4833,-2.4332,-2.3976,-2.3238,-2.2787,-2.2653,-2.2603,-2.2603,-2.2603,-2.2603,-2.2342,-2.1886,-2.142,-2.0696,-2.0019,-1.9502,-1.893,-1.8304,-1.8094,-1.7838,-1.774,-1.7582,-1.7601,-1.7326,-1.6947,-1.662,-1.6473,-1.6066,-1.5825,-1.5825,-1.5825,-1.5825,-1.5456,-1.4644,-1.3431,-1.2417,-1.1788,-1.1418,-1.1311,-1.1311,-1.1311,-1.1311,-1.1311,-1.1311,-1.1311,-1.1311,-1.1311,-1.1311,-1.1267,-1.1267,-1.1219,-1.0776,-1.012,-0.951,-0.9026,-0.8803,-0.8803,-0.8803,-0.8886,-0.9235,-0.9584,-0.9584,-0.9192,-0.9584,-0.9763,-0.9806,-0.9806,-1.0072,-1.0159,-0.9937,-1.0067,-1.0159,-1.0337,-1.0511,-1.0424,-1.0294,-0.9772,-0.9292,-0.9026,-0.8719,-0.8277,-0.7885,-0.7669,-0.7492,-0.736,-0.7228,-0.7095,-0.7095,-0.7095,-0.7095,-0.7095,-0.7095,-0.7095,-0.7095,-0.7095,-0.7095,-0.7095,-0.7095,-0.7095,-0.7095,-0.7095,-0.7095,-0.7095,-0.7095,-0.7095,-0.7095,-0.7095,-0.7095,-0.7003,-0.6177,-2.5684,-2.5684,-2.5684,-2.5645,-2.5391,-2.448,-2.4035,-2.3786,-2.2996,-2.2594,-2.2603,-2.2603,-2.2603,-2.2603,-2.2552,-2.2139,-2.1326,-2.1113,-2.0122,-1.919,-1.8513,-1.8153,-1.7845,-1.7635,-1.7635,-1.7589,-1.7589,-1.7621,-1.7395,-1.7048,-1.67,-1.6673,-1.6051,-1.5865,-1.5825,-1.5778,-1.5683,-1.5168,-1.42,-1.3142,-1.2233,-1.1775,-1.1521,-1.1359,-1.1311,-1.1311,-1.1311,-1.1311,-1.1311,-1.1311,-1.1311,-1.1311,-1.1311,-1.138,-1.1364,-1.1364,-1.1185,-1.1027,-1.0415,-0.9898,-0.954,-0.954,-0.9676,-0.9854,-0.9893,-1.025,-1.0424,-0.9937,-1.0202,-1.0511,-1.0559,-1.0554,-1.0689,-1.0824,-1.0781,-1.1003,-1.1132,-1.1003,-1.0954,-1.0911,-1.0824,-1.0819,-1.0381,-1.0028,-0.9632,-0.9148,-0.8715,-0.8241,-0.7845,-0.7536,-0.7316,-0.7183,-0.7095,-0.7095,-0.7095,-0.7095,-0.7095,-0.7095,-0.7095,-0.7095,-0.7095,-0.7095,-0.7095,-0.7095,-0.7095,-0.7095,-0.7095,-0.7095,-0.7095,-0.7095,-0.7095,-0.7095,-0.7095,-0.7095,-0.6962,-2.5684,-2.5684,-2.5684,-2.543,-2.4932,-2.4322,-2.3836,-2.3379,-2.2837,-2.2603,-2.2603,-2.2603,-2.2603,-2.2603,-2.2493,-2.208,-2.1216,-2.055,-1.9606,-1.8774,-1.8094,-1.7793,-1.7589,-1.7589,-1.7589,-1.7589,-1.7589,-1.7589,-1.7442,-1.6994,-1.676,-1.662,-1.6057,-1.5899,-1.5778,-1.5737,-1.5255,-1.4711,-1.3832,-1.3093,-1.2398,-1.197,-1.1741,-1.1391,-1.1316,-1.1311,-1.1311,-1.1311,-1.1311,-1.1311,-1.1311,-1.1311,-1.1332,-1.1439,-1.1429,-1.137,-1.1493,-1.1379,-1.1006,-1.0603,-1.0299,-1.0386,-1.0666,-1.0914,-1.0881,-1.1056,-1.1089,-1.0906,-1.0954,-1.1046,-1.1132,-1.1219,-1.1176,-1.1132,-1.1132,-1.1176,-1.1224,-1.1224,-1.1224,-1.1267,-1.1224,-1.1132,-1.1132,-1.0646,-1.0337,-0.9898,-0.924,-0.8763,-0.8017,-0.7621,-0.7404,-0.7228,-0.7139,-0.7095,-0.7095,-0.7095,-0.7095,-0.7095,-0.7095,-0.7095,-0.7095,-0.7095,-0.7095,-0.7095,-0.7095,-0.7095,-0.7095,-0.7095,-0.7095,-0.7095,-0.7095,-0.7095,-0.7095,-0.7095,-0.7095,-2.5489,-2.5245,-2.5538,-2.5391,-2.4833,-2.4332,-2.3786,-2.3279,-2.2795,-2.2603,-2.2603,-2.2603,-2.2603,-2.2603,-2.2493,-2.1827,-2.0644,-2.0292,-1.9294,-1.8363,-1.774,-1.7641,-1.7589,-1.7589,-1.7589,-1.7589,-1.7589,-1.7589,-1.7522,-1.6987,-1.6774,-1.6526,-1.6057,-1.5905,-1.5778,-1.5499,-1.4927,-1.4345,-1.363,-1.2933,-1.2442,-1.1997,-1.1741,-1.1602,-1.1343,-1.1321,-1.1311,-1.1311,-1.1311,-1.1311,-1.1311,-1.1311,-1.1321,-1.1429,-1.1423,-1.137,-1.1602,-1.1585,-1.1386,-1.1072,-1.1011,-1.1147,-1.1388,-1.1514,-1.1482,-1.1407,-1.1327,-1.1267,-1.1337,-1.1375,-1.1327,-1.1273,-1.1267,-1.1267,-1.1321,-1.1332,-1.1332,-1.1337,-1.1311,-1.1311,-1.1311,-1.1267,-1.1267,-1.1224,-1.0954,-1.0603,-0.9898,-0.9196,-0.8452,-0.7925,-0.7797,-0.758,-0.7492,-0.7272,-0.7272,-0.7183,-0.7139,-0.7095,-0.7095,-0.7095,-0.7095,-0.7095,-0.7095,-0.7095,-0.7095,-0.7095,-0.7095,-0.7095,-0.7095,-0.7095,-0.7095,-0.7095,-0.7095,-0.7095,-0.7095,-2.5382,-2.4981,-2.5294,-2.5088,-2.443,-2.4183,-2.3728,-2.3088,-2.2745,-2.2603,-2.2603,-2.2603,-2.2603,-2.2603,-2.2552,-2.1886,-2.0806,-2.0189,-1.9198,-1.8415,-1.7838,-1.7635,-1.7589,-1.7589,-1.7589,-1.7589,-1.7589,-1.7589,-1.7555,-1.6981,-1.6616,-1.6335,-1.6056,-1.5844,-1.5642,-1.5166,-1.4688,-1.4196,-1.3481,-1.2878,-1.2371,-1.2134,-1.1801,-1.1725,-1.1493,-1.138,-1.1337,-1.1311,-1.1311,-1.1311,-1.1311,-1.1311,-1.1332,-1.1364,-1.1402,-1.1488,-1.1634,-1.1704,-1.1596,-1.1386,-1.1396,-1.1422,-1.1606,-1.1666,-1.1661,-1.1602,-1.1639,-1.1607,-1.1585,-1.1548,-1.1498,-1.1568,-1.1634,-1.1671,-1.1493,-1.1472,-1.1418,-1.1402,-1.1348,-1.1311,-1.1311,-1.1311,-1.1311,-1.1267,-1.1018,-1.0748,-1.025,-0.9589,-0.9017,-0.8623,-0.8496,-0.8237,-0.7973,-0.7713,-0.7448,-0.7316,-0.7183,-0.7095,-0.7095,-0.7095,-0.7095,-0.7095,-0.7095,-0.7095,-0.7095,-0.7095,-0.7095,-0.7095,-0.7095,-0.7095,-0.7095,-0.7095,-0.7095,-0.7095,-0.7095,-2.5391,-2.4941,-2.4941,-2.4332,-2.3479,-2.3877,-2.3529,-2.2787,-2.2644,-2.2603,-2.2603,-2.2603,-2.2603,-2.2603,-2.2603,-2.1937,-2.096,-2.0292,-1.9457,-1.8513,-1.7838,-1.7635,-1.7589,-1.7589,-1.7589,-1.7589,-1.7589,-1.7589,-1.7575,-1.6959,-1.6454,-1.605,-1.582,-1.573,-1.5689,-1.4825,-1.4346,-1.4154,-1.3318,-1.2853,-1.2479,-1.2355,-1.2091,-1.1828,-1.1666,-1.1504,-1.1348,-1.1311,-1.1327,-1.1375,-1.1375,-1.1391,-1.1429,-1.1623,-1.1682,-1.1709,-1.1964,-1.2062,-1.2046,-1.1563,-1.1445,-1.1482,-1.172,-1.1779,-1.179,-1.1855,-1.1981,-1.19,-1.1964,-1.2002,-1.2035,-1.2035,-1.1997,-1.1927,-1.1736,-1.1618,-1.152,-1.1407,-1.1343,-1.1311,-1.1311,-1.1311,-1.1311,-1.123,-1.0985,-1.072,-1.0434,-1.0028,-0.9593,-0.9327,-0.92,-0.8978,-0.8627,-0.8149,-0.7845,-0.7404,-0.7228,-0.7139,-0.7095,-0.7095,-0.7095,-0.7095,-0.7095,-0.7095,-0.7095,-0.7095,-0.7095,-0.7095,-0.7095,-0.7095,-0.7095,-0.7095,-0.7095,-0.7095,-0.7095,-2.5186,-2.4381,-2.4735,-2.4084,-2.2987,-2.3388,-2.3329,-2.3029,-2.2745,-2.2603,-2.2603,-2.2603,-2.2603,-2.2603,-2.2493,-2.1878,-2.0704,-2.0336,-1.9502,-1.8153,-1.774,-1.7635,-1.7589,-1.7589,-1.7589,-1.7589,-1.7589,-1.7582,-1.7569,-1.6884,-1.6323,-1.5921,-1.5566,-1.5532,-1.5547,-1.5118,-1.4688,-1.4256,-1.3624,-1.3102,-1.2683,-1.249,-1.2269,-1.1986,-1.1846,-1.1612,-1.1375,-1.137,-1.1402,-1.1514,-1.1541,-1.1639,-1.1731,-1.1898,-1.1964,-1.1973,-1.2197,-1.2285,-1.2226,-1.2,-1.1833,-1.1838,-1.1871,-1.2,-1.2151,-1.2105,-1.211,-1.2116,-1.2159,-1.2148,-1.2078,-1.2083,-1.2056,-1.2008,-1.1889,-1.172,-1.1579,-1.1413,-1.1311,-1.1311,-1.1311,-1.1354,-1.137,-1.1542,-1.131,-1.1224,-1.1033,-1.0935,-1.0599,-1.0178,-0.9903,-0.968,-0.9327,-0.8763,-0.8281,-0.7973,-0.7536,-0.7316,-0.7228,-0.7095,-0.7095,-0.7228,-0.7183,-0.7228,-0.7183,-0.7095,-0.7095,-0.7095,-0.7095,-0.7095,-0.7095,-0.7095,-0.7095,-0.7095,-0.7095,-2.4726,-2.3972,-2.4275,-2.3817,-2.297,-2.3188,-2.3229,-2.3038,-2.2745,-2.2603,-2.2603,-2.2603,-2.2603,-2.2603,-2.2493,-2.2232,-2.0952,-2.0233,-1.9872,-1.8415,-1.7793,-1.7687,-1.7589,-1.7582,-1.7589,-1.7582,-1.7582,-1.7582,-1.7562,-1.6717,-1.6005,-1.5495,-1.5251,-1.5293,-1.5371,-1.5124,-1.4933,-1.4454,-1.3919,-1.3346,-1.3049,-1.2752,-1.2436,-1.2183,-1.1968,-1.1802,-1.1623,-1.152,-1.158,-1.1747,-1.1849,-1.1943,-1.2062,-1.2105,-1.2143,-1.2204,-1.2382,-1.2479,-1.2371,-1.2285,-1.2145,-1.2161,-1.2178,-1.2253,-1.2393,-1.235,-1.2386,-1.2375,-1.2327,-1.2332,-1.2327,-1.231,-1.2289,-1.2251,-1.2137,-1.1973,-1.1887,-1.1697,-1.1552,-1.1525,-1.1509,-1.1514,-1.152,-1.1693,-1.1772,-1.1713,-1.1659,-1.1552,-1.1412,-1.103,-1.0634,-1.0372,-1.0043,-0.9428,-0.8942,-0.8627,-0.8149,-0.758,-0.7492,-0.7492,-0.7577,-0.7749,-0.7533,-0.7319,-0.7228,-0.7139,-0.7139,-0.7095,-0.7095,-0.7095,-0.7095,-0.7095,-0.7095,-0.7095,-0.7095,-2.406,-2.3549,-2.3489,-2.3416,-2.3217,-2.3211,-2.2987,-2.2644,-2.2603,-2.2603,-2.2603,-2.2603,-2.2603,-2.2603,-2.2603,-2.2443,-2.1928,-2.0696,-2.0027,-1.9354,-1.8153,-1.7845,-1.7569,-1.7542,-1.7548,-1.7581,-1.7581,-1.7468,-1.7463,-1.6561,-1.5693,-1.5056,-1.4906,-1.5103,-1.5191,-1.5297,-1.512,-1.4709,-1.4201,-1.3631,-1.3268,-1.2942,-1.2618,-1.2361,-1.2161,-1.2078,-1.1908,-1.1822,-1.1876,-1.2024,-1.211,-1.2121,-1.2132,-1.2127,-1.2226,-1.2409,-1.2641,-1.2587,-1.2506,-1.2431,-1.2425,-1.242,-1.242,-1.2431,-1.2474,-1.2571,-1.2635,-1.2662,-1.2651,-1.271,-1.2743,-1.2721,-1.2705,-1.256,-1.2447,-1.2361,-1.2296,-1.2161,-1.2005,-1.1991,-1.1981,-1.1925,-1.1908,-1.1995,-1.1875,-1.1743,-1.1655,-1.1613,-1.1554,-1.1675,-1.1324,-1.1097,-1.0668,-1.0096,-0.965,-0.9257,-0.8846,-0.8324,-0.8237,-0.8237,-0.8277,-0.8233,-0.8017,-0.7753,-0.736,-0.7183,-0.7139,-0.7095,-0.7095,-0.7095,-0.7095,-0.7095,-0.7095,-0.7095,-0.7095,-2.3888,-2.3125,-2.337,-2.3068,-2.2472,-2.2674,-2.2695,-2.2603,-2.2603,-2.2603,-2.2603,-2.2603,-2.2603,-2.2603,-2.2603,-2.219,-2.1471,-2.0652,-1.9761,-1.8982,-1.8258,-1.7793,-1.7522,-1.746,-1.7373,-1.7347,-1.7353,-1.7373,-1.7081,-1.6336,-1.5441,-1.4757,-1.4629,-1.4954,-1.5301,-1.5662,-1.5301,-1.4888,-1.441,-1.3976,-1.3428,-1.3003,-1.2721,-1.2468,-1.2344,-1.2272,-1.2148,-1.2062,-1.2127,-1.2258,-1.2301,-1.2397,-1.2602,-1.2602,-1.2672,-1.2646,-1.2775,-1.277,-1.2673,-1.2705,-1.2694,-1.2635,-1.2641,-1.2662,-1.2689,-1.2705,-1.2807,-1.2807,-1.2807,-1.2807,-1.2807,-1.2807,-1.2807,-1.2694,-1.2587,-1.2501,-1.2431,-1.2386,-1.224,-1.2224,-1.2218,-1.2224,-1.2172,-1.1916,-1.1739,-1.1633,-1.1539,-1.1598,-1.1651,-1.1824,-1.1855,-1.1616,-1.1139,-1.0499,-1.0202,-0.9862,-0.948,-0.9109,-0.8876,-0.8844,-0.9051,-0.8915,-0.8548,-0.8149,-0.7753,-0.7401,-0.7139,-0.7183,-0.7316,-0.7139,-0.7095,-0.7095,-0.7095,-0.7095,-0.7095,-2.3421,-2.275,-2.2904,-2.2533,-2.1913,-2.2216,-2.2379,-2.2397,-2.2534,-2.2603,-2.2603,-2.2603,-2.2603,-2.2544,-2.2241,-2.1784,-2.1318,-2.0498,-1.9665,-1.8878,-1.8251,-1.7943,-1.7639,-1.7367,-1.7333,-1.7286,-1.728,-1.7306,-1.7002,-1.6208,-1.5311,-1.4322,-1.4279,-1.4756,-1.514,-1.5438,-1.5417,-1.5026,-1.4619,-1.4213,-1.3678,-1.3062,-1.2829,-1.2576,-1.249,-1.2361,-1.2364,-1.2305,-1.2323,-1.2506,-1.2549,-1.2651,-1.2797,-1.2797,-1.2797,-1.2748,-1.2802,-1.2807,-1.2737,-1.2743,-1.2802,-1.2807,-1.2807,-1.2802,-1.2797,-1.2802,-1.2807,-1.2807,-1.2807,-1.2807,-1.2807,-1.2807,-1.2807,-1.2802,-1.2662,-1.2571,-1.2495,-1.2472,-1.2435,-1.2413,-1.2413,-1.2418,-1.2267,-1.1956,-1.1869,-1.2081,-1.2049,-1.19,-1.1946,-1.1989,-1.201,-1.1881,-1.1422,-1.089,-1.0533,-1.0135,-0.9772,-0.9272,-0.8881,-0.8966,-0.9486,-0.9244,-0.8476,-0.8241,-0.8145,-0.7753,-0.7272,-0.7492,-0.7625,-0.736,-0.7095,-0.7095,-0.7095,-0.7095,-0.7095,-2.2802,-2.2336,-2.2272,-2.1951,-2.1487,-2.1807,-2.1944,-2.1987,-2.2311,-2.2542,-2.2577,-2.2603,-2.2603,-2.2443,-2.1886,-2.1471,-2.0952,-2.0285,-1.945,-1.8767,-1.8408,-1.8048,-1.7646,-1.734,-1.7246,-1.736,-1.7321,-1.7123,-1.7114,-1.6355,-1.5247,-1.3973,-1.4445,-1.479,-1.4763,-1.534,-1.5311,-1.4902,-1.4813,-1.4554,-1.388,-1.3347,-1.2996,-1.2802,-1.2662,-1.2511,-1.2672,-1.2662,-1.2538,-1.2726,-1.2802,-1.2797,-1.2802,-1.2807,-1.2807,-1.2807,-1.2807,-1.2807,-1.2807,-1.2807,-1.2807,-1.2807,-1.2807,-1.2807,-1.2807,-1.2807,-1.2807,-1.2807,-1.2807,-1.2807,-1.2807,-1.2807,-1.2807,-1.2807,-1.2711,-1.2667,-1.2635,-1.264,-1.2635,-1.2618,-1.2618,-1.2624,-1.2539,-1.2212,-1.1816,-1.2323,-1.2344,-1.2052,-1.2093,-1.2098,-1.1916,-1.1877,-1.1472,-1.0879,-1.0232,-0.9857,-0.9824,-0.9443,-0.8993,-0.922,-0.9872,-0.925,-0.8264,-0.8116,-0.8017,-0.7797,-0.7536,-0.758,-0.7492,-0.7272,-0.7095,-0.7095,-0.7095,-0.7095,-0.7095,-2.2842,-2.2344,-2.1934,-2.1635,-2.1444,-2.1508,-2.1542,-2.1559,-2.1627,-2.2013,-2.2517,-2.2585,-2.256,-2.2349,-2.1566,-2.1159,-2.088,-1.9772,-1.9109,-1.8589,-1.8269,-1.798,-1.7507,-1.7094,-1.7048,-1.7068,-1.7016,-1.6916,-1.6799,-1.6193,-1.5553,-1.4736,-1.4773,-1.4531,-1.4748,-1.5238,-1.5026,-1.4739,-1.4766,-1.4504,-1.3733,-1.3324,-1.2996,-1.2824,-1.2684,-1.2673,-1.2786,-1.2775,-1.27,-1.2807,-1.2807,-1.2807,-1.2807,-1.2807,-1.2807,-1.2807,-1.2807,-1.2807,-1.2807,-1.2807,-1.2807,-1.2807,-1.2807,-1.2807,-1.2807,-1.2807,-1.2807,-1.2807,-1.2807,-1.2807,-1.2807,-1.2807,-1.2807,-1.2807,-1.2807,-1.2807,-1.2807,-1.2807,-1.2807,-1.2807,-1.2807,-1.2759,-1.271,-1.2467,-1.2029,-1.1878,-1.1829,-1.178,-1.2019,-1.2078,-1.149,-1.137,-1.1325,-1.0806,-1.0075,-0.9626,-0.9575,-0.9626,-0.9347,-0.9683,-1.0159,-0.9384,-0.8496,-0.8099,-0.7841,-0.7709,-0.7533,-0.7272,-0.7183,-0.7139,-0.7095,-0.7095,-0.7095,-0.7095,-0.7095,-2.2838,-2.2356,-2.1798,-2.134,-2.0989,-2.1097,-2.1174,-2.1174,-2.1174,-2.1499,-2.203,-2.2242,-2.2259,-2.1934,-2.0994,-2.0458,-2.0194,-1.9014,-1.8373,-1.8001,-1.8026,-1.7791,-1.738,-1.6934,-1.6874,-1.6881,-1.6981,-1.6897,-1.6706,-1.6465,-1.5986,-1.5357,-1.488,-1.4671,-1.4928,-1.4826,-1.4671,-1.4611,-1.4665,-1.4278,-1.3615,-1.3378,-1.3071,-1.2943,-1.2813,-1.2813,-1.2807,-1.2807,-1.2807,-1.2807,-1.2807,-1.2807,-1.2807,-1.2807,-1.2807,-1.2807,-1.2807,-1.2807,-1.2807,-1.2807,-1.2807,-1.2807,-1.2807,-1.2807,-1.2807,-1.2807,-1.2807,-1.2807,-1.2807,-1.2807,-1.2807,-1.2807,-1.2807,-1.2807,-1.2807,-1.2807,-1.2807,-1.2807,-1.2807,-1.2807,-1.2807,-1.2759,-1.271,-1.271,-1.237,-1.237,-1.2175,-1.1834,-1.2029,-1.2175,-1.1497,-1.0994,-1.1082,-1.0745,-1.0049,-0.9585,-0.9288,-0.9367,-0.9613,-0.9287,-0.9234,-0.9163,-0.8816,-0.825,-0.7904,-0.7885,-0.7665,-0.7316,-0.7187,-0.7143,-0.7139,-0.7095,-0.7095,-0.7095,-0.7095,-2.2736,-2.2267,-2.1789,-2.1105,-2.0414,-2.0651,-2.0805,-2.0805,-2.0805,-2.0968,-2.1293,-2.167,-2.1619,-2.1094,-2.0122,-1.9527,-1.8897,-1.8167,-1.7606,-1.7513,-1.7872,-1.7551,-1.7187,-1.6847,-1.674,-1.68,-1.6947,-1.6917,-1.6826,-1.652,-1.6152,-1.5779,-1.5357,-1.4886,-1.4773,-1.4509,-1.4245,-1.4299,-1.4256,-1.4067,-1.3798,-1.3583,-1.3227,-1.3007,-1.2829,-1.2813,-1.2807,-1.2807,-1.2807,-1.2807,-1.2807,-1.2807,-1.2807,-1.2807,-1.2807,-1.2807,-1.2807,-1.2807,-1.2807,-1.2807,-1.2807,-1.2807,-1.2807,-1.2807,-1.2856,-1.2905,-1.2905,-1.3001,-1.3001,-1.2807,-1.2807,-1.2807,-1.2807,-1.2807,-1.2807,-1.2905,-1.2905,-1.2905,-1.2905,-1.2905,-1.2856,-1.2856,-1.2807,-1.2759,-1.2759,-1.2759,-1.2613,-1.2322,-1.2127,-1.2224,-1.1984,-1.1424,-1.1113,-1.0644,-1.0128,-0.9804,-0.9506,-0.9693,-0.9878,-0.8997,-0.8463,-0.874,-0.8724,-0.8228,-0.7982,-0.7779,-0.7672,-0.7404,-0.7316,-0.7156,-0.7139,-0.7095,-0.7095,-0.7095,-0.7095,-2.2312,-2.1839,-2.1733,-2.1176,-2.04,-2.0386,-2.0403,-2.0403,-2.042,-2.0454,-2.0643,-2.0934,-2.1156,-2.1309,-1.9843,-1.9097,-1.8746,-1.7739,-1.7122,-1.6945,-1.7245,-1.7123,-1.6851,-1.662,-1.654,-1.6653,-1.6918,-1.7096,-1.6984,-1.6474,-1.6045,-1.5939,-1.4832,-1.4461,-1.4396,-1.4186,-1.4186,-1.4164,-1.4099,-1.3986,-1.3674,-1.347,-1.3335,-1.3087,-1.2905,-1.2845,-1.2807,-1.2807,-1.2807,-1.2807,-1.2807,-1.2807,-1.2807,-1.2807,-1.2807,-1.2807,-1.2807,-1.2861,-1.2861,-1.291,-1.291,-1.3001,-1.3055,-1.3152,-1.3249,-1.3394,-1.3485,-1.3673,-1.3576,-1.305,-1.3001,-1.3001,-1.3001,-1.3001,-1.3001,-1.3195,-1.3292,-1.3292,-1.3292,-1.3249,-1.3152,-1.3055,-1.291,-1.2861,-1.2759,-1.2807,-1.2807,-1.2516,-1.2467,-1.2467,-1.2462,-1.1932,-1.1394,-1.0904,-1.0449,-1.0297,-1.007,-1.0235,-1.0196,-0.9556,-0.9068,-0.8785,-0.8613,-0.8178,-0.7692,-0.7368,-0.7306,-0.7461,-0.7317,-0.7197,-0.7156,-0.7095,-0.7095,-0.7095,-0.7095]},{"header":{"parameterUnit":"m.s-1","parameterCategory":1,"la1":31.0,"la2":29.5877,"lo1":-88.7671,"lo2":-86.6584,"dy":0.0162,"dx":0.0185,"nx":115,"ny":88,"refTime":"2024-05-01T06:00:00:Z","depth":0,"parameterNumber":3,"parameterNumberName":"V-component_of_WINDS"},"data":[0.0,0.0,0.0,0.0,0.0,0.0,0.0,0.0,0.0,0.0,0.0,0.0,0.0,0.0,0.0,0.0,0.0,0.0,0.0,0.0,0.0,0.0,0.0,0.0,0.0,0.0,0.0,0.0,0.0,0.0,0.0,0.0,0.0,0.0,0.0,0.0,0.0,0.0,0.0,0.0,0.0,0.0,0.0,0.0,0.0,0.0,0.0,0.0,0.0,0.0,0.0,0.0,0.0,0.0,0.0,0.0,0.0,0.0,0.0,0.0,0.0,0.0,0.0,0.0,0.0,0.0,0.0,0.0,0.0,0.0,0.0,0.0,0.0,0.0,0.0,0.0,0.0,0.0,0.0,0.0,0.0,0.0,0.0,0.0,0.0,0.0,0.0,0.0,0.0,0.0,0.0,0.0,0.0,0.0,0.0,0.0,0.0,0.0,0.0,0.0,0.0,0.0,0.0,0.0,0.0,0.0,0.0,0.0,0.0,0.0,0.0,0.0,0.0,0.0,0.0,0.0,0.0,0.0,0.0,0.0,0.0,0.0,0.0,0.0,0.0,0.0,0.0,0.0,0.0,0.0,0.0,0.0,0.0,0.0,0.0,0.0,0.0,0.0,0.0,0.0,0.0,0.0,0.0,0.0,0.0,0.0,0.0,0.0,0.0,0.0,0.0,0.0,0.0,0.0,0.0,0.0,0.0,0.0,0.0,0.0,0.0,0.0,0.0,0.0,0.0,0.0,0.0,0.0,0.0,0.0,0.0,0.0,0.0,0.0,0.0,0.0,0.0,0.0,0.0,0.0,0.0,0.0,0.0,0.0,0.0,0.0,0.0,0.0,0.0,0.0,0.0,0.0,0.0,0.0,0.0,0.0,0.0,0.0,0.0,0.0,0.0,0.0,0.0,0.0,0.0,0.0,0.0,0.0,0.0,0.0,0.0,0.0,0.0,0.0,0.0,0.0,0.0,0.0,0.0,0.0,0.0,0.0,0.0,0.0,0.0,0.0,0.0,0.0,0.0,0.0,0.0,0.0,0.0,0.0,0.0,0.0,0.0,0.0,0.0,0.0,0.0,0.0,0.0,0.0,0.0,0.0,0.0,0.0,0.0,0.0,0.0,0.0,0.0,0.0,0.0,0.0,0.0,0.0,0.0,0.0,0.0,0.0,0.0,0.0,0.0,0.0,0.0,0.0,0.0,0.0,0.0,0.0,0.0,0.0,0.0,0.0,0.0,0.0,0.0,0.0,0.0,0.0,0.0,0.0,0.0,0.0,0.0,0.0,0.0,0.0,0.0,0.0,0.0,0.0,0.0,0.0,0.0,0.0,0.0,0.0,0.0,0.0,0.0,0.0,0.0,0.0,0.0,0.0,0.0,0.0,0.0,0.0,0.0,0.0,0.0,0.0,0.0,0.0,0.0,0.0,0.0,0.0,0.0,0.0,0.0,0.0,0.0,0.0,0.0,0.0,0.0,0.0,0.0,0.0,0.0,0.0,0.0,0.0,0.0,0.0,0.0,0.0,0.0,0.0,0.0,0.0,0.0,0.0,0.0,0.0,0.0,0.0,0.0,0.0,0.0,0.0,0.0,0.0,0.0,0.0,0.0,0.0,0.0,0.0,0.0,0.0,0.0,0.0,0.0,0.0,0.0,0.0,0.0,0.0,0.0,0.0,0.0,0.0,0.0,0.0,0.0,0.0,0.0,0.0,0.0,0.0,0.0,0.0,0.0,0.0,0.0,0.0,0.0,0.0,0.0,0.0,0.0,0.0,0.0,0.0,0.0,0.0,0.0,0.0,0.0,0.0,0.0,0.0,0.0,0.0,0.0,0.0,0.0,0.0,0.0,0.0,0.0,0.0,0.0,0.0,0.0,0.0,0.0,0.0,0.0,0.0,0.0,0.0,0.0,0.0,0.0,0.0,0.0,0.0,0.0,0.0,0.0,0.0,0.0,0.0,0.0,0.0,0.0,0.0,0.0,0.0,0.0,0.0,0.0,0.0,0.0,0.0,0.0,0.0,0.0,0.0,0.0,0.0,0.0,0.0,0.0,0.0,0.0,0.0,0.0,0.0,0.0,0.0,0.0,0.0,0.0,0.0,0.0,0.0,0.0,0.0,0.0,0.0,0.0,0.0,0.0,0.0,0.0,0.0,0.0,0.0,0.0,0.0,0.0,0.0,0.0,0.0,0.0,0.0,0.0,0.0,0.0,0.0,0.0,0.0,0.0,0.0,0.0,0.0,0.0,0.0,0.0,0.0,0.0,0.0,0.0,0.0,0.0,0.0,0.0,0.0,0.0,0.0,0.0,0.0,0.0,0.0,0.0,0.0,0.0,0.0,0.0,0.0,0.0,0.0,0.0,0.0,0.0,0.0,0.0,0.0,0.0,0.0,0.0,0.0,0.0,0.0,0.0,0.0,0.0,0.0,0.0,0.0,0.0,0.0,0.0,0.0,0.0,0.0,0.0,0.0,0.0,0.0,0.0,0.0,0.0,0.0,0.0,0.0,0.0,0.0,0.0,0.0,0.0,0.0,0.0,0.0,0.0,0.0,0.0,0.0,0.0,0.0,0.0,0.0,0.0,0.0,0.0,0.0,0.0,0.0,0.0,0.0,0.0,0.0,0.0,0.0,0.0,0.0,0.0,0.0,0.0,0.0,0.0,0.0,0.0,0.0,0.0,0.0,0.0,0.0,0.0,0.0,0.0,0.0,0.0,0.0,0.0,0.0,0.0,0.0,0.0,0.0,0.0,0.0,0.0,0.0,0.0,0.0,0.0,0.0,0.0,0.0,0.0,0.0,0.0,0.0,0.0,0.0,0.0,0.0,0.0,0.0,0.0,0.0,0.0,0.0,0.0,0.0,0.0,0.0,0.0,0.0,0.0,0.0,0.0,0.0,0.0,0.0,0.0,0.0,0.0,0.0,0.0,0.0,0.0,0.0,0.0,0.0,0.0,0.0,0.0,0.0,0.0,0.0,0.0,0.0,0.0,0.0,0.0,0.0,0.0,0.0,0.0,0.0,0.0,0.0,0.0,0.0,0.0,0.0,0.0,0.0,0.0,0.0,0.0,0.0,0.0,0.0,0.0,0.0,0.0,0.0,0.0,0.0,0.0,0.0,0.0,0.0,0.0,0.0,0.0,0.0,0.0,0.0,0.0,0.0,0.0,0.0,0.0,0.0,0.0,0.0,0.0,0.0,0.0,0.0,0.0,0.0,0.0,0.0,0.0,0.0,0.0,0.0,0.0,0.0,0.0,0.0,0.0,0.0,0.0,0.0,0.0,0.0,0.0,0.0,0.0,0.0,0.0,0.0,0.0,0.0,0.0,0.0,0.0,0.0,0.0,0.0,0.0,0.0,0.0,0.0,0.0,0.0,0.0,0.0,0.0,0.0,0.0,0.0,0.0,0.0,0.0,0.0,0.0,0.0,0.0,0.0,0.0,0.0,0.0,0.0,0.0,0.0,0.0,0.0,0.0,0.0,0.0,0.0,0.0,0.0,0.0,0.0,0.0,0.0,0.0,0.0,0.0,0.0,0.0,0.0,0.0,0.0,0.0,0.0,0.0,0.0,0.0,0.0,0.0,0.0,0.0,0.0,0.0,0.0,0.0,0.0,0.0,0.0,0.0,0.0,0.0,0.0,0.0,0.0,0.0,0.0,0.0,0.0,0.0,0.0,0.0,0.0,0.0,0.0,0.0,0.0,0.0,0.0,0.0,0.0,0.0,0.0,0.0,0.0,0.0,0.0,0.0,0.0,0.0,0.0,0.0,0.0,0.0,0.0,0.0,0.0,0.0,0.0,0.0,0.0,0.0,0.0,0.0,0.0,0.0,0.0,0.0,0.0,0.0,0.0,0.0,0.0,0.0,0.0,0.0,0.0,0.0,0.0,0.0,0.0,0.0,0.0,0.0,0.0,0.0,0.0,0.0,0.0,0.0,0.0,0.0,0.0,0.0,0.0,0.0,0.0,0.0,0.0,0.0,0.0,0.0,0.0,0.0,0.0,0.0,0.0,0.0,0.0,0.0,0.0,0.0,0.0,0.0,0.0,0.0,0.0,0.0,0.0,0.0,0.0,0.0,0.0,0.0,0.0,0.0,0.0,0.0,0.0,0.0,0.0,0.0,0.0,0.0,0.0,0.0,0.0,0.0,0.0,0.0,0.0,0.0,0.0,0.0,0.0,0.0,0.0,0.0,0.0,0.0,0.0,0.0,0.0,0.0,0.0,0.0,0.0,0.0,0.0,0.0,0.0,0.0,0.0,0.0,0.0,0.0,0.0,0.0,0.0,1.5313,0.0,0.0,0.0,0.0,0.0,0.0,0.0,0.0,0.0,0.0,0.0,0.0,0.0,0.0,0.0,0.0,0.0,0.0,0.0,0.0,0.0,0.0,0.0,0.0,0.0,0.0,0.0,0.0,0.0,0.0,0.0,0.0,0.0,0.0,0.0,0.0,0.0,0.0,0.0,0.0,0.0,0.0,0.0,0.0,0.0,0.0,0.0,0.0,0.0,0.0,0.0,0.0,0.0,0.0,0.0,0.0,0.0,0.0,0.0,0.0,0.0,0.0,0.0,0.0,0.0,0.0,0.0,0.0,0.0,0.0,0.0,0.0,0.0,0.0,0.0,0.0,0.0,0.0,0.0,0.0,0.0,0.0,0.0,0.0,0.0,0.0,0.0,0.0,0.0,0.0,0.0,0.0,0.0,0.0,0.0,0.0,0.0,0.0,0.0,0.0,0.0,0.0,0.0,0.0,0.0,0.0,0.0,0.0,0.0,0.0,1.5406,1.5403,1.5375,1.5356,1.5346,0.0,0.0,0.0,0.0,0.0,0.0,0.0,0.0,0.0,0.0,0.0,0.0,0.0,0.0,0.0,0.0,0.0,0.0,0.0,0.0,0.0,0.0,0.0,0.0,0.0,0.0,0.0,0.0,0.0,0.0,0.0,0.0,0.0,0.0,0.0,0.0,0.0,0.0,0.0,0.0,0.0,0.0,0.0,0.0,0.0,0.0,0.0,0.0,0.0,0.0,0.0,0.0,0.0,0.0,0.0,0.0,0.0,0.0,0.0,0.0,0.0,0.0,0.0,0.0,0.0,0.0,0.0,0.0,0.0,0.0,0.0,0.0,0.0,0.0,0.0,0.0,0.0,0.0,0.0,0.0,0.0,0.0,0.0,0.0,0.0,0.0,0.0,0.0,0.0,0.0,0.0,0.0,0.0,0.0,0.0,0.0,0.0,0.0,0.0,0.0,0.0,0.0,0.0,0.0,0.0,0.0,0.0,0.0,0.0,0.0,0.0,0.0,1.5345,1.5357,1.5402,0.0,0.0,0.0,0.0,0.0,0.0,0.0,0.0,0.0,0.0,0.0,0.0,0.0,0.0,0.0,0.0,0.0,0.0,0.0,0.0,0.0,0.0,0.0,0.0,0.0,0.0,0.0,0.0,0.0,0.0,0.0,0.0,0.0,0.0,0.0,0.0,0.0,0.0,0.0,0.0,0.0,0.0,0.0,0.0,0.0,0.0,0.0,0.0,0.0,0.0,0.0,0.0,0.0,0.0,0.0,0.0,0.0,0.0,0.0,0.0,0.0,0.0,0.0,0.0,0.0,0.0,0.0,0.0,0.0,0.0,0.0,0.0,0.0,0.0,0.0,0.0,0.0,0.0,0.0,0.0,0.0,0.0,0.0,0.0,0.0,0.0,0.0,0.0,0.0,0.0,0.0,0.0,0.0,0.0,0.0,0.0,0.0,0.0,0.0,0.0,0.0,0.0,0.0,0.0,0.0,0.0,0.0,0.0,0.0,0.0,1.5368,1.5305,1.5363,0.0,1.542,0.0,0.0,0.0,0.0,0.0,0.0,0.0,0.0,0.0,0.0,0.0,0.0,0.0,0.0,0.0,0.0,0.0,0.0,0.0,0.0,0.0,0.0,0.0,0.0,0.0,0.0,0.0,0.0,0.0,0.0,0.0,0.0,0.0,0.0,0.0,0.0,0.0,0.0,0.0,0.0,0.0,0.0,0.0,0.0,0.0,0.0,0.0,0.0,0.0,0.0,0.0,0.0,0.0,0.0,0.0,0.0,0.0,0.0,0.0,0.0,0.0,0.0,0.0,0.0,0.0,0.0,0.0,0.0,0.0,0.0,0.0,0.0,0.0,0.0,0.0,0.0,0.0,0.0,0.0,0.0,0.0,0.0,0.0,0.0,0.0,0.0,0.0,0.0,0.0,0.0,0.0,0.0,0.0,0.0,0.0,0.0,0.0,0.0,0.0,0.0,0.0,0.0,0.0,0.0,0.0,0.0,0.0,0.0,0.0,0.0,1.5339,1.529,1.536,1.5409,0.0,0.0,0.0,0.0,0.0,0.0,0.0,0.0,0.0,0.0,0.0,0.0,0.0,0.0,0.0,0.0,0.0,0.0,0.0,0.0,0.0,0.0,0.0,0.0,0.0,0.0,0.0,0.0,0.0,0.0,0.0,0.0,0.0,0.0,0.0,0.0,0.0,0.0,0.0,0.0,0.0,0.0,0.0,0.0,0.0,0.0,0.0,0.0,0.0,0.0,0.0,0.0,0.0,0.0,0.0,0.0,0.0,0.0,0.0,0.0,0.0,0.0,0.0,0.0,0.0,0.0,0.0,0.0,0.0,0.0,0.0,0.0,0.0,0.0,0.0,0.0,0.0,0.0,0.0,0.0,0.0,0.0,0.0,0.0,0.0,0.0,0.0,0.0,0.0,0.0,0.0,0.0,0.0,0.0,0.0,0.0,0.0,0.0,0.0,0.0,0.0,0.0,0.0,0.0,0.0,0.0,0.0,0.0,0.0,0.0,1.5287,1.5292,1.5299,1.5366,1.5416,1.541,0.0,0.0,0.0,0.0,0.0,0.0,0.0,0.0,0.0,0.0,0.0,0.0,0.0,0.0,0.0,0.0,0.0,0.0,0.0,0.0,0.0,0.0,0.0,0.0,0.0,0.0,0.0,0.0,0.0,0.0,0.0,0.0,0.0,0.0,0.0,0.0,0.0,0.0,0.0,0.0,0.0,0.0,0.0,0.0,0.0,0.0,0.0,0.0,0.0,0.0,0.0,0.0,0.0,0.0,0.0,0.0,0.0,0.0,0.0,0.0,0.0,0.0,0.0,0.0,0.0,0.0,0.0,0.0,0.0,0.0,0.0,0.0,0.0,0.0,0.0,0.0,0.0,0.0,0.0,0.0,0.0,0.0,0.0,0.0,0.0,0.0,0.0,0.0,0.0,0.0,0.0,0.0,0.0,0.0,0.0,0.0,0.0,0.0,0.0,0.0,0.0,0.0,0.0,0.0,0.0,0.0,0.0,0.0,1.5289,1.5292,1.5299,1.5297,1.5342,1.5417,0.0,0.0,0.0,0.0,0.0,0.0,0.0,0.0,0.0,0.0,0.0,0.0,0.0,0.0,0.0,0.0,0.0,0.0,0.0,0.0,0.0,0.0,0.0,0.0,0.0,0.0,0.0,0.0,0.0,0.0,0.0,0.0,0.0,0.0,0.0,0.0,0.0,0.0,0.0,0.0,0.0,0.0,0.0,0.0,0.0,0.0,0.0,0.0,0.0,0.0,0.0,0.0,0.0,0.0,0.0,0.0,0.0,0.0,0.0,0.0,0.0,0.0,0.0,0.0,0.0,0.0,0.0,0.0,0.0,0.0,0.0,0.0,0.0,0.0,0.0,0.0,0.0,0.0,0.0,0.0,0.0,0.0,0.0,0.0,0.0,0.0,0.0,0.0,0.0,0.0,0.0,0.0,0.0,0.0,0.0,0.0,0.0,0.0,0.0,0.0,0.0,0.0,0.0,0.0,0.0,0.0,0.0,0.0,0.0,1.5291,1.5294,1.5283,1.5285,1.5368,1.5404,0.0,0.0,0.0,0.0,0.0,0.0,0.0,0.0,0.0,0.0,0.0,0.0,0.0,0.0,0.0,0.0,0.0,0.0,0.0,0.0,0.0,0.0,0.0,0.0,0.0,0.0,0.0,0.0,0.0,0.0,0.0,0.0,0.0,0.0,0.0,0.0,0.0,0.0,0.0,0.0,0.0,0.0,0.0,0.0,0.0,0.0,0.0,0.0,0.0,0.0,0.0,0.0,0.0,0.0,0.0,0.0,0.0,0.0,0.0,0.0,0.0,0.0,0.0,0.0,0.0,0.0,0.0,0.0,0.0,0.0,0.0,0.0,0.0,0.0,0.0,0.0,0.0,0.0,0.0,0.0,0.0,0.0,0.0,0.0,0.0,0.0,0.0,0.0,0.0,0.0,0.0,0.0,0.0,0.0,0.0,0.0,0.0,0.0,0.0,0.0,0.0,0.0,0.0,0.0,0.0,0.0,0.0,0.0,0.0,1.5291,0.0,1.5327,1.5285,1.5369,1.542,0.0,0.0,0.0,0.0,0.0,0.0,0.0,0.0,0.0,0.0,0.0,0.0,0.0,0.0,0.0,0.0,0.0,0.0,0.0,0.0,0.0,0.0,0.0,0.0,0.0,0.0,0.0,0.0,0.0,0.0,0.0,0.0,0.0,0.0,0.0,0.0,0.0,0.0,0.0,0.0,0.0,0.0,0.0,0.0,0.0,0.0,0.0,0.0,0.0,0.0,0.0,0.0,0.0,0.0,0.0,0.0,0.0,0.0,0.0,0.0,0.0,0.0,0.0,0.0,0.0,0.0,0.0,0.0,0.0,0.0,0.0,0.0,0.0,0.0,0.0,0.0,0.0,0.0,0.0,0.0,0.0,0.0,0.0,0.0,0.0,0.0,0.0,0.0,0.0,0.0,0.0,0.0,0.0,0.0,0.0,0.0,0.0,0.0,0.0,0.0,0.0,0.0,0.0,0.0,0.0,0.0,0.0,0.0,1.5308,1.5285,1.5352,1.5366,1.5299,1.536,1.5408,0.0,0.0,0.0,0.0,0.0,0.0,0.0,0.0,0.0,0.0,0.0,0.0,0.0,0.0,0.0,0.0,0.0,0.0,0.0,0.0,0.0,0.0,0.0,0.0,0.0,0.0,0.0,0.0,0.0,0.0,0.0,0.0,0.0,0.0,0.0,0.0,0.0,0.0,0.0,0.0,0.0,0.0,0.0,0.0,0.0,0.0,0.0,0.0,0.0,0.0,0.0,0.0,0.0,0.0,0.0,0.0,0.0,0.0,0.0,0.0,0.0,0.0,0.0,0.0,0.0,0.0,0.0,0.0,0.0,0.0,0.0,0.0,0.0,0.0,0.0,0.0,0.0,0.0,0.0,0.0,0.0,0.0,0.0,0.0,0.0,0.0,0.0,0.0,0.0,0.0,0.0,0.0,0.0,0.0,0.0,0.0,0.0,0.0,0.0,0.0,0.0,0.0,0.0,0.0,0.0,0.0,0.0,0.0,0.0,1.5307,1.5326,1.5313,1.5285,1.5366,1.5415,0.0,0.0,0.0,0.0,0.0,0.0,0.0,0.0,0.0,0.0,0.0,0.0,0.0,0.0,0.0,0.0,0.0,0.0,0.0,0.0,0.0,0.0,0.0,0.0,0.0,0.0,0.0,0.0,0.0,0.0,0.0,0.0,0.0,0.0,0.0,0.0,0.0,0.0,0.0,0.0,0.0,0.0,0.0,0.0,0.0,0.0,0.0,0.0,0.0,0.0,0.0,0.0,0.0,0.0,0.0,0.0,0.0,0.0,0.0,0.0,0.0,0.0,0.0,0.0,0.0,0.0,0.0,0.0,0.0,0.0,0.0,0.0,0.0,0.0,0.0,0.0,0.0,0.0,0.0,0.0,0.0,0.0,0.0,0.0,0.0,0.0,0.0,0.0,0.0,0.0,0.0,0.0,0.0,0.0,0.0,0.0,0.0,0.0,0.0,0.0,0.0,0.0,0.0,0.0,0.0,0.0,0.0,0.0,0.0,1.7218,1.6606,1.6428,1.6739,1.6505,1.6199,1.586,0.0,0.0,0.0,0.0,0.0,0.0,0.0,0.0,0.0,0.0,0.0,0.0,0.0,0.0,0.0,0.0,0.0,0.0,0.0,0.0,0.0,0.0,0.0,0.0,0.0,0.0,0.0,0.0,0.0,0.0,0.0,0.0,0.0,0.0,0.0,0.0,0.0,0.0,0.0,0.0,0.0,0.0,0.0,0.0,0.0,0.0,0.0,0.0,0.0,0.0,0.0,0.0,0.0,0.0,0.0,0.0,0.0,0.0,0.0,0.0,0.0,0.0,0.0,0.0,0.0,0.0,0.0,0.0,0.0,0.0,0.0,0.0,0.0,0.0,0.0,0.0,0.0,0.0,0.0,0.0,0.0,0.0,0.0,0.0,0.0,0.0,0.0,0.0,0.0,0.0,0.0,0.0,0.0,0.0,0.0,0.0,0.0,0.0,0.0,0.0,0.0,0.0,0.0,0.0,0.0,0.0,0.0,0.0,2.0629,1.9091,1.8635,1.9301,1.8561,1.7663,0.0,0.0,0.0,0.0,0.0,0.0,0.0,0.0,0.0,0.0,0.0,0.0,0.0,0.0,0.0,0.0,0.0,0.0,0.0,0.0,0.0,0.0,0.0,0.0,0.0,0.0,0.0,0.0,0.0,0.0,0.0,0.0,0.0,0.0,0.0,0.0,0.0,0.0,0.0,0.0,0.0,0.0,0.0,0.0,0.0,0.0,0.0,0.0,0.0,0.0,0.0,0.0,0.0,0.0,0.0,0.0,0.0,0.0,0.0,0.0,0.0,0.0,0.0,0.0,0.0,0.0,0.0,0.0,0.0,0.0,0.0,0.0,0.0,0.0,0.0,0.0,0.0,0.0,0.0,0.0,0.0,0.0,0.0,0.0,0.0,0.0,0.0,0.0,0.0,0.0,0.0,0.0,0.0,0.0,0.0,0.0,0.0,0.0,0.0,0.0,0.0,0.0,0.0,0.0,0.0,0.0,0.0,0.0,0.0,2.2304,2.2589,2.2187,2.1166,2.029,1.916,0.0,0.0,0.0,0.0,0.0,0.0,0.0,0.0,0.0,0.0,0.0,0.0,0.0,0.0,0.0,0.0,0.0,0.0,0.0,0.0,0.0,0.0,0.0,0.0,0.0,0.0,0.0,0.0,0.0,0.0,0.0,0.0,0.0,0.0,0.0,0.0,0.0,0.0,0.0,0.0,0.0,0.0,0.0,0.0,0.0,0.0,0.0,0.0,0.0,0.0,0.0,0.0,0.0,0.0,0.0,0.0,0.0,0.0,0.0,0.0,0.0,0.0,0.0,0.0,0.0,0.0,0.0,0.0,0.0,0.0,0.0,0.0,0.0,0.0,0.0,0.0,0.0,0.0,0.0,0.0,0.0,0.0,0.0,0.0,0.0,0.0,0.0,0.0,0.0,0.0,0.0,0.0,0.0,0.0,0.0,0.0,0.0,0.0,0.0,0.0,0.0,0.0,0.0,0.0,0.0,0.0,0.0,0.0,2.1522,2.4082,2.5328,2.5506,2.455,2.2624,2.0801,0.0,0.0,0.0,0.0,0.0,0.0,0.0,0.0,0.0,0.0,0.0,0.0,0.0,0.0,0.0,0.0,0.0,0.0,0.0,0.0,0.0,0.0,0.0,0.0,0.0,0.0,0.0,0.0,0.0,0.0,0.0,0.0,0.0,0.0,0.0,0.0,0.0,0.0,0.0,0.0,0.0,0.0,0.0,0.0,0.0,0.0,0.0,0.0,0.0,0.0,0.0,0.0,0.0,0.0,0.0,0.0,0.0,0.0,0.0,0.0,0.0,0.0,0.0,0.0,0.0,0.0,0.0,0.0,0.0,0.0,0.0,0.0,0.0,0.0,0.0,0.0,0.0,0.0,0.0,0.0,0.0,0.0,0.0,0.0,0.0,0.0,0.0,0.0,0.0,0.0,0.0,0.0,0.0,0.0,0.0,0.0,0.0,0.0,0.0,0.0,0.0,0.0,0.0,0.0,0.0,0.0,0.0,0.0,2.3024,2.5703,2.7285,2.8205,2.8327,2.5132,2.2499,0.0,0.0,0.0,0.0,0.0,0.0,0.0,0.0,0.0,0.0,0.0,0.0,0.0,0.0,0.0,0.0,0.0,0.0,0.0,0.0,0.0,0.0,0.0,0.0,0.0,0.0,0.0,0.0,0.0,0.0,0.0,0.0,0.0,0.0,0.0,0.0,0.0,0.0,0.0,0.0,0.0,0.0,0.0,0.0,0.0,0.0,0.0,0.0,0.0,0.0,0.0,0.0,0.0,0.0,0.0,0.0,0.0,0.0,0.0,0.0,0.0,0.0,0.0,0.0,0.0,0.0,0.0,0.0,0.0,0.0,0.0,0.0,0.0,0.0,0.0,0.0,0.0,0.0,0.0,0.0,0.0,0.0,0.0,0.0,0.0,0.0,0.0,0.0,0.0,0.0,0.0,0.0,0.0,0.0,0.0,0.0,0.0,0.0,0.0,0.0,0.0,0.0,0.0,0.0,0.0,0.0,0.0,0.0,2.3361,2.6534,2.7693,2.8575,2.9224,2.6543,2.3957,0.0,0.0,0.0,0.0,0.0,0.0,0.0,0.0,0.0,0.0,0.0,0.0,0.0,0.0,0.0,0.0,0.0,0.0,0.0,0.0,0.0,0.0,0.0,0.0,0.0,0.0,0.0,0.0,0.0,0.0,0.0,0.0,0.0,0.0,0.0,0.0,0.0,0.0,0.0,0.0,0.0,0.0,0.0,0.0,0.0,0.0,0.0,0.0,1.8737,0.0,0.0,0.0,0.0,0.0,0.0,0.0,0.0,0.0,0.0,0.0,0.0,0.0,0.0,0.0,0.0,0.0,0.0,0.0,0.0,0.0,0.0,0.0,0.0,0.0,0.0,0.0,0.0,0.0,0.0,0.0,0.0,0.0,0.0,0.0,0.0,0.0,0.0,0.0,0.0,0.0,0.0,0.0,0.0,0.0,0.0,0.0,0.0,0.0,0.0,0.0,0.0,0.0,0.0,0.0,0.0,0.0,0.0,0.0,2.3702,2.6254,2.7207,2.7894,2.8237,2.6541,2.4784,0.0,0.0,0.0,0.0,0.0,0.0,0.0,0.0,0.0,0.0,0.0,0.0,0.0,0.0,0.0,0.0,0.0,0.0,0.0,0.0,0.0,0.0,0.0,0.0,0.0,0.0,0.0,0.0,0.0,0.0,0.0,0.0,0.0,0.0,0.0,0.0,0.0,0.0,0.0,0.0,0.0,0.0,0.0,0.0,0.0,0.0,0.0,0.0,0.0,0.0,0.0,0.0,0.0,0.0,0.0,0.0,0.0,0.0,0.0,0.0,0.0,0.0,0.0,0.0,0.0,0.0,0.0,0.0,0.0,0.0,0.0,0.0,0.0,0.0,0.0,0.0,0.0,0.0,0.0,0.0,0.0,0.0,0.0,0.0,0.0,0.0,0.0,0.0,0.0,0.0,0.0,0.0,0.0,0.0,0.0,0.0,0.0,0.0,0.0,0.0,0.0,0.0,0.0,0.0,0.0,0.0,0.0,2.1932,2.4,2.585,2.6622,2.7069,2.7176,2.617,2.5234,2.4394,0.0,0.0,0.0,0.0,0.0,0.0,0.0,0.0,0.0,0.0,0.0,0.0,0.0,0.0,0.0,0.0,0.0,0.0,0.0,0.0,0.0,0.0,0.0,0.0,0.0,0.0,0.0,0.0,0.0,0.0,0.0,0.0,0.0,0.0,0.0,0.0,0.0,0.0,1.5694,1.6322,0.0,0.0,0.0,0.0,0.0,0.0,0.0,0.0,1.9906,0.0,0.0,0.0,0.0,0.0,0.0,0.0,0.0,0.0,0.0,0.0,0.0,0.0,0.0,0.0,0.0,0.0,0.0,0.0,0.0,0.0,0.0,0.0,0.0,0.0,0.0,0.0,0.0,0.0,0.0,0.0,0.0,0.0,0.0,0.0,0.0,0.0,0.0,0.0,0.0,0.0,0.0,0.0,0.0,0.0,0.0,0.0,0.0,0.0,0.0,0.0,0.0,0.0,0.0,0.0,0.0,2.1365,2.2534,2.4305,2.6713,2.6923,2.7337,2.7997,2.6523,2.5269,2.4372,0.0,0.0,0.0,0.0,0.0,0.0,0.0,0.0,0.0,0.0,0.0,0.0,0.0,0.0,0.0,0.0,0.0,0.0,0.0,0.0,0.0,0.0,0.0,0.0,0.0,0.0,0.0,0.0,0.0,0.0,0.0,0.0,0.0,0.0,0.0,0.0,0.0,0.0,0.0,1.733,1.799,0.0,0.0,0.0,0.0,0.0,0.0,0.0,0.0,2.0525,0.0,0.0,0.0,0.0,0.0,0.0,0.0,0.0,0.0,0.0,0.0,0.0,0.0,0.0,0.0,0.0,0.0,0.0,0.0,0.0,0.0,0.0,0.0,0.0,0.0,0.0,0.0,0.0,0.0,0.0,0.0,0.0,0.0,0.0,0.0,0.0,0.0,0.0,0.0,0.0,0.0,0.0,0.0,0.0,0.0,0.0,0.0,0.0,0.0,0.0,0.0,0.0,0.0,0.0,0.0,2.175,2.3097,2.4599,2.6256,2.6322,2.654,2.6892,2.5681,2.4619,0.0,0.0,0.0,0.0,0.0,0.0,0.0,0.0,0.0,0.0,0.0,0.0,0.0,0.0,0.0,0.0,0.0,0.0,0.0,0.0,0.0,0.0,0.0,0.0,0.0,0.0,0.0,0.0,0.0,0.0,0.0,0.0,0.0,0.0,0.0,0.0,0.0,0.0,0.0,0.0,1.8556,1.93,2.0821,0.0,0.0,0.0,0.0,0.0,0.0,2.0981,2.059,0.0,0.0,0.0,0.0,0.0,0.0,0.0,0.0,0.0,0.0,0.0,0.0,0.0,0.0,0.0,0.0,0.0,0.0,0.0,0.0,0.0,0.0,0.0,0.0,0.0,0.0,0.0,0.0,0.0,0.0,0.0,0.0,0.0,0.0,0.0,0.0,0.0,0.0,0.0,0.0,0.0,0.0,0.0,0.0,0.0,0.0,0.0,0.0,0.0,0.0,0.0,0.0,0.0,0.0,0.0,2.2036,2.3599,2.4891,2.5892,2.5796,2.5857,2.6171,2.4879,2.3873,0.0,0.0,0.0,0.0,0.0,0.0,0.0,0.0,0.0,0.0,0.0,0.0,0.0,0.0,0.0,0.0,0.0,0.0,0.0,0.0,0.0,0.0,0.0,0.0,0.0,0.0,0.0,0.0,0.0,0.0,0.0,0.0,0.0,0.0,0.0,0.0,0.0,0.0,0.0,0.0,0.0,2.0389,2.1416,2.0898,0.0,0.0,0.0,0.0,2.1698,2.1477,0.0,0.0,0.0,0.0,0.0,0.0,0.0,0.0,0.0,0.0,0.0,0.0,0.0,0.0,0.0,0.0,0.0,0.0,0.0,0.0,0.0,0.0,0.0,0.0,0.0,0.0,0.0,0.0,0.0,0.0,0.0,0.0,0.0,0.0,0.0,0.0,0.0,0.0,0.0,0.0,0.0,0.0,0.0,0.0,0.0,0.0,0.0,0.0,0.0,0.0,0.0,0.0,0.0,0.0,0.0,0.0,2.2915,2.3902,2.5184,2.6713,2.6104,2.6441,2.7902,2.4918,2.3555,0.0,0.0,0.0,0.0,0.0,0.0,0.0,0.0,0.0,0.0,0.0,0.0,0.0,0.0,0.0,0.0,0.0,0.0,0.0,0.0,0.0,0.0,0.0,0.0,0.0,0.0,0.0,0.0,0.0,0.0,0.0,0.0,0.0,0.0,0.0,0.0,0.0,0.0,0.0,0.0,0.0,2.0436,2.1598,2.138,2.1191,0.0,0.0,2.2676,2.283,2.3531,0.0,0.0,0.0,0.0,0.0,0.0,0.0,0.0,0.0,0.0,0.0,0.0,0.0,0.0,0.0,0.0,0.0,0.0,0.0,0.0,0.0,0.0,0.0,0.0,0.0,0.0,0.0,0.0,0.0,0.0,0.0,0.0,0.0,0.0,0.0,0.0,0.0,0.0,0.0,0.0,0.0,0.0,0.0,0.0,0.0,0.0,0.0,0.0,0.0,0.0,0.0,0.0,0.0,0.0,0.0,2.2526,2.3782,2.5578,2.6863,2.758,2.7279,2.7495,2.8289,2.5839,2.4479,0.0,0.0,0.0,0.0,0.0,0.0,0.0,0.0,0.0,0.0,0.0,0.0,0.0,0.0,0.0,0.0,0.0,0.0,0.0,0.0,0.0,0.0,0.0,0.0,0.0,0.0,0.0,0.0,0.0,0.0,0.0,0.0,0.0,0.0,0.0,0.0,0.0,0.0,0.0,0.0,0.0,0.0,2.2301,2.2291,0.0,0.0,0.0,2.359,2.3084,0.0,0.0,0.0,0.0,0.0,0.0,0.0,0.0,0.0,0.0,0.0,0.0,0.0,0.0,0.0,0.0,0.0,0.0,0.0,0.0,0.0,0.0,0.0,0.0,0.0,0.0,0.0,0.0,0.0,0.0,0.0,0.0,0.0,0.0,0.0,0.0,0.0,0.0,0.0,0.0,0.0,0.0,0.0,0.0,0.0,0.0,0.0,0.0,0.0,0.0,0.0,0.0,0.0,0.0,0.0,0.0,0.0,2.4344,2.6793,2.8171,2.8366,2.8251,2.839,2.8855,2.6968,0.0,0.0,0.0,0.0,0.0,0.0,0.0,0.0,0.0,0.0,0.0,0.0,0.0,0.0,0.0,0.0,0.0,0.0,0.0,0.0,0.0,0.0,0.0,0.0,0.0,0.0,0.0,1.5215,0.0,0.0,0.0,0.0,0.0,0.0,0.0,0.0,0.0,0.0,0.0,0.0,0.0,0.0,2.2392,2.3225,2.3497,2.3911,0.0,0.0,2.4184,2.3523,2.4329,2.4098,0.0,0.0,0.0,0.0,0.0,0.0,0.0,0.0,0.0,0.0,0.0,0.0,0.0,0.0,0.0,0.0,0.0,0.0,0.0,0.0,0.0,0.0,0.0,0.0,0.0,0.0,0.0,0.0,0.0,0.0,0.0,0.0,0.0,0.0,0.0,0.0,0.0,0.0,0.0,0.0,0.0,0.0,0.0,0.0,0.0,0.0,0.0,0.0,0.0,0.0,0.0,0.0,0.0,0.0,0.0,2.438,2.6743,2.8419,2.9151,2.8495,2.8902,3.0435,2.8108,2.6417,0.0,0.0,0.0,0.0,0.0,0.0,0.0,0.0,0.0,0.0,0.0,0.0,0.0,0.0,0.0,0.0,0.0,0.0,0.0,0.0,0.0,0.0,0.0,0.0,0.0,0.0,0.0,0.0,0.0,0.0,0.0,0.0,0.0,0.0,0.0,0.0,0.0,0.0,0.0,0.0,0.0,2.3457,2.4375,2.5126,2.5681,0.0,0.0,2.4441,2.4561,2.5325,2.4984,2.2338,0.0,0.0,0.0,0.0,0.0,0.0,0.0,0.0,0.0,0.0,0.0,0.0,0.0,0.0,0.0,0.0,0.0,0.0,0.0,0.0,0.0,0.0,0.0,0.0,0.0,0.0,0.0,0.0,0.0,0.0,0.0,0.0,0.0,0.0,0.0,0.0,0.0,0.0,0.0,0.0,0.0,0.0,0.0,0.0,0.0,0.0,0.0,0.0,0.0,0.0,0.0,0.0,0.0,2.503,2.5088,2.801,2.9699,3.0008,2.972,2.9908,3.0621,2.9154,2.7733,0.0,0.0,0.0,0.0,0.0,0.0,0.0,0.0,0.0,0.0,0.0,0.0,0.0,0.0,0.0,0.0,0.0,0.0,0.0,0.0,0.0,0.0,0.0,0.0,0.0,0.0,0.0,0.0,1.9373,2.0098,2.0617,0.0,0.0,0.0,0.0,0.0,0.0,0.0,0.0,0.0,0.0,2.441,2.5392,2.5752,0.0,0.0,2.5461,2.5291,2.4891,2.5491,2.5246,2.3053,2.2348,0.0,0.0,0.0,0.0,0.0,0.0,0.0,0.0,0.0,0.0,0.0,0.0,0.0,0.0,0.0,0.0,0.0,0.0,0.0,0.0,0.0,0.0,0.0,0.0,0.0,0.0,0.0,0.0,0.0,0.0,0.0,0.0,0.0,0.0,0.0,0.0,0.0,0.0,0.0,0.0,0.0,0.0,0.0,0.0,0.0,0.0,0.0,0.0,0.0,0.0,0.0,0.0,2.5518,2.5518,2.8782,3.0472,3.0458,3.0491,3.052,3.057,2.9967,2.8861,0.0,0.0,0.0,0.0,0.0,0.0,0.0,0.0,0.0,0.0,0.0,0.0,0.0,0.0,0.0,0.0,0.0,0.0,0.0,0.0,0.0,0.0,0.0,0.0,0.0,0.0,0.0,0.0,2.0661,2.1299,2.1214,0.0,0.0,0.0,0.0,0.0,0.0,0.0,0.0,0.0,0.0,2.5713,2.6384,2.6456,2.6178,2.5539,2.5542,2.5433,2.4929,2.5242,2.5091,2.3729,0.0,0.0,0.0,0.0,0.0,0.0,0.0,0.0,0.0,0.0,0.0,0.0,0.0,0.0,0.0,0.0,0.0,0.0,0.0,0.0,0.0,0.0,0.0,0.0,0.0,0.0,0.0,0.0,0.0,0.0,1.7684,0.0,0.0,0.0,0.0,0.0,0.0,0.0,0.0,0.0,0.0,0.0,0.0,0.0,0.0,0.0,0.0,0.0,0.0,0.0,0.0,0.0,0.0,2.5518,2.5553,2.8737,3.0385,3.039,3.0472,3.0504,3.049,3.0477,2.9674,2.7997,0.0,0.0,0.0,0.0,0.0,0.0,0.0,0.0,0.0,0.0,0.0,0.0,0.0,0.0,0.0,0.0,0.0,0.0,0.0,0.0,0.0,0.0,0.0,0.0,0.0,0.0,1.8736,2.0178,2.1208,0.0,0.0,0.0,0.0,0.0,0.0,0.0,0.0,0.0,0.0,2.5717,2.7399,2.7333,2.7357,2.7015,2.627,2.5261,2.4578,2.4731,2.4626,2.4518,0.0,0.0,0.0,0.0,0.0,0.0,0.0,0.0,0.0,0.0,0.0,0.0,0.0,0.0,0.0,0.0,0.0,0.0,0.0,0.0,0.0,0.0,0.0,0.0,0.0,0.0,0.0,1.9767,2.01,0.0,0.0,0.0,0.0,0.0,0.0,0.0,0.0,0.0,0.0,0.0,2.5085,2.5088,0.0,0.0,0.0,0.0,0.0,0.0,0.0,0.0,0.0,0.0,0.0,0.0,2.5793,2.6463,2.9037,3.0404,3.0404,3.0427,3.0419,3.0419,3.0417,2.9661,2.7985,0.0,0.0,0.0,0.0,0.0,0.0,0.0,0.0,0.0,0.0,0.0,0.0,0.0,0.0,0.0,0.0,0.0,0.0,0.0,0.0,0.0,0.0,0.0,0.0,0.0,1.9806,0.0,0.0,0.0,0.0,0.0,0.0,0.0,0.0,0.0,0.0,0.0,2.4053,2.5073,2.5902,2.648,2.6591,2.6584,2.6472,0.0,0.0,0.0,0.0,0.0,0.0,0.0,0.0,0.0,0.0,0.0,0.0,0.0,0.0,2.2533,2.1999,2.2475,2.3042,2.3318,0.0,0.0,0.0,0.0,0.0,0.0,0.0,0.0,0.0,0.0,0.0,0.0,0.0,0.0,2.2216,0.0,2.124,0.0,0.0,0.0,0.0,0.0,0.0,0.0,0.0,2.5967,2.6541,2.6796,2.6796,2.68,0.0,2.623,2.5111,0.0,0.0,0.0,0.0,0.0,0.0,0.0,0.0,2.623,2.6881,2.9177,3.0404,3.0404,3.0404,3.0404,3.0404,3.0404,2.9877,2.88,2.7739,2.6411,0.0,0.0,0.0,0.0,0.0,0.0,0.0,0.0,0.0,0.0,0.0,0.0,0.0,0.0,0.0,0.0,0.0,0.0,0.0,0.0,0.0,0.0,0.0,2.1254,0.0,0.0,0.0,0.0,0.0,0.0,0.0,0.0,0.0,2.2387,2.3955,2.5359,2.6051,2.6612,2.6741,2.6178,0.0,0.0,0.0,0.0,0.0,0.0,0.0,2.481,2.5097,2.4875,2.4885,2.5574,2.5525,2.5391,2.5399,0.0,0.0,2.4097,2.4428,2.4971,2.5204,2.5278,2.5278,2.526,2.526,2.5278,0.0,0.0,0.0,0.0,0.0,0.0,0.0,0.0,2.4759,2.4759,0.0,2.399,0.0,0.0,0.0,0.0,0.0,2.5731,0.0,0.0,2.9088,2.9935,2.9212,2.9178,2.9202,2.9129,2.7664,2.693,2.6861,2.6045,0.0,0.0,0.0,0.0,0.0,0.0,2.6826,2.6977,2.9215,3.0404,3.0404,3.0404,3.0404,3.0404,3.0404,3.0385,3.0333,2.8828,2.7936,2.7807,2.4084,0.0,0.0,0.0,0.0,0.0,0.0,0.0,0.0,0.0,0.0,0.0,0.0,0.0,0.0,0.0,0.0,0.0,0.0,0.0,0.0,2.2692,0.0,0.0,0.0,0.0,0.0,0.0,0.0,0.0,0.0,0.0,2.2767,2.4577,2.6126,2.6195,0.0,0.0,0.0,0.0,2.666,2.4843,2.445,2.4377,2.4337,2.5179,2.613,2.6935,0.0,0.0,2.8485,2.7665,2.7044,2.7018,2.7846,2.7999,2.6285,2.6008,2.6236,2.686,2.701,2.702,2.701,2.7037,2.7018,2.6301,0.0,0.0,0.0,0.0,2.4568,2.503,2.5751,2.5175,2.5241,2.5687,2.4894,0.0,0.0,0.0,0.0,0.0,0.0,2.6976,2.8082,2.8893,2.9442,2.9767,2.9864,2.992,2.9901,2.9539,2.9384,2.9354,2.9137,2.7275,2.3964,0.0,0.0,0.0,0.0,2.7311,2.8513,2.9753,3.0404,3.0404,3.0404,3.0404,3.0404,3.0404,3.0404,3.0404,2.994,2.9138,2.7934,2.6773,0.0,0.0,0.0,0.0,0.0,0.0,0.0,0.0,0.0,0.0,0.0,0.0,0.0,0.0,0.0,0.0,0.0,0.0,0.0,2.3453,2.4745,2.4858,0.0,0.0,0.0,0.0,0.0,0.0,0.0,0.0,0.0,2.5313,2.571,2.6106,0.0,0.0,2.5606,2.4923,2.5724,2.6431,2.6524,2.6473,0.0,2.735,2.7038,2.6849,2.7193,2.8081,2.8753,2.872,2.9088,2.939,2.9365,2.964,2.9679,2.9232,2.8929,2.8863,2.9068,2.9106,2.9125,2.9106,2.9106,2.9087,2.7754,2.7201,2.604,2.585,2.6351,2.6711,2.7309,2.8031,2.7551,2.7587,2.7907,2.6819,2.6299,2.6246,2.6,0.0,0.0,0.0,2.792,2.9162,2.9257,2.9546,2.9981,3.0092,3.0109,3.0128,3.0208,3.0235,3.0228,2.9928,2.853,2.6163,0.0,0.0,2.6081,2.7156,2.8195,2.9187,2.9998,3.0404,3.0404,3.0404,3.0404,3.0404,3.0404,3.0404,3.0404,3.0404,2.9943,2.8937,2.824,2.7011,0.0,0.0,0.0,0.0,0.0,0.0,0.0,0.0,0.0,0.0,0.0,1.8941,1.855,0.0,0.0,0.0,2.38,2.4648,2.553,2.5991,0.0,0.0,0.0,0.0,0.0,0.0,0.0,2.4226,2.5882,2.7082,2.7026,2.6888,2.6886,2.7198,2.6724,2.6147,2.5651,0.0,2.7176,2.7369,2.7339,2.7513,2.8099,2.7971,2.7938,2.8453,2.9026,2.9417,2.9462,2.9991,3.0379,3.0404,3.0404,3.0404,3.0404,3.0267,3.0168,3.0168,3.0168,3.0168,3.0148,3.0148,3.0148,2.8592,2.9454,2.897,2.8719,2.8738,2.9577,3.0302,3.0855,3.0845,3.0827,3.0658,2.9211,2.8577,2.8537,2.793,0.0,2.8602,2.878,2.9224,2.9876,2.9953,2.9988,2.9969,2.9977,2.9985,3.0004,2.9992,3.0,2.9962,2.9263,2.889,2.8923,2.9149,2.847,2.7059,2.8339,2.9096,2.9187,2.9905,3.0315,3.0373,3.0398,3.0404,3.0404,3.0404,3.0404,3.0404,3.0404,3.0404,3.0352,2.8941,2.8051,2.7791,0.0,0.0,0.0,0.0,0.0,0.0,0.0,0.0,0.0,0.0,0.0,0.0,0.0,0.0,0.0,2.634,0.0,2.8322,2.6909,0.0,0.0,0.0,2.4843,2.563,2.6412,2.691,2.6902,0.0,0.0,2.8123,2.799,2.8226,2.9033,2.8994,2.8541,2.7561,2.8162,2.8507,2.7687,2.7566,2.7578,2.7877,2.8434,2.9212,3.0029,3.0404,3.0334,3.0334,3.0359,3.0404,3.0404,3.0404,3.0404,3.0404,3.0379,3.0404,3.0392,3.0398,3.0398,3.0373,3.0367,3.0386,3.0893,3.1177,3.1067,3.0623,3.0102,3.094,3.1052,3.061,3.0591,3.03,2.9812,2.9323,2.9175,2.927,2.9083,2.9166,2.9419,2.9454,2.9575,2.9747,2.9774,2.9773,2.9782,2.9885,2.9934,2.9943,2.9973,3.0,3.0,2.9798,2.9761,2.9863,2.9928,2.9139,2.7568,2.7863,2.8378,2.8955,2.9155,2.9589,3.0228,3.0349,3.0404,3.0404,3.0404,3.0404,3.0404,3.0404,3.0404,3.0385,3.0015,2.9216,2.7954,2.6398,0.0,0.0,0.0,0.0,0.0,0.0,0.0,0.0,0.0,2.1041,2.0801,0.0,2.4397,0.0,2.7534,2.9206,3.009,2.9806,0.0,0.0,2.8408,2.7962,2.7549,2.826,2.8489,2.7804,2.8506,2.9059,2.9078,2.9033,2.9342,3.0139,2.8962,2.7857,2.7542,2.8326,2.8862,2.8611,2.911,2.9673,2.9602,2.9851,3.0093,3.034,3.0404,3.0404,3.0404,3.0404,3.0404,3.0404,3.0404,3.0404,3.0404,3.0404,3.0404,3.0404,3.0404,3.0404,3.0404,3.0404,3.0404,3.1464,3.1369,3.2046,3.1933,3.1378,3.205,3.2057,3.1611,3.1611,3.1396,3.1052,3.0597,3.0458,3.053,3.053,3.058,3.0642,3.0642,3.0632,3.0623,3.0642,3.0436,3.0063,3.0123,3.0011,2.9728,2.977,2.9792,2.9864,2.9864,2.9905,2.9977,2.9977,2.9342,2.8176,2.8651,2.9122,2.9519,2.9526,2.9697,3.0102,3.026,3.0323,3.0348,2.9976,2.9813,2.9899,2.9552,2.934,2.934,2.9317,2.8908,2.7972,2.6832,2.5379,0.0,0.0,0.0,0.0,0.0,0.0,0.0,0.0,0.0,0.0,0.0,2.6215,2.672,2.843,2.9549,2.962,2.9983,3.0028,2.9557,3.0156,3.0274,2.9426,3.0123,3.0297,2.9393,2.9743,3.0065,3.0065,3.0065,3.0222,3.0714,2.9762,2.9005,2.8949,2.9376,2.968,2.9605,3.0062,3.0439,3.0416,3.0404,3.0404,3.0404,3.0404,3.0404,3.0404,3.0404,3.0404,3.0404,3.0404,3.0404,3.0404,3.0404,3.0404,3.0404,3.0404,3.0404,3.0404,3.0404,3.0404,3.1474,3.1296,3.2606,3.2994,3.2732,3.3119,3.3173,3.2956,3.298,3.2906,3.2787,3.2089,3.1785,3.1774,3.1785,3.1785,3.1797,3.1797,3.1797,3.1797,3.1797,3.1388,3.0683,3.0654,3.031,2.964,2.9622,2.9634,2.9645,2.9655,2.9655,2.9673,2.9664,2.9362,2.8812,2.9791,3.0253,3.0094,3.019,3.0176,3.0,3.0148,3.0241,3.0278,2.9567,2.9226,2.9284,2.8558,2.8113,2.7997,2.7988,2.8046,2.8113,2.6823,2.6,0.0,2.45,0.0,0.0,0.0,0.0,0.0,0.0,0.0,0.0,2.7704,2.8247,2.8359,2.9139,2.9452,2.8906,2.9647,3.0165,3.0222,3.1396,3.1948,3.1191,3.166,3.1738,3.0996,3.0918,3.0918,3.0879,3.0918,3.0918,3.0898,3.0714,3.0528,3.0585,3.0531,3.0487,3.0532,3.0524,3.0481,3.0444,3.0425,3.0452,3.055,3.0635,3.0615,3.0808,3.0808,3.0769,3.0769,3.0846,3.0788,3.0731,3.0769,3.0769,3.0846,3.0865,3.075,3.0481,3.0404,3.0404,3.3127,3.3658,3.3946,3.4341,3.4821,3.4916,3.4084,3.2678,3.2791,3.2465,3.1848,3.1707,3.1639,3.1639,3.1639,3.1716,3.1797,3.1797,3.1797,3.1797,3.1797,3.1704,3.1574,3.1537,3.1103,3.0344,3.0326,2.9975,2.9384,2.9384,2.9425,2.9533,2.9542,2.9532,2.9506,0.0,0.0,0.0,2.9695,3.0042,3.0011,3.0228,3.0369,3.0381,3.0292,0.0,2.9346,2.9134,2.8728,2.8036,2.7982,0.0,0.0,0.0,0.0,0.0,0.0,0.0,0.0,0.0,0.0,0.0,2.8222,2.8025,2.7039,2.7686,2.8502,2.9204,3.0065,3.1065,3.2302,3.3201,3.3729,3.371,3.3379,3.2832,3.2051,3.1504,3.1055,3.0937,3.0918,3.0918,3.0918,3.0918,3.0918,3.0957,3.0879,3.0838,3.0898,3.0751,3.0583,3.0565,3.0601,3.0567,3.0485,3.0544,3.0873,3.1234,3.1468,3.1698,3.2205,3.2352,3.2391,3.2352,3.2429,3.2391,3.2391,3.2429,3.2314,3.2391,3.2391,3.2025,3.0712,3.0404,3.0404,3.4124,0.0,3.4888,3.51,0.0,3.5613,3.5098,3.3989,3.3771,3.355,3.3269,3.2863,3.2888,3.3256,3.2926,3.2822,3.2883,3.2954,3.2961,3.2883,3.2901,3.2643,3.2182,3.2182,3.1794,3.1057,3.1057,3.0869,3.0545,3.0527,3.0581,3.0646,3.0636,3.0677,3.073,3.0789,3.0518,2.9897,3.0379,3.0764,3.1031,3.1221,3.1398,3.1456,3.0694,0.0,0.0,0.0,0.0,0.0,0.0,0.0,0.0,2.9039,0.0,2.8646,2.9036,2.9281,2.9252,2.9259,2.983,3.1109,3.1263,3.0764,2.955,3.0268,3.0949,3.1384,3.1833,3.2459,3.3301,3.3789,3.3887,3.3516,3.3418,3.2949,3.1816,3.1562,3.1348,3.0976,3.0918,3.0918,3.0918,3.1309,3.1523,3.1562,3.1894,3.209,3.2031,3.1319,3.0746,3.0681,3.1037,3.1219,3.1238,3.1596,3.1914,3.2332,3.2385,3.253,3.2919,3.2952,3.2891,3.2891,3.2891,3.2891,3.2891,3.2891,3.2904,3.2947,3.2916,3.271,3.1865,3.1682,3.1635,3.4702,3.4896,3.5547,3.5644,3.5403,3.6059,3.6025,3.5499,0.0,0.0,0.0,3.444,3.4527,3.5113,3.4618,3.4328,3.4194,3.4277,3.4222,3.3972,3.3959,3.3545,3.2821,3.2821,3.2463,3.1789,3.1783,3.1757,3.174,3.174,3.1721,3.174,3.1721,3.1751,3.1755,3.1774,3.1672,3.1459,3.1433,3.1663,3.2096,3.2241,3.2421,3.2581,3.1271,3.0944,3.1688,2.9748,2.8907,2.9443,2.8836,2.8507,2.8665,2.9468,2.9956,2.9969,3.0747,3.1773,3.2947,3.2392,3.2701,3.4284,3.3938,3.327,3.2394,3.2966,3.3377,3.3377,3.3515,3.3613,3.3632,3.3652,3.3379,3.2715,3.2969,3.2656,3.1582,3.1797,3.1934,3.1445,3.1426,3.1348,3.1445,3.1992,3.2422,3.248,3.2891,3.3379,3.3242,3.2246,3.1443,3.141,3.1854,3.2172,3.223,3.2644,3.3216,3.3365,3.332,3.3326,3.348,3.3455,3.3417,3.355,3.3412,3.3475,3.3431,3.3525,3.3404,3.3473,3.3445,3.3429,3.3513,3.347,3.3292,3.4774,3.5421,3.57,3.6146,3.6732,3.6837,3.6566,3.6043,3.5517,3.5371,3.5494,3.5529,3.5578,3.5703,3.5882,3.556,3.4885,3.4876,3.4508,3.3834,3.3834,3.3765,3.3642,3.3623,3.3201,3.2498,3.2474,3.2107,3.152,3.1464,3.1464,3.1483,3.1446,3.1532,3.1628,3.1693,3.2052,3.2705,3.2239,3.2012,3.2103,3.2351,3.2485,3.2499,3.2401,3.2075,3.1632,3.1272,3.0844,3.0351,3.0207,3.0462,3.116,3.197,3.2449,3.2441,3.3217,3.3487,3.2986,3.2858,3.329,3.4303,3.4966,3.4726,3.3308,3.3239,3.3319,3.334,3.4064,3.4522,3.4524,3.449,3.4414,3.4219,3.3144,3.2519,3.2851,3.2519,3.2441,3.2871,3.3047,3.2969,3.291,3.3105,3.3242,3.3262,3.3516,3.3476,3.3516,3.3223,3.3066,3.3027,3.3085,3.3157,3.3156,3.3168,3.3657,3.4227,3.4302,3.4473,3.5028,3.508,3.508,3.5251,3.51,3.5162,3.5185,3.5298,3.515,3.5115,3.5084,3.5138,3.5148,3.5141,3.4764,3.5874,3.6306,3.6404,3.6673,3.6989,3.6989,3.7101,3.72,3.6978,3.6577,3.6113,3.5748,3.5818,3.6194,3.6038,3.579,3.5556,3.5628,3.5515,3.5275,3.5271,3.4977,3.4472,3.4454,3.4032,3.328,3.3256,3.3073,3.2737,3.2706,3.2706,3.2706,3.2706,3.2744,3.2777,3.2821,3.3049,3.34,3.2906,3.2854,3.3213,3.3368,3.3504,3.3639,3.3287,3.3271,3.3585,3.269,3.2302,3.2496,3.2058,3.1969,3.2331,3.3179,3.3628,3.3628,3.441,3.4718,3.4346,3.4353,3.4557,3.5032,3.5408,3.5355,3.4629,3.4619,3.4681,3.4731,3.5119,3.536,3.5342,3.4921,3.4653,3.4633,3.3519,3.2972,3.3225,3.305,3.2956,3.3315,3.3369,3.337,3.3379,3.3807,3.41,3.4141,3.4453,3.4785,3.4785,3.4785,3.4434,3.3652,3.3789,3.4062,3.4097,3.4503,3.4887,3.5287,3.5295,3.5429,3.5758,3.5761,3.571,3.5703,3.5707,3.5703,3.5707,3.5703,3.5713,3.5749,3.5713,3.5723,3.5772,3.5801,3.532,3.6687,3.6834,3.695,3.7095,3.7253,3.7233,3.7654,3.8357,3.8374,3.7929,3.7166,3.6451,3.6378,3.6699,3.6277,3.6109,3.6152,3.6255,3.6271,3.6266,3.6305,3.5913,3.5245,3.5251,3.4949,3.4412,3.4357,3.4357,3.4339,3.4174,3.3972,3.3844,3.3972,3.399,3.3807,3.3807,3.3807,3.3784,3.3426,3.353,3.4123,3.4166,3.4316,3.4456,3.3934,3.411,3.5001,3.387,3.3567,3.4344,3.3794,3.3461,3.35,3.4122,3.4487,3.4545,3.5122,3.55,3.55,3.55,3.5527,3.5566,3.5573,3.5584,3.5596,3.57,3.5772,3.5819,3.5789,3.5816,3.5719,3.5086,3.4579,3.4542,3.3797,3.3388,3.3544,3.3583,3.3694,3.3856,3.3901,3.3947,3.4072,3.456,3.495,3.5095,3.5586,3.5976,3.6016,3.6016,3.5371,3.4609,3.457,3.4941,3.5039,3.5468,3.5877,3.6016,3.5926,3.5872,3.591,3.5828,3.5766,3.579,3.5785,3.579,3.5763,3.5763,3.5795,3.5849,3.5804,3.5814,3.589,3.5886,3.5705,3.6377,3.6444,3.6881,3.7411,3.7988,3.8006,3.8462,3.9126,3.9178,3.9147,3.8936,3.8523,3.791,3.7414,3.7488,3.7234,3.6638,3.6583,3.6276,3.5732,3.5758,3.5815,3.5796,3.604,3.6138,3.6009,3.5958,3.5885,3.5881,3.5224,3.4546,3.3972,3.4527,3.4527,3.3917,3.3825,3.3807,3.3807,3.3742,3.3839,3.4005,3.4136,3.4209,3.4227,3.4277,3.4405,3.4675,3.4632,3.4773,3.517,3.5097,3.5112,3.5217,3.5327,3.5365,3.5365,3.5462,3.55,3.5519,3.55,3.5519,3.5507,3.5533,3.5528,3.5578,3.5608,3.561,3.5654,3.5693,3.5732,3.565,3.5014,3.461,3.4572,3.3868,3.3518,3.4221,3.4384,3.4691,3.5505,3.538,3.5593,3.5481,3.5602,3.5729,3.5711,3.5838,3.6016,3.6016,3.6016,3.5976,3.5723,3.584,3.582,3.584,3.5918,3.6016,3.6016,3.6016,3.5996,3.5976,3.5976,3.5957,3.5918,3.5957,3.5957,3.5957,3.5976,3.5976,3.5957,3.5957,3.5973,3.5985,3.595,3.5782,3.7475,3.7646,3.7968,3.8391,3.8775,3.8813,3.9269,3.9972,3.9989,4.0007,3.9993,3.9802,3.9262,3.8538,3.866,3.8601,3.8432,3.8451,3.8346,3.8133,3.7878,3.746,3.6991,3.6602,3.6329,3.603,3.6009,3.6102,3.6215,3.5954,3.5587,3.5275,3.5133,3.4839,3.4491,3.4045,3.3807,3.3807,3.3807,3.3834,3.3881,3.3934,3.4011,3.4068,3.4228,3.4379,3.4591,3.4733,3.4889,3.5105,3.5226,3.5327,3.538,3.5446,3.55,3.5519,3.5942,3.6449,3.6949,3.65,3.6192,3.6192,3.5769,3.5514,3.5547,3.5528,3.5541,3.554,3.5615,3.5635,3.5621,3.5335,3.5136,3.5097,3.4802,3.4744,3.5078,3.5155,3.5338,3.5683,3.5702,3.5698,3.5768,3.5819,3.588,3.5944,3.5964,3.5991,3.5992,3.6015,3.6016,3.6016,3.6016,3.6016,3.6016,3.6016,3.6016,3.6016,3.6016,3.6016,3.6016,3.6016,3.5996,3.6016,3.6016,3.6016,3.5996,3.6016,3.6016,3.6016,3.6016,3.6015,3.6014,3.5972,3.5962,3.8288,3.8447,3.8759,3.9133,3.9515,3.9578,4.0077,4.0744,4.0801,4.0779,4.0818,4.0801,4.0481,3.9937,3.9494,3.9429,3.9578,3.9598,3.968,3.9825,3.9384,3.8922,3.8403,3.763,3.7101,3.6808,3.6522,3.6513,3.6702,3.6808,3.6732,3.6457,3.5948,3.5573,3.5298,3.4541,3.4119,3.4119,3.3935,3.3807,3.3807,3.3807,3.3842,3.3947,3.4074,3.4262,3.4483,3.463,3.4812,3.4944,3.5134,3.5351,3.5634,3.553,3.5561,3.5839,3.6346,3.7077,3.793,3.7199,3.6712,3.6635,3.5942,3.55,3.55,3.55,3.55,3.5494,3.556,3.5575,3.5575,3.5556,3.5575,3.5575,3.5556,3.5575,3.5537,3.5575,3.5571,3.5654,3.5634,3.5614,3.5655,3.5728,3.5804,3.5847,3.5884,3.5931,3.5955,3.5965,3.5957,3.5973,3.5976,3.5996,3.5996,3.6016,3.6016,3.6016,3.6016,3.6016,3.6016,3.6016,3.6016,3.6016,3.6016,3.6016,3.6016,3.6016,3.6016,3.6016,3.6016,3.6016,3.6016,3.5996,3.5996,3.8213,3.8334,3.8728,3.9447,4.0087,4.0377,4.0867,4.1481,4.1516,4.1534,4.1499,4.1499,4.1516,4.1341,4.0024,3.934,3.9378,3.9469,3.9508,3.9532,3.9618,3.9825,4.002,3.9265,3.8995,3.8985,3.8181,3.7789,3.7825,3.8062,3.7782,3.7073,3.7229,3.6978,3.6211,3.5334,3.4917,3.4894,3.4206,3.3875,3.3894,3.3894,3.3907,3.3989,3.3965,3.4117,3.4282,3.4446,3.4666,3.4927,3.5022,3.5454,3.6331,3.5795,3.5795,3.6524,3.6738,3.7154,3.7853,3.7334,3.6808,3.6654,3.6058,3.5519,3.55,3.55,3.55,3.5481,3.552,3.5508,3.5508,3.5502,3.5515,3.5508,3.5501,3.552,3.5501,3.5515,3.5554,3.5591,3.559,3.5595,3.5618,3.567,3.5691,3.5717,3.5721,3.5755,3.5887,3.5916,3.5912,3.5905,3.5911,3.5918,3.5996,3.6016,3.6016,3.6016,3.6016,3.6016,3.6016,3.6016,3.6016,3.6016,3.6016,3.6016,3.6016,3.6016,3.6016,3.6016,3.6016,3.6016,3.6016,3.6016,3.6016,3.9793,4.0383,4.0552,4.097,4.1476,4.1609,4.1635,4.1604,4.1604,4.1604,4.1604,4.1604,4.1604,4.1569,4.1042,4.0779,4.0779,4.0779,4.0757,4.0709,4.0398,4.0294,4.0288,3.9582,3.9467,3.9824,3.9535,3.9535,3.99,4.0035,3.9664,3.8878,3.8441,3.7863,3.6978,3.5697,3.5261,3.5642,3.4586,3.4431,3.5348,3.5114,3.5077,3.5454,3.4616,3.4402,3.5027,3.5261,3.5656,3.6282,3.6377,3.6622,3.6967,3.696,3.7071,3.7512,3.8046,3.8738,3.9361,3.8815,3.8104,3.7546,3.6757,3.6038,3.5615,3.55,3.55,3.55,3.55,3.55,3.55,3.55,3.55,3.55,3.55,3.55,3.55,3.55,3.5514,3.5534,3.5547,3.5554,3.5596,3.5618,3.5632,3.5654,3.5659,3.5722,3.5807,3.5839,3.5844,3.5886,3.5894,3.59,3.5918,3.5976,3.6016,3.6016,3.6016,3.5996,3.5996,3.5996,3.5996,3.5996,3.5996,3.5996,3.5996,3.6016,3.6016,3.6016,3.6016,3.6016,3.6016,3.6016,3.6016,4.0637,4.1359,4.1306,4.141,4.1691,4.1898,4.1766,4.1493,4.1542,4.1745,4.1955,4.199,4.199,4.199,4.199,4.1815,4.1622,4.1587,4.1604,4.1552,4.1078,4.0897,4.0859,4.0106,3.9946,4.0295,4.0157,4.0437,4.1101,4.1055,4.0815,4.0467,3.9562,3.8817,3.8083,3.6633,3.6138,3.635,3.5391,3.538,3.6301,3.6009,3.5993,3.634,3.5534,3.5268,3.5863,3.6133,3.6517,3.7051,3.7208,3.7273,3.7337,3.787,3.8216,3.8373,3.8935,3.965,4.0265,3.9765,3.9027,3.845,3.7642,3.6853,3.6353,3.6058,3.5904,3.5865,3.5615,3.5558,3.5769,3.5654,3.55,3.55,3.55,3.55,3.55,3.55,3.55,3.5507,3.5507,3.5515,3.5547,3.556,3.5578,3.5587,3.5634,3.5689,3.5783,3.5806,3.5804,3.585,3.5872,3.5869,3.5877,3.5919,3.5947,3.5955,3.5962,3.5971,3.5955,3.5974,3.5974,3.5973,3.5973,3.5974,3.5994,3.6014,3.6016,3.6016,3.6016,3.6016,3.6016,3.6016,3.6016,4.0527,4.1162,4.0728,4.0664,4.082,4.1179,4.1238,4.1272,4.1493,4.1911,4.2424,4.2693,4.2652,4.2745,4.274,4.2412,4.192,4.1868,4.1745,4.1604,4.1604,4.1723,4.1835,4.0947,4.0679,4.0978,4.0281,4.0511,4.1504,4.1251,4.1265,4.1448,4.0482,3.9863,3.9845,3.819,3.7419,3.7345,3.6658,3.6348,3.6496,3.6496,3.6565,3.6822,3.6781,3.6725,3.6749,3.6913,3.715,3.7318,3.7359,3.7283,3.7564,3.8385,3.8988,3.8965,3.9207,3.9719,4.0304,3.9823,3.9419,3.9073,3.845,3.793,3.7623,3.7019,3.6577,3.6462,3.5962,3.5769,3.625,3.5904,3.5538,3.55,3.5558,3.55,3.55,3.55,3.55,3.55,3.55,3.55,3.5507,3.5494,3.5528,3.5579,3.559,3.5618,3.5742,3.5756,3.5778,3.5795,3.5795,3.5799,3.5822,3.5872,3.588,3.5897,3.5912,3.5907,3.5917,3.5919,3.5921,3.5919,3.5938,3.5939,3.5963,3.5985,3.597,3.5976,3.5996,3.6016,3.6016,3.6016,3.6016,4.0337,4.1402,4.1118,4.1095,4.1271,4.1427,4.1378,4.1203,4.13,4.1571,4.2021,4.257,4.2775,4.2938,4.3289,4.3412,4.3184,4.3149,4.2622,4.185,4.2184,4.2158,4.1754,4.1402,4.1538,4.2,4.2039,4.2249,4.2668,4.2627,4.2515,4.202,4.1209,4.0763,4.0616,3.8686,3.7951,3.8833,3.736,3.6948,3.7978,3.7733,3.7777,3.8311,3.8557,3.8409,3.7779,3.7841,3.8213,3.8749,3.8843,3.8632,3.8412,3.9115,3.9452,3.9131,3.9725,4.0189,4.0419,4.0285,3.9842,3.9419,3.9034,3.8611,3.8027,3.7269,3.6808,3.6673,3.5981,3.5654,3.575,3.5673,3.5808,3.6269,3.5827,3.55,3.55,3.55,3.55,3.55,3.55,3.55,3.55,3.55,3.5514,3.554,3.5547,3.5579,3.5651,3.567,3.567,3.5659,3.5684,3.5721,3.5754,3.5767,3.5788,3.5817,3.5844,3.589,3.5884,3.5892,3.5894,3.5894,3.5892,3.5894,3.5941,3.5949,3.5936,3.5941,3.5957,3.5976,3.5996,3.6016,3.6016,4.0523,4.1499,4.1021,4.0883,4.1052,4.1153,4.1273,4.1363,4.1574,4.2068,4.2777,4.3401,4.3658,4.3763,4.415,4.415,4.3974,4.4185,4.3676,4.2658,4.2921,4.264,4.1797,4.1938,4.2135,4.2458,4.2843,4.3137,4.3286,4.3303,4.3118,4.2673,4.1956,4.1552,4.1352,3.9533,3.898,3.9546,3.8247,3.7823,3.8578,3.8507,3.8599,3.909,3.9317,3.917,3.8721,3.8745,3.8894,3.9182,3.9414,3.9337,3.8991,3.9529,3.9754,3.9623,3.9949,4.0441,4.05,4.0477,4.0323,3.9842,3.9746,3.9554,3.8911,3.8161,3.77,3.7584,3.6988,3.6565,3.6853,3.6603,3.6834,3.7565,3.6334,3.5596,3.55,3.55,3.55,3.55,3.55,3.55,3.55,3.55,3.5494,3.5534,3.5547,3.5554,3.559,3.562,3.5618,3.5602,3.5634,3.5659,3.564,3.5679,3.5698,3.5752,3.5776,3.584,3.5889,3.5894,3.5899,3.588,3.5899,3.589,3.5919,3.5908,3.5896,3.5924,3.5953,3.5961,3.5987,3.6009,3.6016,4.0917,4.1389,4.0557,4.0214,4.0307,4.055,4.1083,4.1713,4.2175,4.3093,4.4269,4.4655,4.4933,4.5027,4.5062,4.4817,4.429,4.4817,4.4711,4.4097,4.3992,4.3395,4.2236,4.2655,4.2825,4.2619,4.2967,4.3156,4.325,4.3123,4.3178,4.3278,4.2598,4.2323,4.1992,4.0708,3.9808,3.99,3.9093,3.8673,3.8881,3.8785,3.8869,3.9245,3.9237,3.9242,3.9252,3.9263,3.9088,3.871,3.9276,3.9583,3.9588,3.9731,3.9846,3.9878,4.0158,4.0323,4.0433,4.0414,4.0411,4.035,4.033,4.0496,4.0162,3.9431,3.8957,3.895,3.8257,3.8123,3.8546,3.8238,3.8219,3.8681,3.7142,3.6,3.5692,3.5769,3.5923,3.5846,3.5673,3.5615,3.5731,3.5673,3.5649,3.5554,3.5566,3.5572,3.5583,3.557,3.5579,3.559,3.5585,3.5621,3.5626,3.5639,3.5659,3.5679,3.5726,3.5783,3.5845,3.5856,3.5869,3.5872,3.5879,3.5872,3.5889,3.588,3.5897,3.5931,3.5944,3.5955,3.5963,3.6009,3.6016,4.0914,4.1025,4.0579,4.0596,4.089,4.0976,4.1554,4.2356,4.256,4.3145,4.3885,4.4537,4.4981,4.5144,4.567,4.5775,4.5617,4.5758,4.5512,4.4992,4.5396,4.4729,4.364,4.3779,4.3935,4.3738,4.3479,4.3435,4.3811,4.334,4.3233,4.3442,4.2782,4.2616,4.2782,4.1036,4.0322,4.0506,3.9368,3.8704,3.8765,3.8906,3.9031,3.9142,3.9335,3.9196,3.8811,3.8717,3.8968,3.9294,3.9451,3.9608,3.9633,3.972,3.9807,3.9865,3.9982,4.0081,4.0129,4.0148,4.0204,4.0332,4.0349,4.0411,4.0469,3.9765,3.9381,3.915,3.8527,3.8154,3.8315,3.8219,3.8238,3.8219,3.7743,3.7308,3.7231,3.7327,3.7334,3.7353,3.7257,3.6949,3.6558,3.6372,3.6206,3.5803,3.5694,3.5624,3.5714,3.5663,3.5727,3.5573,3.5554,3.5584,3.5614,3.561,3.5632,3.5623,3.5644,3.5679,3.5737,3.5756,3.5782,3.5807,3.5815,3.583,3.5866,3.5888,3.5914,3.5934,3.5955,3.5949,3.5985,3.6011,3.6014,4.1638,4.1634,4.1382,4.1405,4.166,4.166,4.2163,4.2915,4.3149,4.3623,4.4291,4.4866,4.5309,4.56,4.6021,4.6196,4.6214,4.6214,4.5951,4.5754,4.6145,4.5688,4.4938,4.5,4.4993,4.4671,4.4489,4.4571,4.4572,4.3922,4.3743,4.383,4.3204,4.3075,4.3277,4.1552,4.0598,4.0728,3.957,3.8707,3.8723,3.891,3.9031,3.9115,3.933,3.9239,3.8937,3.8912,3.9144,3.9508,3.9608,3.9608,3.962,3.9668,3.9743,3.9792,3.9876,3.9931,4.0002,4.0012,4.0052,4.0139,4.0177,4.026,4.03,3.9887,3.9623,3.9671,3.921,3.9018,3.8996,3.9035,3.9035,3.9084,3.8961,3.8677,3.8115,3.793,3.7988,3.8007,3.7969,3.7873,3.7296,3.7257,3.7026,3.6757,3.6726,3.6449,3.6168,3.6038,3.5911,3.5828,3.57,3.5734,3.5791,3.5778,3.5874,3.5847,3.5937,3.5896,3.5878,3.5866,3.5718,3.5751,3.5766,3.578,3.5807,3.5849,3.584,3.5869,3.5921,3.5967,3.5984,3.6012,3.6015,4.2782,4.2694,4.2431,4.2378,4.2405,4.2458,4.2908,4.3562,4.396,4.4577,4.5269,4.5674,4.5833,4.6214,4.6161,4.6214,4.6214,4.6214,4.6196,4.6231,4.6483,4.6287,4.58,4.6006,4.585,4.5419,4.5842,4.5676,4.5281,4.4613,4.4382,4.4252,4.3773,4.3552,4.3259,4.1956,4.126,4.0838,3.9735,3.8903,3.8802,3.8896,3.9017,3.9156,3.9304,3.9433,3.9471,3.9545,3.9602,3.9608,3.9608,3.9608,3.9608,3.9608,3.9662,3.9743,3.977,3.9829,3.9929,3.9929,3.9951,3.9972,3.9982,4.0071,4.0177,4.0034,3.9967,4.0108,4.027,4.0031,4.003,4.0277,4.0172,3.9999,4.0126,3.9563,3.8666,3.8235,3.8235,3.8243,3.8281,3.8257,3.8161,3.8142,3.8065,3.7411,3.743,3.7219,3.6962,3.6873,3.6596,3.6295,3.6122,3.5949,3.5975,3.5975,3.6105,3.6188,3.6356,3.6382,3.6303,3.619,3.5827,3.5698,3.5693,3.5708,3.5727,3.5752,3.583,3.5827,3.5885,3.5942,3.5985,3.6011,3.6014,4.3219,4.2699,4.2617,4.2836,4.3183,4.3459,4.3975,4.465,4.4936,4.5252,4.5666,4.5786,4.5955,4.6214,4.6214,4.6214,4.6214,4.6214,4.6214,4.6263,4.6631,4.6724,4.6585,4.6802,4.6753,4.6458,4.6176,4.589,4.5499,4.5271,4.4692,4.3921,4.4158,4.4103,4.3369,4.2525,4.1699,4.1058,4.0084,3.9354,3.8922,3.8974,3.9129,3.9277,3.9426,3.9552,3.9577,3.9608,3.9608,3.9608,3.9608,3.9608,3.9608,3.962,3.9638,3.9656,3.9668,3.9661,3.9684,3.9735,3.9754,3.9862,3.9876,3.9897,4.0042,4.0042,4.0022,4.0062,4.0062,4.011,4.0129,4.0242,4.026,4.0177,4.0195,4.0182,3.9863,3.9738,3.9651,3.9714,3.9749,3.9708,3.913,3.9034,3.8777,3.8219,3.8027,3.793,3.7815,3.7719,3.7392,3.7,3.6923,3.6827,3.6827,3.6827,3.6808,3.6827,3.6904,3.6949,3.689,3.6633,3.6323,3.596,3.5629,3.5748,3.617,3.5989,3.6133,3.602,3.5983,3.6142,3.6265,3.6182,3.6016,4.3731,4.358,4.358,4.3721,4.3961,4.4187,4.4528,4.4954,4.514,4.5441,4.5735,4.5811,4.5955,4.6196,4.6214,4.6214,4.6214,4.6214,4.6214,4.6263,4.644,4.6512,4.6661,4.7035,4.7258,4.723,4.7228,4.6819,4.6297,4.5789,4.5132,4.4104,4.4176,4.3864,4.346,4.2727,4.1882,4.1128,4.0365,3.9666,3.9054,3.9082,3.9277,3.9413,3.9552,3.9608,3.9608,3.9608,3.9608,3.9608,3.9608,3.9608,3.9614,3.9656,3.9691,3.9696,3.9758,3.9773,3.9785,3.9785,3.9821,3.9895,3.9886,3.9991,4.0061,4.0081,4.0052,4.011,4.0139,4.0158,4.0158,4.0295,4.0286,4.0205,4.0214,4.0307,4.0307,4.0307,4.0342,4.0394,4.0361,4.0219,3.9996,3.9785,3.9765,3.9335,3.9342,3.9227,3.8681,3.8546,3.8219,3.793,3.7873,3.7834,3.7815,3.7777,3.768,3.7642,3.7584,3.7623,3.7593,3.7235,3.6869,3.6633,3.6498,3.6775,3.707,3.6789,3.6695,3.6997,3.7075,3.6824,3.6674,3.6711,3.6398,4.4212,4.4598,4.4598,4.4598,4.4598,4.4637,4.4797,4.5059,4.5113,4.5494,4.5803,4.5879,4.6023,4.6172,4.6214,4.6214,4.6214,4.6214,4.6214,4.6239,4.6221,4.6343,4.6518,4.6989,4.7454,4.7832,4.8,4.768,4.68,4.6305,4.548,4.4599,4.4066,4.3754,4.3423,4.2873,4.2194,4.1423,4.0712,4.0003,3.9301,3.9286,3.933,3.9552,3.9596,3.9608,3.9608,3.9608,3.9608,3.9608,3.9608,3.9608,3.9638,3.972,3.9804,3.9804,3.9897,3.9951,3.9951,3.9972,3.9982,4.0012,4.0002,4.0052,4.0158,4.0101,4.0091,4.0139,4.0196,4.0196,4.0261,4.0349,4.0358,4.0288,4.0261,4.0307,4.0307,4.0307,4.036,4.0436,4.0457,4.0373,4.0381,4.0304,4.0419,4.0496,4.0477,4.0323,3.9765,3.94,3.9092,3.9015,3.8988,3.8988,3.8988,3.8911,3.8796,3.8661,3.8527,3.8507,3.8527,3.8515,3.8291,3.7784,3.7702,3.7817,3.7793,3.7559,3.7648,3.8075,3.7962,3.7537,3.7355,3.7286,3.6968,4.4514,4.4598,4.4598,4.4598,4.4626,4.4831,4.5059,4.5336,4.5546,4.5829,4.6097,4.614,4.6147,4.6196,4.6214,4.6214,4.6214,4.6214,4.6221,4.6246,4.627,4.6368,4.6754,4.7125,4.7518,4.7832,4.8096,4.759,4.6709,4.647,4.5645,4.4268,4.4158,4.4103,4.3606,4.3296,4.2782,4.1991,4.1321,4.0689,3.9999,3.9472,3.9317,3.9583,3.9608,3.9608,3.9608,3.9608,3.9608,3.9608,3.9608,3.9608,3.9626,3.9731,3.9792,3.9818,3.995,4.0042,4.0042,4.0032,4.0022,4.0012,4.0042,4.0032,4.0071,4.0052,4.0101,4.0081,4.0091,4.0072,4.0052,4.0251,4.0233,4.0167,4.0215,4.0298,4.0298,4.0289,4.027,4.0304,4.0408,4.0496,4.0496,4.0496,4.0496,4.0496,4.0496,4.0477,4.0208,4.0092,4.0073,4.0092,4.0189,4.0189,4.0181,4.0085,3.9988,3.9835,3.9738,3.9719,3.9815,4.0054,3.9842,3.9008,3.845,3.8322,3.826,3.8286,3.8367,3.8653,3.8423,3.8185,3.8095,3.8056,3.8022,4.4355,4.4598,4.4598,4.4598,4.4654,4.4886,4.5167,4.5398,4.5684,4.5938,4.6147,4.6214,4.6214,4.6214,4.6214,4.6214,4.6214,4.6214,4.6319,4.644,4.6518,4.6708,4.7075,4.741,4.7606,4.7854,4.8059,4.7737,4.6617,4.6397,4.5626,4.4525,4.4176,4.3846,4.3588,4.3442,4.3039,4.2393,4.2009,4.1373,4.0397,3.9671,3.9514,3.9552,3.9608,3.9608,3.9608,3.9608,3.9608,3.9608,3.9608,3.9608,3.9638,3.9715,3.9792,3.9837,4.0001,4.0148,4.0167,4.0204,4.0276,4.0276,4.0258,4.0223,4.0195,4.0223,4.0212,4.0212,4.0167,4.0148,4.0158,4.0252,4.0186,4.0081,4.0158,4.0214,4.0186,4.0167,4.0148,4.0177,4.0339,4.0457,4.0496,4.0496,4.0496,4.0496,4.0496,4.0496,4.0496,4.0496,4.0496,4.0496,4.0458,4.0477,4.0477,4.0496,4.0496,4.0496,4.0496,4.0496,4.0496,4.0458,4.0265,3.9765,3.9354,3.9008,3.9323,3.9549,3.9398,3.9266,3.9315,3.929,3.8997,3.8839,3.8827,4.4196,4.4598,4.4598,4.4598,4.4626,4.4869,4.5167,4.5441,4.5684,4.5955,4.6189,4.6214,4.6214,4.6214,4.6214,4.6214,4.6221,4.627,4.6512,4.6725,4.687,4.7075,4.741,4.7627,4.7834,4.7994,4.8152,4.7865,4.7003,4.6342,4.5516,4.4635,4.3883,4.3479,4.3479,4.3479,4.3002,4.2809,4.2562,4.188,4.0649,4.0037,3.9721,3.9608,3.9608,3.9608,3.9608,3.9608,3.9608,3.9608,3.9608,3.9608,3.9614,3.9715,3.9766,3.9804,4.006,4.0205,4.0306,4.0358,4.0372,4.0383,4.046,4.0375,4.0278,4.0241,4.0336,4.0381,4.0295,4.0196,4.0186,4.0214,4.0167,4.0091,4.012,4.0186,4.0091,4.0042,4.0042,4.0129,4.0294,4.0364,4.04,4.0433,4.0425,4.0489,4.0496,4.0496,4.0496,4.0496,4.0496,4.0496,4.0496,4.0496,4.0496,4.0496,4.0496,4.0496,4.0496,4.0496,4.0496,4.0496,4.0304,4.015,4.0189,3.9969,4.04,4.0496,4.0127,4.0019,4.035,4.0272,3.9805,3.9633,3.9636,4.4542,4.4598,4.4598,4.4598,4.4626,4.4896,4.5167,4.5398,4.5684,4.5955,4.6214,4.6214,4.6214,4.6214,4.6214,4.6214,4.6319,4.6536,4.6754,4.6921,4.7147,4.7414,4.7692,4.7752,4.7975,4.8151,4.8248,4.781,4.7149,4.6379,4.5553,4.4782,4.4011,4.3479,4.3479,4.3479,4.346,4.3273,4.2795,4.1902,4.0845,4.0589,4.0159,3.9777,3.9608,3.9608,3.9608,3.9608,3.9608,3.9608,3.9608,3.9608,3.962,3.9602,3.9626,3.9696,3.9873,4.011,4.0233,4.0288,4.0314,4.0295,4.0314,4.0214,4.0139,4.0062,4.0072,4.0043,4.0042,4.0032,4.0051,4.0032,4.0022,4.0002,3.9992,4.0022,3.9953,3.9897,3.9908,3.9939,4.0051,4.0177,4.0252,4.0306,4.0349,4.0433,4.0489,4.0489,4.0489,4.0481,4.0496,4.0496,4.0496,4.0496,4.0496,4.0496,4.0496,4.0496,4.0496,4.0496,4.0496,4.0496,4.0496,4.0419,4.0496,4.0496,4.0496,4.0496,4.0496,4.0496,4.0496,4.0496,4.0435,4.0377,4.0254,4.4598,4.4598,4.4598,4.4598,4.4654,4.5032,4.5283,4.545,4.5854,4.608,4.6189,4.6214,4.6214,4.6214,4.6214,4.6319,4.6536,4.6731,4.7035,4.7306,4.7521,4.7752,4.7995,4.8075,4.8191,4.8248,4.8306,4.8195,4.7443,4.6562,4.5663,4.5259,4.414,4.3479,4.3479,4.3479,4.3479,4.3197,4.253,4.1801,4.1258,4.0609,3.9984,3.9608,3.9608,3.9608,3.9608,3.9608,3.9608,3.9608,3.9608,3.9608,3.9608,3.962,3.962,3.9614,3.9696,3.9848,3.9998,4.009,4.012,4.012,4.012,4.0081,4.0002,3.992,3.992,4.0012,3.992,3.9897,3.9886,3.9886,3.984,3.9818,3.9854,3.9821,3.9818,3.9792,3.9747,3.977,3.9804,3.9935,4.0049,4.009,4.0158,4.0232,4.033,4.0392,4.0425,4.0449,4.0473,4.0496,4.0496,4.0496,4.0496,4.0496,4.0496,4.0496,4.0496,4.0496,4.0496,4.0496,4.0496,4.0496,4.0496,4.0496,4.0496,4.0496,4.0496,4.0496,4.0496,4.0496,4.0496,4.0492,4.0429,4.4598,4.4598,4.4598,4.4643,4.4765,4.5203,4.5441,4.5572,4.5998,4.6196,4.6214,4.6214,4.6214,4.6214,4.6239,4.6416,4.6795,4.687,4.7262,4.7648,4.7915,4.8073,4.8209,4.8287,4.8287,4.8324,4.8324,4.825,4.7792,4.6838,4.5883,4.581,4.4249,4.3589,4.3479,4.3496,4.3531,4.3588,4.2906,4.2323,4.1801,4.0897,4.0178,3.9777,3.9608,3.9608,3.9608,3.9608,3.9608,3.9608,3.9608,3.9608,3.9608,3.9852,3.9796,3.9796,3.9826,3.9931,3.9913,3.9884,3.9931,3.9931,3.9918,3.9895,3.9865,3.9815,3.977,3.9854,3.9807,3.9747,3.9754,3.9735,3.972,3.9703,3.9715,3.9674,3.9638,3.9674,3.9668,3.9679,3.9703,3.9684,3.9781,3.9851,3.9929,4.0022,4.0139,4.0279,4.0358,4.0417,4.0457,4.0481,4.0496,4.0496,4.0496,4.0496,4.0496,4.0496,4.0496,4.0496,4.0496,4.0496,4.0496,4.0496,4.0496,4.0496,4.0496,4.0496,4.0496,4.0496,4.0496,4.0496,4.0496,4.0496,4.0519,4.4598,4.4598,4.4598,4.472,4.4978,4.5266,4.5546,4.576,4.6055,4.6214,4.6214,4.6214,4.6214,4.6214,4.6246,4.6423,4.6824,4.712,4.7478,4.7813,4.8075,4.8229,4.8324,4.8324,4.8324,4.8324,4.8324,4.8324,4.7921,4.6691,4.6049,4.5663,4.4267,4.3681,4.3496,4.3532,4.3682,4.3807,4.3539,4.2992,4.2364,4.1573,4.0947,3.989,3.9627,3.9608,3.9608,3.9608,3.9608,3.9608,3.9608,3.9608,3.9683,4.0059,4.0021,3.9815,4.0247,4.0178,3.9856,3.9743,3.9823,3.98,3.9807,3.9861,3.991,3.97,3.965,3.9661,3.9668,3.9662,3.9638,3.9614,3.9626,3.9638,3.9638,3.9626,3.9633,3.9633,3.9633,3.962,3.9633,3.9638,3.9638,3.9731,3.9792,3.9884,4.0021,4.0148,4.0304,4.0381,4.0441,4.0473,4.0489,4.0496,4.0496,4.0496,4.0496,4.0496,4.0496,4.0496,4.0496,4.0496,4.0496,4.0496,4.0496,4.0496,4.0496,4.0496,4.0496,4.0496,4.0496,4.0496,4.0496,4.0496,4.0496,4.4709,4.4848,4.4682,4.4765,4.5032,4.5283,4.5572,4.5811,4.6097,4.6214,4.6214,4.6214,4.6214,4.6214,4.6246,4.6542,4.7057,4.7232,4.7606,4.7994,4.8248,4.8305,4.8324,4.8324,4.8324,4.8324,4.8324,4.8324,4.8141,4.6673,4.6085,4.5406,4.4267,4.3699,4.3496,4.3617,4.3816,4.3825,4.3726,4.3142,4.2859,4.1667,4.0947,4.0459,3.9721,3.9646,3.9608,3.9608,3.9608,3.9608,3.9608,3.9608,3.9646,4.0021,4.0002,3.9815,4.0459,4.0403,3.9871,3.9756,3.9875,4.0364,4.0378,4.0322,4.0209,3.9946,3.9664,3.962,3.9702,3.9833,3.9664,3.9639,3.962,3.962,3.9646,3.9683,3.9683,3.9702,3.9608,3.9608,3.9608,3.962,3.962,3.9633,3.9668,3.9743,3.9884,4.0031,4.0195,4.0302,4.0347,4.0408,4.0425,4.0465,4.0465,4.0481,4.0489,4.0496,4.0496,4.0496,4.0496,4.0496,4.0496,4.0496,4.0496,4.0496,4.0496,4.0496,4.0496,4.0496,4.0496,4.0496,4.0496,4.0496,4.0496,4.4748,4.4951,4.482,4.4913,4.523,4.5363,4.558,4.593,4.6122,4.6214,4.6214,4.6214,4.6214,4.6214,4.6239,4.6536,4.7007,4.7276,4.7666,4.7974,4.8191,4.8287,4.8324,4.8324,4.8324,4.8324,4.8324,4.8324,4.8233,4.6654,4.6121,4.5496,4.4413,4.368,4.3566,4.3734,4.3897,4.3853,4.3751,4.3301,4.3144,4.2318,4.1154,4.0891,4.0247,3.9852,3.9702,3.9608,3.9608,3.9608,3.9608,3.9608,3.9683,3.9796,3.9927,4.0228,4.0572,4.0816,4.044,3.9871,3.9908,4.0165,4.0641,4.0685,4.0666,4.0459,4.0591,4.0478,4.0403,4.0272,4.0265,4.0509,4.0572,4.0703,4.0247,4.0171,3.9984,3.9927,3.9739,3.9608,3.9608,3.9608,3.9608,3.962,3.9731,3.9764,3.9815,3.9939,4.0052,4.0139,4.0186,4.026,4.0313,4.0383,4.0433,4.0457,4.0481,4.0496,4.0496,4.0496,4.0496,4.0496,4.0496,4.0496,4.0496,4.0496,4.0496,4.0496,4.0496,4.0496,4.0496,4.0496,4.0496,4.0496,4.0496,4.4765,4.4995,4.4995,4.5283,4.5709,4.5503,4.5684,4.608,4.6172,4.6214,4.6214,4.6214,4.6214,4.6214,4.6214,4.6512,4.6939,4.7232,4.756,4.7915,4.8191,4.8287,4.8324,4.8324,4.8324,4.8324,4.8324,4.8324,4.8288,4.6912,4.6304,4.5639,4.4519,4.3513,4.3549,4.383,4.3989,4.4051,4.425,4.3919,4.352,4.3088,4.2168,4.1248,4.0685,4.0284,3.9739,3.9608,3.9664,3.9833,3.9833,3.989,4.0021,4.0534,4.0741,4.0835,4.1554,4.1892,4.1835,4.0491,4.0078,4.0209,4.0872,4.1079,4.1116,4.1342,4.161,4.1329,4.1554,4.1685,4.1798,4.1798,4.1667,4.1423,4.0929,4.0516,4.034,3.9946,3.9721,3.9608,3.9608,3.9608,3.9608,3.9651,3.978,3.9833,3.9808,3.9851,3.9958,4.0001,4.005,4.0081,4.0158,4.0278,4.0358,4.0441,4.0473,4.0489,4.0496,4.0496,4.0496,4.0496,4.0496,4.0496,4.0496,4.0496,4.0496,4.0496,4.0496,4.0496,4.0496,4.0496,4.0496,4.0496,4.0496,4.4858,4.5257,4.5086,4.5415,4.598,4.5778,4.5786,4.5938,4.6122,4.6214,4.6214,4.6214,4.6214,4.6214,4.6246,4.6518,4.7053,4.7191,4.7521,4.8073,4.8248,4.8287,4.8324,4.8324,4.8324,4.8324,4.8324,4.8306,4.8269,4.7187,4.6578,4.5912,4.4732,4.3709,4.36,4.3751,4.3897,4.4039,4.4218,4.4233,4.405,4.3557,4.2787,4.1629,4.1141,4.0497,3.9833,3.9815,3.9927,4.0322,4.0416,4.0591,4.091,4.1492,4.1554,4.1755,4.2361,4.2844,4.2637,4.1849,4.1267,4.1285,4.1398,4.1849,4.2374,4.2042,4.2061,4.2079,4.223,4.2192,4.1948,4.1967,4.1873,4.1704,4.1291,4.0872,4.0547,3.9965,3.9608,3.9608,3.9608,3.9758,3.9815,4.0253,4.044,4.0302,4.0294,3.9936,3.9905,3.9894,3.9903,3.9937,4.0001,4.0148,4.0251,4.0313,4.0417,4.0457,4.0473,4.0496,4.0496,4.0473,4.0481,4.0473,4.0481,4.0496,4.0496,4.0496,4.0496,4.0496,4.0496,4.0496,4.0496,4.0496,4.0496,4.4265,4.4966,4.4825,4.5269,4.5945,4.5879,4.5837,4.5955,4.6122,4.6214,4.6214,4.6214,4.6214,4.6214,4.6246,4.635,4.6921,4.7236,4.7389,4.7974,4.8229,4.8267,4.8324,4.8306,4.8324,4.8306,4.8306,4.8306,4.8251,4.7702,4.6812,4.581,4.5088,4.4413,4.4014,4.3769,4.3835,4.3995,4.4147,4.4344,4.4228,4.3929,4.3369,4.2487,4.1736,4.0991,4.0534,4.034,4.0384,4.0966,4.1323,4.1479,4.1892,4.2042,4.2173,4.2562,4.3182,4.352,4.3144,4.2844,4.2355,4.2412,4.2468,4.2731,4.3219,4.3069,4.3018,4.298,4.2811,4.283,4.2811,4.2755,4.268,4.2549,4.2155,4.1755,4.1454,4.096,4.0453,4.0359,4.0303,4.0322,4.034,4.0778,4.1223,4.1017,4.0829,4.0453,4.0128,4.0113,4.0037,3.9925,3.9908,4.0038,4.0129,4.0158,4.0278,4.0408,4.0425,4.0425,4.0389,4.0336,4.0397,4.0476,4.0473,4.0489,4.0489,4.0496,4.0496,4.0496,4.0496,4.0496,4.0496,4.0496,4.0496,4.3072,4.4173,4.4294,4.4862,4.5689,4.5802,4.598,4.6172,4.6214,4.6214,4.6214,4.6214,4.6214,4.6214,4.6214,4.627,4.6495,4.7035,4.7323,4.7603,4.8073,4.8209,4.8269,4.8196,4.8048,4.814,4.814,4.7994,4.8142,4.7757,4.6732,4.5997,4.6046,4.5303,4.4593,4.4267,4.4225,4.4281,4.4364,4.4584,4.4612,4.4402,4.3825,4.3106,4.2412,4.1948,4.1529,4.1229,4.1417,4.176,4.2061,4.2098,4.2136,4.2117,4.2637,4.3275,4.4083,4.3895,4.3613,4.3351,4.3332,4.3313,4.3313,4.3351,4.3501,4.3839,4.3881,4.3975,4.3938,4.4144,4.4257,4.4182,4.4125,4.3801,4.3407,4.3106,4.2881,4.2412,4.1867,4.1648,4.161,4.1586,4.1529,4.183,4.2107,4.2165,4.2027,4.1876,4.1487,4.0885,4.066,4.0013,3.9988,3.9935,4.0005,4.0098,4.011,4.0242,4.026,4.026,4.0232,4.0241,4.0304,4.0356,4.0449,4.0481,4.0489,4.0496,4.0496,4.0496,4.0496,4.0496,4.0496,4.0496,4.0496,4.2765,4.3492,4.4069,4.4669,4.532,4.5852,4.6147,4.6214,4.6214,4.6214,4.6214,4.6214,4.6214,4.6214,4.6214,4.6392,4.6708,4.7075,4.7414,4.7731,4.8034,4.8229,4.8141,4.781,4.7571,4.7498,4.7516,4.7571,4.7573,4.7442,4.77,4.7343,4.6933,4.6194,4.5731,4.5485,4.5236,4.4983,4.5015,4.5009,4.4972,4.4791,4.4182,4.3482,4.305,4.2624,4.2192,4.1892,4.2117,4.275,4.29,4.3055,4.3769,4.3769,4.4013,4.4102,4.4369,4.435,4.4195,4.4125,4.4088,4.4064,4.4083,4.4158,4.4252,4.4308,4.4482,4.4482,4.4482,4.4482,4.4482,4.4482,4.4482,4.4271,4.3895,4.3595,4.3351,4.3018,4.2511,4.2455,4.2436,4.2455,4.2449,4.2786,4.3057,4.3228,4.3253,4.3095,4.2737,4.2101,4.1342,4.0678,4.0508,4.0598,4.017,4.0114,4.0065,4.0051,4.0244,4.0311,4.0205,4.0215,4.0215,4.0278,4.0356,4.0422,4.0489,4.0481,4.0457,4.0489,4.0496,4.0496,4.0496,4.0496,4.0496,4.1929,4.2674,4.3189,4.3868,4.4681,4.5424,4.5758,4.5793,4.6074,4.6214,4.6214,4.6214,4.6214,4.6221,4.6368,4.6584,4.6778,4.7143,4.7475,4.7772,4.8015,4.8152,4.7973,4.7553,4.7461,4.7333,4.7314,4.7388,4.7518,4.7919,4.8193,4.7966,4.7632,4.7159,4.6771,4.6817,4.6927,4.6417,4.6015,4.5774,4.5447,4.5181,4.4557,4.3857,4.3557,4.3106,4.2943,4.2736,4.2975,4.3613,4.3764,4.3938,4.4444,4.4444,4.4444,4.4458,4.4463,4.4482,4.4421,4.4439,4.4463,4.4482,4.4482,4.4463,4.4444,4.4463,4.4482,4.4482,4.4482,4.4482,4.4482,4.4482,4.4482,4.4463,4.4158,4.3839,4.3576,4.3318,4.3187,4.3112,4.3112,4.3131,4.3316,4.3666,4.3912,4.3936,4.4005,4.4026,4.3628,4.3049,4.2232,4.1436,4.1362,4.1364,4.0912,4.065,4.09,4.0976,4.0902,4.0864,4.0485,4.0241,4.031,4.0279,4.0258,4.0356,4.0465,4.0425,4.04,4.0449,4.0496,4.0496,4.0496,4.0496,4.0496,4.0821,4.1898,4.1999,4.2849,4.3933,4.4711,4.4992,4.508,4.5617,4.6091,4.6161,4.6214,4.6214,4.627,4.6536,4.6708,4.6921,4.7214,4.7542,4.7795,4.7955,4.8113,4.7992,4.748,4.7223,4.7535,4.759,4.7205,4.8163,4.8529,4.8541,4.8333,4.8765,4.8375,4.7546,4.8101,4.8193,4.7809,4.7162,4.669,4.5937,4.5606,4.5322,4.4463,4.3975,4.3632,4.4013,4.3975,4.3726,4.42,4.4463,4.4444,4.4463,4.4482,4.4482,4.4482,4.4482,4.4482,4.4482,4.4482,4.4482,4.4482,4.4482,4.4482,4.4482,4.4482,4.4482,4.4482,4.4482,4.4482,4.4482,4.4482,4.4482,4.4482,4.4327,4.4177,4.4064,4.39,4.3881,4.3825,4.3825,4.3844,4.3909,4.4224,4.4291,4.4436,4.4511,4.4591,4.4357,4.3809,4.315,4.2289,4.226,4.2255,4.2014,4.1863,4.2131,4.2158,4.1857,4.1588,4.1317,4.088,4.0394,4.0344,4.0304,4.0347,4.0417,4.0408,4.0425,4.0465,4.0496,4.0496,4.0496,4.0496,4.0496,4.0373,4.094,4.1912,4.2922,4.3845,4.4097,4.4167,4.4202,4.4343,4.5133,4.6039,4.6179,4.6126,4.6077,4.6513,4.6699,4.6761,4.7007,4.7596,4.7802,4.7904,4.793,4.7938,4.6966,4.6838,4.6893,4.6911,4.7114,4.8274,4.8748,4.8956,4.8963,4.9279,4.8861,4.8429,4.9075,4.8957,4.8779,4.8485,4.7626,4.6735,4.5898,4.5322,4.4721,4.4233,4.4195,4.4407,4.4369,4.4289,4.4482,4.4482,4.4482,4.4482,4.4482,4.4482,4.4482,4.4482,4.4482,4.4482,4.4482,4.4482,4.4482,4.4482,4.4482,4.4482,4.4482,4.4482,4.4482,4.4482,4.4482,4.4482,4.4482,4.4482,4.4482,4.4482,4.4482,4.4482,4.4482,4.4482,4.4482,4.4482,4.4496,4.451,4.4578,4.4699,4.4719,4.4732,4.4745,4.4661,4.4301,4.4033,4.3378,4.3208,4.314,4.2995,4.2978,4.319,4.2978,4.26,4.2364,4.2112,4.1471,4.0844,4.0487,4.0339,4.0364,4.0397,4.0465,4.0481,4.0489,4.0496,4.0496,4.0496,4.0496,4.0496,4.0263,4.0644,4.1873,4.2568,4.2916,4.3254,4.3412,4.3412,4.3412,4.4079,4.5168,4.5477,4.5512,4.5475,4.6067,4.6222,4.6167,4.6476,4.6943,4.7358,4.7579,4.7584,4.7111,4.6526,4.6361,4.6379,4.6654,4.7224,4.8347,4.8678,4.8837,4.9079,4.9246,4.9329,4.9211,4.9262,4.9329,4.9327,4.9311,4.859,4.7481,4.6655,4.5585,4.4951,4.4501,4.4501,4.4482,4.4482,4.4482,4.4482,4.4482,4.4482,4.4482,4.4482,4.4482,4.4482,4.4482,4.4482,4.4482,4.4482,4.4482,4.4482,4.4482,4.4482,4.4482,4.4482,4.4482,4.4482,4.4482,4.4482,4.4482,4.4482,4.4482,4.4482,4.4482,4.4482,4.4482,4.4482,4.4482,4.4482,4.4482,4.4496,4.451,4.451,4.4605,4.4605,4.4659,4.4751,4.4699,4.4659,4.4455,4.4301,4.4037,4.412,4.4184,4.4147,4.4171,4.3834,4.3361,4.2773,4.2305,4.176,4.1256,4.0775,4.0426,4.033,4.0372,4.0457,4.05,4.0508,4.0489,4.0496,4.0496,4.0496,4.0496,4.0186,4.0693,4.1745,4.1986,4.174,4.2342,4.2658,4.2658,4.2658,4.2991,4.3658,4.4431,4.4325,4.4599,4.5195,4.5179,4.5341,4.5827,4.6317,4.6686,4.6864,4.6943,4.6745,4.6287,4.5993,4.6159,4.6562,4.7279,4.8182,4.8494,4.8803,4.8925,4.9079,4.9265,4.9279,4.9377,4.9474,4.9459,4.9309,4.8855,4.8119,4.7368,4.6129,4.5176,4.4557,4.4501,4.4482,4.4482,4.4482,4.4482,4.4482,4.4482,4.4482,4.4482,4.4482,4.4482,4.4482,4.4482,4.4482,4.4482,4.4482,4.4482,4.4482,4.4482,4.4468,4.4454,4.4454,4.4426,4.4426,4.4482,4.4482,4.4482,4.4482,4.4482,4.4482,4.4454,4.4454,4.4454,4.4454,4.4454,4.4468,4.4468,4.4482,4.4496,4.4496,4.4496,4.4537,4.4619,4.4672,4.4646,4.4529,4.4575,4.4573,4.4767,4.4987,4.4919,4.4723,4.4643,4.4102,4.3254,4.2545,4.225,4.1715,4.0899,4.059,4.049,4.0411,4.0441,4.0457,4.0585,4.0489,4.0496,4.0496,4.0496,4.0496,3.9842,4.0858,4.1091,4.1337,4.1595,4.1797,4.1832,4.1832,4.1868,4.1938,4.2324,4.2921,4.3377,4.3933,4.47,4.4854,4.4705,4.5177,4.5644,4.6085,4.6432,4.6415,4.614,4.5663,4.5443,4.5755,4.6324,4.7132,4.796,4.853,4.8838,4.8873,4.9281,4.9412,4.939,4.9471,4.9471,4.9396,4.9171,4.8776,4.7687,4.6974,4.6505,4.5641,4.482,4.4613,4.4482,4.4482,4.4482,4.4482,4.4482,4.4482,4.4482,4.4482,4.4482,4.4482,4.4482,4.4487,4.4487,4.4473,4.4473,4.4426,4.443,4.4401,4.4373,4.4329,4.4281,4.4203,4.4233,4.4411,4.4426,4.4426,4.4426,4.4426,4.4426,4.4368,4.434,4.434,4.434,4.4373,4.4401,4.443,4.4473,4.4487,4.4496,4.4482,4.4482,4.4565,4.4578,4.4578,4.456,4.4725,4.4865,4.4986,4.5034,4.5049,4.496,4.5003,4.4832,4.4013,4.3359,4.2939,4.2336,4.1586,4.1003,4.0745,4.0657,4.1006,4.0715,4.0816,4.0585,4.0496,4.0496,4.0496,4.0496]}]]